| time (UTC) | temp F | wind direction | speed knots | gust knots | rain 1hr in | rain 24hr in | rain mn in | humidity % | barometer mb |
| 20260902063237 | 78 | 203 | 4.3 | 4.3 | 0.00 | 0.00 | 0.00 | 68 | 1015.6 |
| 20260902063148 | 78 | 202 | 3.5 | 4.3 | 0.00 | 0.00 | 0.00 | 68 | 1015.6 |
| 20260902063044 | 78 | 205 | 2.6 | 4.3 | 0.00 | 0.00 | 0.00 | 68 | 1015.6 |
| 20260902062942 | 78 | 206 | 2.6 | 4.3 | 0.00 | 0.00 | 0.00 | 68 | 1015.6 |
| 20260902062839 | 78 | 206 | 3.5 | 4.3 | 0.00 | 0.00 | 0.00 | 68 | 1015.6 |
| 20260902062742 | 78 | 212 | 2.6 | 4.3 | 0.00 | 0.00 | 0.00 | 68 | 1015.7 |
| 20260902062640 | 78 | 212 | 2.6 | 4.3 | 0.00 | 0.00 | 0.00 | 68 | 1015.7 |
| 20260902062538 | 78 | 212 | 3.5 | 4.3 | 0.00 | 0.00 | 0.00 | 68 | 1015.7 |
| 20260902062437 | 78 | 213 | 3.5 | 4.3 | 0.00 | 0.00 | 0.00 | 68 | 1015.7 |
| 20260902062355 | 78 | 215 | 3.5 | 4.3 | 0.00 | 0.00 | 0.00 | 68 | 1015.7 |
| 20260902062131 | 78 | 212 | 2.6 | 4.3 | 0.00 | 0.00 | 0.00 | 68 | 1015.7 |
| 20260902062032 | 78 | 213 | 3.5 | 4.3 | 0.00 | 0.00 | 0.00 | 68 | 1015.7 |
| 20260902061931 | 78 | 227 | 2.6 | 3.5 | 0.00 | 0.00 | 0.00 | 68 | 1015.7 |
| 20260902061830 | 78 | 224 | 2.6 | 3.5 | 0.00 | 0.00 | 0.00 | 68 | 1015.7 |
| 20260902061740 | 78 | 227 | 2.6 | 3.5 | 0.00 | 0.00 | 0.00 | 68 | 1015.7 |
| 20260902061649 | 78 | 227 | 2.6 | 2.6 | 0.00 | 0.00 | 0.00 | 68 | 1015.7 |
| 20260902061545 | 78 | 227 | 1.7 | 2.6 | 0.00 | 0.00 | 0.00 | 68 | 1015.7 |
| 20260902061401 | 78 | 227 | 1.7 | 2.6 | 0.00 | 0.00 | 0.00 | 68 | 1015.7 |
| 20260902061238 | 78 | 229 | 1.7 | 2.6 | 0.00 | 0.00 | 0.00 | 68 | 1015.7 |
| 20260902061156 | 78 | 226 | 2.6 | 2.6 | 0.00 | 0.00 | 0.00 | 68 | 1015.7 |
| 20260902061038 | 78 | 227 | 2.6 | 2.6 | 0.00 | 0.00 | 0.00 | 69 | 1015.7 |
| 20260902060936 | 78 | 227 | 2.6 | 2.6 | 0.00 | 0.00 | 0.00 | 68 | 1015.7 |
| 20260902060832 | 78 | 227 | 1.7 | 2.6 | 0.00 | 0.00 | 0.00 | 68 | 1015.7 |
| 20260902060732 | 78 | 227 | 1.7 | 2.6 | 0.00 | 0.00 | 0.00 | 68 | 1015.7 |
| 20260902060631 | 78 | 227 | 1.7 | 2.6 | 0.00 | 0.00 | 0.00 | 68 | 1015.7 |
| 20260902060530 | 78 | 227 | 1.7 | 2.6 | 0.00 | 0.00 | 0.00 | 68 | 1015.7 |
| 20260902060449 | 78 | 229 | 1.7 | 2.6 | 0.00 | 0.00 | 0.00 | 68 | 1015.7 |
| 20260902060350 | 78 | 227 | 1.7 | 2.6 | 0.00 | 0.00 | 0.00 | 68 | 1015.7 |
| 20260902060248 | 78 | 227 | 0.9 | 1.7 | 0.00 | 0.00 | 0.00 | 68 | 1015.7 |
| 20260902060158 | 78 | 227 | 1.7 | 1.7 | 0.00 | 0.00 | 0.00 | 68 | 1015.7 |
| 20260902060035 | 78 | 227 | 1.7 | 1.7 | 0.00 | 0.00 | 0.00 | 68 | 1015.7 |
| 20260902055933 | 78 | 229 | 1.7 | 1.7 | 0.00 | 0.00 | 0.00 | 68 | 1015.7 |
| 20260902055832 | 78 | 227 | 1.7 | 1.7 | 0.00 | 0.00 | 0.00 | 68 | 1015.7 |
| 20260902055730 | 78 | 227 | 0.9 | 1.7 | 0.00 | 0.00 | 0.00 | 68 | 1015.8 |
| 20260902055629 | 78 | 227 | 0.9 | 1.7 | 0.00 | 0.00 | 0.00 | 68 | 1015.8 |
| 20260902055532 | 78 | 227 | 0.9 | 1.7 | 0.00 | 0.00 | 0.00 | 68 | 1015.8 |
| 20260902055431 | 78 | 229 | 0.9 | 1.7 | 0.00 | 0.00 | 0.00 | 68 | 1015.8 |
| 20260902055329 | 78 | 229 | 0.9 | 1.7 | 0.00 | 0.00 | 0.00 | 68 | 1015.8 |
| 20260902055229 | 78 | 227 | 0.9 | 1.7 | 0.00 | 0.00 | 0.00 | 68 | 1015.8 |
| 20260902055131 | 78 | 227 | 0.9 | 1.7 | 0.00 | 0.00 | 0.00 | 68 | 1015.8 |
| 20260902055030 | 78 | 229 | 0.9 | 1.7 | 0.00 | 0.00 | 0.00 | 68 | 1015.8 |
| 20260902054927 | 78 | 227 | 0.9 | 1.7 | 0.00 | 0.00 | 0.00 | 68 | 1015.8 |
| 20260902054831 | 78 | 227 | 0.9 | 1.7 | 0.00 | 0.00 | 0.00 | 68 | 1015.8 |
| 20260902054750 | 78 | 227 | 1.7 | 1.7 | 0.00 | 0.00 | 0.00 | 68 | 1015.8 |
| 20260902054719 | 78 | 227 | 1.7 | 1.7 | 0.00 | 0.00 | 0.00 | 68 | 1015.8 |
| 20260902054536 | 78 | 226 | 1.7 | 1.7 | 0.00 | 0.00 | 0.00 | 68 | 1015.8 |
| 20260902054434 | 78 | 227 | 1.7 | 1.7 | 0.00 | 0.00 | 0.00 | 68 | 1015.8 |
| 20260902054334 | 78 | 229 | 1.7 | 1.7 | 0.00 | 0.00 | 0.00 | 68 | 1015.8 |
| 20260902054232 | 78 | 229 | 0.9 | 1.7 | 0.00 | 0.00 | 0.00 | 68 | 1016.0 |
| 20260902054151 | 78 | 227 | 0.0 | 0.0 | 0.00 | 0.00 | 0.00 | 68 | 1016.0 |
| 20260902054031 | 78 | 226 | 0.0 | 0.0 | 0.00 | 0.00 | 0.00 | 68 | 1016.0 |
| 20260902053930 | 78 | 227 | 0.0 | 0.0 | 0.00 | 0.00 | 0.00 | 68 | 1016.0 |
| 20260902053848 | 78 | 229 | 0.0 | 0.0 | 0.00 | 0.00 | 0.00 | 68 | 1016.0 |
| 20260902053745 | 78 | 227 | 0.0 | 0.0 | 0.00 | 0.00 | 0.00 | 68 | 1016.0 |
| 20260902053626 | 78 | 227 | 0.0 | 0.0 | 0.00 | 0.00 | 0.00 | 68 | 1016.0 |
| 20260902053548 | 78 | 229 | 0.0 | 0.0 | 0.00 | 0.00 | 0.00 | 68 | 1016.0 |
| 20260902053426 | 78 | 227 | 0.0 | 0.0 | 0.00 | 0.00 | 0.00 | 68 | 1016.0 |
| 20260902053343 | 78 | 226 | 0.0 | 0.0 | 0.00 | 0.00 | 0.00 | 68 | 1016.0 |
| 20260902053245 | 78 | 229 | 0.0 | 0.0 | 0.00 | 0.00 | 0.00 | 68 | 1016.0 |
| 20260902053156 | 78 | 229 | 0.0 | 0.0 | 0.00 | 0.00 | 0.00 | 68 | 1016.0 |
| 20260902053032 | 78 | 226 | 0.0 | 0.0 | 0.00 | 0.00 | 0.00 | 68 | 1016.0 |
| 20260902052930 | 78 | 227 | 0.0 | 0.0 | 0.00 | 0.00 | 0.00 | 68 | 1016.0 |
| 20260902052828 | 78 | 227 | 0.0 | 0.0 | 0.00 | 0.00 | 0.00 | 68 | 1016.0 |
| 20260902052748 | 78 | 229 | 0.0 | 0.0 | 0.00 | 0.00 | 0.00 | 68 | 1015.9 |
| 20260902052645 | 78 | 229 | 0.0 | 0.0 | 0.00 | 0.00 | 0.00 | 68 | 1015.9 |
| 20260902052602 | 78 | 227 | 0.0 | 0.0 | 0.00 | 0.00 | 0.00 | 68 | 1015.9 |
| 20260902052439 | 78 | 229 | 0.0 | 0.0 | 0.00 | 0.00 | 0.00 | 68 | 1015.9 |
| 20260902052342 | 78 | 227 | 0.0 | 0.0 | 0.00 | 0.00 | 0.00 | 68 | 1015.9 |
| 20260902052240 | 78 | 226 | 0.0 | 0.0 | 0.00 | 0.00 | 0.00 | 68 | 1015.9 |
| 20260902052138 | 78 | 227 | 0.0 | 0.0 | 0.00 | 0.00 | 0.00 | 68 | 1015.9 |
| 20260902052037 | 78 | 227 | 0.0 | 0.0 | 0.00 | 0.00 | 0.00 | 68 | 1015.9 |
| 20260902051935 | 78 | 229 | 0.0 | 0.0 | 0.00 | 0.00 | 0.00 | 68 | 1015.9 |
| 20260902051834 | 78 | 229 | 0.0 | 0.0 | 0.00 | 0.00 | 0.00 | 68 | 1015.9 |
| 20260902051804 | 78 | 229 | 0.0 | 0.0 | 0.00 | 0.00 | 0.00 | 68 | 1015.9 |
| 20260902051656 | 78 | 227 | 0.0 | 0.0 | 0.00 | 0.00 | 0.00 | 68 | 1015.9 |
| 20260902051533 | 78 | 229 | 0.0 | 0.0 | 0.00 | 0.00 | 0.00 | 68 | 1015.9 |
| 20260902051452 | 78 | 229 | 0.0 | 0.0 | 0.00 | 0.00 | 0.00 | 68 | 1015.9 |
| 20260902051349 | 78 | 227 | 0.0 | 0.0 | 0.00 | 0.00 | 0.00 | 68 | 1015.9 |
| 20260902051227 | 78 | 226 | 0.0 | 0.0 | 0.00 | 0.00 | 0.00 | 68 | 1015.9 |
| 20260902051125 | 79 | 229 | 0.0 | 0.0 | 0.00 | 0.00 | 0.00 | 68 | 1015.9 |
| 20260902051044 | 79 | 226 | 0.0 | 0.0 | 0.00 | 0.00 | 0.00 | 68 | 1015.9 |
| 20260902050942 | 79 | 229 | 0.0 | 0.0 | 0.00 | 0.00 | 0.00 | 68 | 1015.9 |
| 20260902050825 | 79 | 227 | 0.0 | 0.0 | 0.00 | 0.00 | 0.00 | 68 | 1015.9 |
| 20260902050743 | 79 | 226 | 0.0 | 0.0 | 0.00 | 0.00 | 0.00 | 68 | 1015.9 |
| 20260902050643 | 79 | 227 | 0.0 | 0.0 | 0.00 | 0.00 | 0.00 | 68 | 1015.9 |
| 20260902050542 | 79 | 229 | 0.0 | 0.0 | 0.00 | 0.00 | 0.00 | 67 | 1015.9 |
| 20260902050440 | 79 | 229 | 0.0 | 0.0 | 0.00 | 0.00 | 0.00 | 67 | 1015.9 |
| 20260902050339 | 79 | 227 | 0.0 | 0.0 | 0.00 | 0.00 | 0.00 | 67 | 1015.9 |
| 20260902050237 | 79 | 229 | 0.0 | 0.0 | 0.00 | 0.00 | 0.00 | 67 | 1015.9 |
| 20260902050212 | 79 | 227 | 0.0 | 0.0 | 0.00 | 0.00 | 0.00 | 67 | 1015.9 |
| 20260902050047 | 79 | 227 | 0.0 | 0.0 | 0.00 | 0.00 | 0.00 | 67 | 1015.9 |
| 20260902050007 | 79 | 229 | 0.0 | 0.0 | 0.00 | 0.00 | 0.00 | 67 | 1015.9 |
| 20260902045842 | 79 | 229 | 0.0 | 0.0 | 0.00 | 0.00 | 0.00 | 67 | 1015.9 |
| 20260902045740 | 79 | 226 | 0.0 | 0.0 | 0.00 | 0.00 | 0.00 | 67 | 1016.0 |
| 20260902045639 | 79 | 226 | 0.0 | 0.0 | 0.00 | 0.00 | 0.00 | 67 | 1016.0 |
| 20260902045536 | 79 | 229 | 0.0 | 0.0 | 0.00 | 0.00 | 0.00 | 67 | 1016.0 |
| 20260902045456 | 79 | 227 | 0.0 | 0.9 | 0.00 | 0.00 | 0.00 | 67 | 1016.0 |
| 20260902045335 | 79 | 226 | 0.0 | 1.7 | 0.00 | 0.00 | 0.00 | 67 | 1016.0 |
| 20260902045234 | 79 | 229 | 0.0 | 1.7 | 0.00 | 0.00 | 0.00 | 68 | 1016.0 |
| 20260902045134 | 79 | 229 | 0.0 | 1.7 | 0.00 | 0.00 | 0.00 | 68 | 1016.0 |
| 20260902045031 | 79 | 227 | 0.0 | 1.7 | 0.00 | 0.00 | 0.00 | 68 | 1016.0 |
| 20260902044930 | 79 | 229 | 0.0 | 1.7 | 0.00 | 0.00 | 0.00 | 67 | 1016.0 |
| 20260902044828 | 79 | 229 | 0.0 | 1.7 | 0.00 | 0.00 | 0.00 | 67 | 1016.0 |
| 20260902044757 | 79 | 227 | 0.0 | 1.7 | 0.00 | 0.00 | 0.00 | 67 | 1016.0 |
| 20260902044645 | 79 | 229 | 0.0 | 1.7 | 0.00 | 0.00 | 0.00 | 67 | 1016.0 |
| 20260902044527 | 79 | 229 | 0.9 | 1.7 | 0.00 | 0.00 | 0.00 | 67 | 1016.0 |
| 20260902044428 | 79 | 227 | 1.7 | 1.7 | 0.00 | 0.00 | 0.00 | 68 | 1016.0 |
| 20260902044326 | 79 | 227 | 0.9 | 1.7 | 0.00 | 0.00 | 0.00 | 68 | 1016.0 |
| 20260902044226 | 79 | 227 | 0.9 | 1.7 | 0.00 | 0.00 | 0.00 | 67 | 1016.0 |
| 20260902044124 | 79 | 229 | 0.9 | 1.7 | 0.00 | 0.00 | 0.00 | 68 | 1016.0 |
| 20260902044041 | 79 | 229 | 0.9 | 1.7 | 0.00 | 0.00 | 0.00 | 67 | 1016.0 |
| 20260902044000 | 79 | 227 | 0.9 | 1.7 | 0.00 | 0.00 | 0.00 | 68 | 1016.0 |
| 20260902043841 | 79 | 229 | 0.9 | 1.7 | 0.00 | 0.00 | 0.00 | 68 | 1016.0 |
| 20260902043740 | 79 | 226 | 0.9 | 1.7 | 0.00 | 0.00 | 0.00 | 68 | 1016.0 |
| 20260902043638 | 79 | 229 | 0.9 | 1.7 | 0.00 | 0.00 | 0.00 | 68 | 1016.0 |
| 20260902043557 | 79 | 227 | 0.9 | 1.7 | 0.00 | 0.00 | 0.00 | 67 | 1016.0 |
| 20260902043434 | 79 | 229 | 0.0 | 0.0 | 0.00 | 0.00 | 0.00 | 66 | 1016.0 |
| 20260902043333 | 79 | 227 | 0.0 | 0.0 | 0.00 | 0.00 | 0.00 | 66 | 1016.0 |
| 20260902043242 | 79 | 227 | 0.0 | 0.0 | 0.00 | 0.00 | 0.00 | 66 | 1016.0 |
| 20260902043152 | 79 | 224 | 0.0 | 0.0 | 0.00 | 0.00 | 0.00 | 67 | 1016.0 |
| 20260902043032 | 79 | 227 | 0.0 | 0.0 | 0.00 | 0.00 | 0.00 | 67 | 1016.0 |
| 20260902042931 | 79 | 227 | 0.0 | 0.0 | 0.00 | 0.00 | 0.00 | 67 | 1016.0 |
| 20260902042830 | 79 | 227 | 0.0 | 0.0 | 0.00 | 0.00 | 0.00 | 67 | 1016.0 |
| 20260902042729 | 79 | 227 | 0.0 | 0.0 | 0.00 | 0.00 | 0.00 | 67 | 1016.0 |
| 20260902042627 | 79 | 226 | 0.0 | 0.9 | 0.00 | 0.00 | 0.00 | 66 | 1016.0 |
| 20260902042526 | 79 | 229 | 0.0 | 0.9 | 0.00 | 0.00 | 0.00 | 66 | 1016.0 |
| 20260902042427 | 79 | 226 | 0.0 | 1.7 | 0.00 | 0.00 | 0.00 | 66 | 1016.0 |
| 20260902042328 | 79 | 229 | 0.0 | 1.7 | 0.00 | 0.00 | 0.00 | 66 | 1016.0 |
| 20260902042227 | 79 | 229 | 0.0 | 1.7 | 0.00 | 0.00 | 0.00 | 66 | 1016.0 |
| 20260902042125 | 79 | 227 | 0.0 | 1.7 | 0.00 | 0.00 | 0.00 | 66 | 1016.0 |
| 20260902042042 | 79 | 227 | 0.0 | 1.7 | 0.00 | 0.00 | 0.00 | 66 | 1016.0 |
| 20260902042000 | 79 | 226 | 0.0 | 1.7 | 0.00 | 0.00 | 0.00 | 66 | 1016.0 |
| 20260902041919 | 79 | 229 | 0.0 | 1.7 | 0.00 | 0.00 | 0.00 | 66 | 1016.0 |
| 20260902041816 | 79 | 229 | 0.9 | 1.7 | 0.00 | 0.00 | 0.00 | 66 | 1016.0 |
| 20260902041703 | 79 | 226 | 0.9 | 1.7 | 0.00 | 0.00 | 0.00 | 66 | 1016.0 |
| 20260902041545 | 79 | 227 | 0.9 | 1.7 | 0.00 | 0.00 | 0.00 | 66 | 1016.0 |
| 20260902041445 | 79 | 226 | 0.9 | 1.7 | 0.00 | 0.00 | 0.00 | 66 | 1016.0 |
| 20260902041403 | 79 | 227 | 0.9 | 1.7 | 0.00 | 0.00 | 0.00 | 66 | 1016.0 |
| 20260902041303 | 79 | 227 | 0.9 | 1.7 | 0.00 | 0.00 | 0.00 | 66 | 1016.1 |
| 20260902041140 | 79 | 224 | 0.9 | 1.7 | 0.00 | 0.00 | 0.00 | 66 | 1016.1 |
| 20260902041038 | 79 | 227 | 0.9 | 1.7 | 0.00 | 0.00 | 0.00 | 66 | 1016.1 |
| 20260902040936 | 79 | 229 | 0.9 | 2.6 | 0.00 | 0.00 | 0.00 | 66 | 1016.1 |
| 20260902040836 | 79 | 226 | 0.9 | 2.6 | 0.00 | 0.00 | 0.00 | 66 | 1016.1 |
| 20260902040739 | 79 | 226 | 0.9 | 2.6 | 0.00 | 0.00 | 0.00 | 66 | 1016.1 |
| 20260902040638 | 79 | 227 | 0.9 | 2.6 | 0.00 | 0.00 | 0.00 | 66 | 1016.1 |
| 20260902040557 | 79 | 227 | 1.7 | 2.6 | 0.00 | 0.00 | 0.00 | 66 | 1016.1 |
| 20260902040455 | 79 | 226 | 0.9 | 2.6 | 0.00 | 0.00 | 0.00 | 66 | 1016.1 |
| 20260902040353 | 79 | 227 | 1.7 | 2.6 | 0.00 | 0.00 | 0.00 | 66 | 1016.1 |
| 20260902040239 | 79 | 229 | 1.7 | 2.6 | 0.00 | 0.00 | 0.00 | 66 | 1016.1 |
| 20260902040148 | 79 | 229 | 1.7 | 2.6 | 0.00 | 0.00 | 0.00 | 66 | 1016.1 |
| 20260902040024 | 79 | 227 | 1.7 | 2.6 | 0.00 | 0.00 | 0.00 | 66 | 1016.1 |
| 20260902035925 | 79 | 227 | 1.7 | 2.6 | 0.00 | 0.00 | 0.00 | 66 | 1016.1 |
| 20260902035828 | 79 | 224 | 1.7 | 2.6 | 0.00 | 0.00 | 0.00 | 66 | 1016.1 |
| 20260902035726 | 79 | 227 | 1.7 | 2.6 | 0.00 | 0.00 | 0.00 | 66 | 1016.2 |
| 20260902035645 | 79 | 227 | 1.7 | 2.6 | 0.00 | 0.00 | 0.00 | 66 | 1016.2 |
| 20260902035603 | 79 | 227 | 1.7 | 2.6 | 0.00 | 0.00 | 0.00 | 66 | 1016.2 |
| 20260902035441 | 79 | 227 | 2.6 | 2.6 | 0.00 | 0.00 | 0.00 | 67 | 1016.2 |
| 20260902035340 | 79 | 229 | 2.6 | 2.6 | 0.00 | 0.00 | 0.00 | 67 | 1016.2 |
| 20260902035238 | 79 | 226 | 2.6 | 2.6 | 0.00 | 0.00 | 0.00 | 67 | 1016.2 |
| 20260902035141 | 79 | 227 | 2.6 | 2.6 | 0.00 | 0.00 | 0.00 | 67 | 1016.2 |
| 20260902035040 | 79 | 229 | 1.7 | 2.6 | 0.00 | 0.00 | 0.00 | 67 | 1016.2 |
| 20260902034938 | 79 | 227 | 1.7 | 2.6 | 0.00 | 0.00 | 0.00 | 67 | 1016.2 |
| 20260902034836 | 79 | 227 | 1.7 | 2.6 | 0.00 | 0.00 | 0.00 | 67 | 1016.2 |
| 20260902034755 | 79 | 224 | 1.7 | 2.6 | 0.00 | 0.00 | 0.00 | 66 | 1016.2 |
| 20260902034725 | 79 | 226 | 1.7 | 2.6 | 0.00 | 0.00 | 0.00 | 66 | 1016.2 |
| 20260902034602 | 79 | 227 | 1.7 | 2.6 | 0.00 | 0.00 | 0.00 | 66 | 1016.2 |
| 20260902034438 | 79 | 229 | 1.7 | 2.6 | 0.00 | 0.00 | 0.00 | 66 | 1016.2 |
| 20260902034337 | 79 | 226 | 1.7 | 2.6 | 0.00 | 0.00 | 0.00 | 67 | 1016.2 |
| 20260902034240 | 79 | 226 | 1.7 | 2.6 | 0.00 | 0.00 | 0.00 | 66 | 1016.2 |
| 20260902034140 | 79 | 226 | 1.7 | 2.6 | 0.00 | 0.00 | 0.00 | 66 | 1016.2 |
| 20260902034037 | 79 | 229 | 1.7 | 2.6 | 0.00 | 0.00 | 0.00 | 66 | 1016.2 |
| 20260902033937 | 79 | 229 | 1.7 | 2.6 | 0.00 | 0.00 | 0.00 | 66 | 1016.2 |
| 20260902033835 | 79 | 227 | 1.7 | 2.6 | 0.00 | 0.00 | 0.00 | 66 | 1016.2 |
| 20260902033753 | 79 | 229 | 1.7 | 2.6 | 0.00 | 0.00 | 0.00 | 66 | 1016.2 |
| 20260902033652 | 79 | 227 | 1.7 | 2.6 | 0.00 | 0.00 | 0.00 | 66 | 1016.2 |
| 20260902033549 | 79 | 229 | 1.7 | 2.6 | 0.00 | 0.00 | 0.00 | 66 | 1016.2 |
| 20260902033430 | 79 | 227 | 1.7 | 2.6 | 0.00 | 0.00 | 0.00 | 66 | 1016.2 |
| 20260902033329 | 79 | 227 | 2.6 | 2.6 | 0.00 | 0.00 | 0.00 | 66 | 1016.2 |
| 20260902033222 | 79 | 227 | 1.7 | 2.6 | 0.00 | 0.00 | 0.00 | 66 | 1016.2 |
| 20260902033036 | 79 | 224 | 1.7 | 2.6 | 0.00 | 0.00 | 0.00 | 66 | 1016.2 |
| 20260902032957 | 79 | 229 | 2.6 | 2.6 | 0.00 | 0.00 | 0.00 | 66 | 1016.2 |
| 20260902032835 | 79 | 229 | 1.7 | 2.6 | 0.00 | 0.00 | 0.00 | 66 | 1016.2 |
| 20260902032735 | 79 | 229 | 1.7 | 2.6 | 0.00 | 0.00 | 0.00 | 65 | 1016.3 |
| 20260902032636 | 79 | 227 | 2.6 | 2.6 | 0.00 | 0.00 | 0.00 | 65 | 1016.3 |
| 20260902032535 | 79 | 227 | 1.7 | 2.6 | 0.00 | 0.00 | 0.00 | 66 | 1016.3 |
| 20260902032455 | 79 | 229 | 1.7 | 2.6 | 0.00 | 0.00 | 0.00 | 66 | 1016.3 |
| 20260902032335 | 79 | 226 | 1.7 | 2.6 | 0.00 | 0.00 | 0.00 | 66 | 1016.3 |
| 20260902032254 | 79 | 226 | 1.7 | 2.6 | 0.00 | 0.00 | 0.00 | 66 | 1016.3 |
| 20260902032131 | 79 | 229 | 1.7 | 2.6 | 0.00 | 0.00 | 0.00 | 66 | 1016.3 |
| 20260902032030 | 79 | 229 | 2.6 | 2.6 | 0.00 | 0.00 | 0.00 | 66 | 1016.3 |
| 20260902031934 | 79 | 227 | 2.6 | 2.6 | 0.00 | 0.00 | 0.00 | 66 | 1016.3 |
| 20260902031831 | 79 | 229 | 2.6 | 2.6 | 0.00 | 0.00 | 0.00 | 67 | 1016.3 |
| 20260902031730 | 79 | 229 | 1.7 | 2.6 | 0.00 | 0.00 | 0.00 | 67 | 1016.3 |
| 20260902031701 | 79 | 229 | 2.6 | 2.6 | 0.00 | 0.00 | 0.00 | 67 | 1016.3 |
| 20260902031539 | 79 | 227 | 2.6 | 2.6 | 0.00 | 0.00 | 0.00 | 67 | 1016.3 |
| 20260902031437 | 79 | 229 | 2.6 | 2.6 | 0.00 | 0.00 | 0.00 | 67 | 1016.3 |
| 20260902031336 | 79 | 227 | 1.7 | 2.6 | 0.00 | 0.00 | 0.00 | 67 | 1016.3 |
| 20260902031237 | 79 | 229 | 2.6 | 2.6 | 0.00 | 0.00 | 0.00 | 67 | 1016.4 |
| 20260902031136 | 79 | 227 | 1.7 | 2.6 | 0.00 | 0.00 | 0.00 | 67 | 1016.4 |
| 20260902031035 | 79 | 229 | 2.6 | 2.6 | 0.00 | 0.00 | 0.00 | 67 | 1016.4 |
| 20260902030935 | 80 | 227 | 2.6 | 2.6 | 0.00 | 0.00 | 0.00 | 67 | 1016.4 |
| 20260902030833 | 80 | 229 | 2.6 | 2.6 | 0.00 | 0.00 | 0.00 | 66 | 1016.4 |
| 20260902030732 | 80 | 226 | 1.7 | 2.6 | 0.00 | 0.00 | 0.00 | 66 | 1016.4 |
| 20260902030631 | 80 | 226 | 1.7 | 2.6 | 0.00 | 0.00 | 0.00 | 66 | 1016.4 |
| 20260902030555 | 80 | 227 | 1.7 | 2.6 | 0.00 | 0.00 | 0.00 | 66 | 1016.4 |
| 20260902030453 | 80 | 226 | 1.7 | 2.6 | 0.00 | 0.00 | 0.00 | 67 | 1016.4 |
| 20260902030350 | 80 | 229 | 1.7 | 2.6 | 0.00 | 0.00 | 0.00 | 67 | 1016.4 |
| 20260902030237 | 80 | 227 | 1.7 | 2.6 | 0.00 | 0.00 | 0.00 | 67 | 1016.4 |
| 20260902030148 | 80 | 229 | 2.6 | 2.6 | 0.00 | 0.00 | 0.00 | 67 | 1016.4 |
| 20260902030024 | 80 | 229 | 2.6 | 2.6 | 0.00 | 0.00 | 0.00 | 66 | 1016.4 |
| 20260902025942 | 80 | 229 | 2.6 | 2.6 | 0.00 | 0.00 | 0.00 | 66 | 1016.4 |
| 20260902025840 | 80 | 229 | 1.7 | 2.6 | 0.00 | 0.00 | 0.00 | 66 | 1016.4 |
| 20260902025740 | 80 | 229 | 1.7 | 2.6 | 0.00 | 0.00 | 0.00 | 65 | 1016.4 |
| 20260902025642 | 80 | 227 | 1.7 | 2.6 | 0.00 | 0.00 | 0.00 | 65 | 1016.4 |
| 20260902025541 | 80 | 227 | 1.7 | 2.6 | 0.00 | 0.00 | 0.00 | 65 | 1016.4 |
| 20260902025500 | 80 | 226 | 1.7 | 2.6 | 0.00 | 0.00 | 0.00 | 65 | 1016.4 |
| 20260902025340 | 80 | 227 | 1.7 | 2.6 | 0.00 | 0.00 | 0.00 | 65 | 1016.4 |
| 20260902025237 | 80 | 227 | 1.7 | 2.6 | 0.00 | 0.00 | 0.00 | 65 | 1016.4 |
| 20260902025135 | 80 | 229 | 1.7 | 2.6 | 0.00 | 0.00 | 0.00 | 65 | 1016.4 |
| 20260902025054 | 80 | 229 | 1.7 | 2.6 | 0.00 | 0.00 | 0.00 | 65 | 1016.4 |
| 20260902024930 | 80 | 229 | 1.7 | 2.6 | 0.00 | 0.00 | 0.00 | 65 | 1016.4 |
| 20260902024833 | 80 | 227 | 1.7 | 2.6 | 0.00 | 0.00 | 0.00 | 65 | 1016.4 |
| 20260902024732 | 80 | 229 | 1.7 | 2.6 | 0.00 | 0.00 | 0.00 | 65 | 1016.4 |
| 20260902024702 | 80 | 227 | 1.7 | 2.6 | 0.00 | 0.00 | 0.00 | 65 | 1016.4 |
| 20260902024540 | 80 | 229 | 1.7 | 2.6 | 0.00 | 0.00 | 0.00 | 65 | 1016.4 |
| 20260902024439 | 80 | 226 | 1.7 | 2.6 | 0.00 | 0.00 | 0.00 | 65 | 1016.4 |
| 20260902024339 | 80 | 227 | 1.7 | 2.6 | 0.00 | 0.00 | 0.00 | 65 | 1016.4 |
| 20260902024257 | 80 | 229 | 1.7 | 2.6 | 0.00 | 0.00 | 0.00 | 65 | 1016.3 |
| 20260902024154 | 80 | 229 | 1.7 | 2.6 | 0.00 | 0.00 | 0.00 | 65 | 1016.3 |
| 20260902024034 | 80 | 229 | 1.7 | 2.6 | 0.00 | 0.00 | 0.00 | 65 | 1016.3 |
| 20260902023933 | 80 | 226 | 1.7 | 2.6 | 0.00 | 0.00 | 0.00 | 65 | 1016.3 |
| 20260902023831 | 80 | 227 | 1.7 | 2.6 | 0.00 | 0.00 | 0.00 | 65 | 1016.3 |
| 20260902023730 | 80 | 227 | 1.7 | 2.6 | 0.00 | 0.00 | 0.00 | 65 | 1016.3 |
| 20260902023629 | 80 | 226 | 1.7 | 2.6 | 0.00 | 0.00 | 0.00 | 65 | 1016.3 |
| 20260902023526 | 80 | 224 | 1.7 | 2.6 | 0.00 | 0.00 | 0.00 | 65 | 1016.3 |
| 20260902023444 | 80 | 229 | 1.7 | 2.6 | 0.00 | 0.00 | 0.00 | 65 | 1016.3 |
| 20260902023326 | 80 | 229 | 1.7 | 2.6 | 0.00 | 0.00 | 0.00 | 65 | 1016.3 |
| 20260902023224 | 80 | 226 | 1.7 | 2.6 | 0.00 | 0.00 | 0.00 | 65 | 1016.3 |
| 20260902023155 | 80 | 229 | 1.7 | 2.6 | 0.00 | 0.00 | 0.00 | 64 | 1016.3 |
| 20260902023032 | 80 | 229 | 1.7 | 1.7 | 0.00 | 0.00 | 0.00 | 64 | 1016.3 |
| 20260902022931 | 80 | 229 | 0.0 | 1.7 | 0.00 | 0.00 | 0.00 | 64 | 1016.3 |
| 20260902022852 | 80 | 229 | 0.0 | 0.0 | 0.00 | 0.00 | 0.00 | 64 | 1016.3 |
| 20260902022730 | 80 | 227 | 0.0 | 0.0 | 0.00 | 0.00 | 0.00 | 64 | 1016.3 |
| 20260902022649 | 80 | 229 | 0.0 | 0.0 | 0.00 | 0.00 | 0.00 | 64 | 1016.3 |
| 20260902022532 | 80 | 229 | 0.0 | 0.0 | 0.00 | 0.00 | 0.00 | 64 | 1016.3 |
| 20260902022429 | 80 | 227 | 0.0 | 0.0 | 0.00 | 0.00 | 0.00 | 64 | 1016.3 |
| 20260902022328 | 80 | 227 | 0.0 | 0.0 | 0.00 | 0.00 | 0.00 | 64 | 1016.3 |
| 20260902022226 | 80 | 229 | 0.0 | 0.0 | 0.00 | 0.00 | 0.00 | 64 | 1016.3 |
| 20260902022144 | 80 | 229 | 0.0 | 0.0 | 0.00 | 0.00 | 0.00 | 64 | 1016.3 |
| 20260902022103 | 80 | 229 | 0.0 | 0.0 | 0.00 | 0.00 | 0.00 | 64 | 1016.3 |
| 20260902021940 | 80 | 227 | 0.0 | 0.0 | 0.00 | 0.00 | 0.00 | 64 | 1016.3 |
| 20260902021842 | 80 | 229 | 0.0 | 0.0 | 0.00 | 0.00 | 0.00 | 64 | 1016.3 |
| 20260902021740 | 80 | 229 | 0.0 | 0.0 | 0.00 | 0.00 | 0.00 | 64 | 1016.3 |
| 20260902021710 | 80 | 224 | 0.0 | 0.0 | 0.00 | 0.00 | 0.00 | 64 | 1016.3 |
| 20260902021527 | 80 | 229 | 0.0 | 0.0 | 0.00 | 0.00 | 0.00 | 64 | 1016.3 |
| 20260902021425 | 80 | 229 | 0.0 | 0.0 | 0.00 | 0.00 | 0.00 | 64 | 1016.3 |
| 20260902021343 | 80 | 227 | 0.0 | 0.0 | 0.00 | 0.00 | 0.00 | 64 | 1016.3 |
| 20260902021242 | 80 | 226 | 0.0 | 0.0 | 0.00 | 0.00 | 0.00 | 64 | 1016.2 |
| 20260902021125 | 80 | 227 | 0.0 | 0.0 | 0.00 | 0.00 | 0.00 | 64 | 1016.2 |
| 20260902021042 | 80 | 227 | 0.0 | 0.0 | 0.00 | 0.00 | 0.00 | 63 | 1016.2 |
| 20260902020941 | 80 | 227 | 0.0 | 0.0 | 0.00 | 0.00 | 0.00 | 63 | 1016.2 |
| 20260902020839 | 80 | 227 | 0.0 | 0.0 | 0.00 | 0.00 | 0.00 | 63 | 1016.2 |
| 20260902020738 | 80 | 229 | 0.0 | 0.0 | 0.00 | 0.00 | 0.00 | 63 | 1016.2 |
| 20260902020638 | 80 | 229 | 0.0 | 0.0 | 0.00 | 0.00 | 0.00 | 63 | 1016.2 |
| 20260902020537 | 80 | 226 | 0.0 | 0.0 | 0.00 | 0.00 | 0.00 | 63 | 1016.2 |
| 20260902020439 | 81 | 229 | 0.0 | 0.0 | 0.00 | 0.00 | 0.00 | 63 | 1016.2 |
| 20260902020338 | 81 | 227 | 0.0 | 0.0 | 0.00 | 0.00 | 0.00 | 63 | 1016.2 |
| 20260902020236 | 81 | 229 | 0.0 | 0.0 | 0.00 | 0.00 | 0.00 | 63 | 1016.2 |
| 20260902020205 | 81 | 229 | 0.0 | 0.0 | 0.00 | 0.00 | 0.00 | 63 | 1016.2 |
| 20260902020042 | 81 | 229 | 0.0 | 0.0 | 0.00 | 0.00 | 0.00 | 63 | 1016.2 |
| 20260902020001 | 81 | 229 | 0.0 | 0.0 | 0.00 | 0.00 | 0.00 | 63 | 1016.2 |
| 20260902015839 | 81 | 229 | 0.0 | 0.0 | 0.00 | 0.00 | 0.00 | 63 | 1016.2 |
| 20260902015738 | 81 | 227 | 0.0 | 0.0 | 0.00 | 0.00 | 0.00 | 63 | 1016.0 |
| 20260902015640 | 81 | 229 | 0.0 | 0.0 | 0.00 | 0.00 | 0.00 | 63 | 1016.0 |
| 20260902015538 | 81 | 229 | 0.0 | 1.7 | 0.00 | 0.00 | 0.00 | 63 | 1016.0 |
| 20260902015438 | 81 | 227 | 0.0 | 1.7 | 0.00 | 0.00 | 0.00 | 63 | 1016.0 |
| 20260902015341 | 81 | 229 | 0.0 | 1.7 | 0.00 | 0.00 | 0.00 | 63 | 1016.0 |
| 20260902015239 | 81 | 227 | 0.0 | 1.7 | 0.00 | 0.00 | 0.00 | 63 | 1016.0 |
| 20260902015157 | 81 | 229 | 0.0 | 1.7 | 0.00 | 0.00 | 0.00 | 63 | 1016.0 |
| 20260902015034 | 81 | 229 | 0.0 | 1.7 | 0.00 | 0.00 | 0.00 | 63 | 1016.0 |
| 20260902014958 | 81 | 229 | 0.0 | 1.7 | 0.00 | 0.00 | 0.00 | 63 | 1016.0 |
| 20260902014835 | 81 | 229 | 0.0 | 2.6 | 0.00 | 0.00 | 0.00 | 63 | 1016.0 |
| 20260902014732 | 81 | 229 | 0.9 | 2.6 | 0.00 | 0.00 | 0.00 | 63 | 1016.0 |
| 20260902014702 | 81 | 226 | 0.9 | 2.6 | 0.00 | 0.00 | 0.00 | 63 | 1016.0 |
| 20260902014540 | 81 | 229 | 0.9 | 2.6 | 0.00 | 0.00 | 0.00 | 63 | 1016.0 |
| 20260902014440 | 81 | 229 | 0.9 | 2.6 | 0.00 | 0.00 | 0.00 | 63 | 1016.0 |
| 20260902014357 | 81 | 229 | 0.9 | 4.3 | 0.00 | 0.00 | 0.00 | 62 | 1016.0 |
| 20260902014255 | 81 | 223 | 0.9 | 4.3 | 0.00 | 0.00 | 0.00 | 63 | 1015.9 |
| 20260902014133 | 81 | 227 | 0.9 | 4.3 | 0.00 | 0.00 | 0.00 | 63 | 1015.9 |
| 20260902014057 | 81 | 229 | 1.7 | 4.3 | 0.00 | 0.00 | 0.00 | 63 | 1015.9 |
| 20260902013934 | 81 | 227 | 1.7 | 4.3 | 0.00 | 0.00 | 0.00 | 62 | 1015.9 |
| 20260902013834 | 81 | 227 | 1.7 | 4.3 | 0.00 | 0.00 | 0.00 | 62 | 1015.9 |
| 20260902013732 | 81 | 227 | 1.7 | 4.3 | 0.00 | 0.00 | 0.00 | 63 | 1015.9 |
| 20260902013630 | 81 | 222 | 0.9 | 4.3 | 0.00 | 0.00 | 0.00 | 63 | 1015.9 |
| 20260902013529 | 81 | 227 | 2.6 | 4.3 | 0.00 | 0.00 | 0.00 | 63 | 1015.9 |
| 20260902013427 | 81 | 229 | 0.9 | 4.3 | 0.00 | 0.00 | 0.00 | 62 | 1015.9 |
| 20260902013331 | 81 | 224 | 2.6 | 4.3 | 0.00 | 0.00 | 0.00 | 62 | 1015.9 |
| 20260902013250 | 81 | 229 | 2.6 | 4.3 | 0.00 | 0.00 | 0.00 | 62 | 1015.9 |
| 20260902013158 | 81 | 227 | 1.7 | 4.3 | 0.00 | 0.00 | 0.00 | 62 | 1015.9 |
| 20260902013035 | 81 | 229 | 1.7 | 4.3 | 0.00 | 0.00 | 0.00 | 62 | 1015.9 |
| 20260902012953 | 81 | 227 | 2.6 | 4.3 | 0.00 | 0.00 | 0.00 | 62 | 1015.9 |
| 20260902012830 | 81 | 229 | 2.6 | 4.3 | 0.00 | 0.00 | 0.00 | 63 | 1015.9 |
| 20260902012729 | 81 | 229 | 2.6 | 4.3 | 0.00 | 0.00 | 0.00 | 63 | 1015.7 |
| 20260902012627 | 81 | 229 | 2.6 | 4.3 | 0.00 | 0.00 | 0.00 | 63 | 1015.7 |
| 20260902012530 | 81 | 209 | 1.7 | 4.3 | 0.00 | 0.00 | 0.00 | 63 | 1015.7 |
| 20260902012428 | 81 | 229 | 2.6 | 4.3 | 0.00 | 0.00 | 0.00 | 62 | 1015.7 |
| 20260902012327 | 81 | 226 | 2.6 | 4.3 | 0.00 | 0.00 | 0.00 | 62 | 1015.7 |
| 20260902012225 | 81 | 229 | 2.6 | 4.3 | 0.00 | 0.00 | 0.00 | 62 | 1015.7 |
| 20260902012123 | 81 | 229 | 2.6 | 4.3 | 0.00 | 0.00 | 0.00 | 62 | 1015.7 |
| 20260902012045 | 81 | 229 | 2.6 | 4.3 | 0.00 | 0.00 | 0.00 | 62 | 1015.7 |
| 20260902011943 | 81 | 229 | 2.6 | 4.3 | 0.00 | 0.00 | 0.00 | 62 | 1015.7 |
| 20260902011902 | 81 | 226 | 3.5 | 4.3 | 0.00 | 0.00 | 0.00 | 63 | 1015.7 |
| 20260902011804 | 81 | 229 | 2.6 | 4.3 | 0.00 | 0.00 | 0.00 | 63 | 1015.7 |
| 20260902011711 | 81 | 223 | 3.5 | 4.3 | 0.00 | 0.00 | 0.00 | 63 | 1015.7 |
| 20260902011548 | 81 | 229 | 2.6 | 4.3 | 0.00 | 0.00 | 0.00 | 62 | 1015.7 |
| 20260902011425 | 81 | 229 | 3.5 | 4.3 | 0.00 | 0.00 | 0.00 | 62 | 1015.7 |
| 20260902011344 | 81 | 229 | 2.6 | 4.3 | 0.00 | 0.00 | 0.00 | 62 | 1015.7 |
| 20260902011301 | 81 | 229 | 2.6 | 4.3 | 0.00 | 0.00 | 0.00 | 62 | 1015.6 |
| 20260902011138 | 81 | 227 | 3.5 | 4.3 | 0.00 | 0.00 | 0.00 | 62 | 1015.6 |
| 20260902011057 | 81 | 229 | 2.6 | 4.3 | 0.00 | 0.00 | 0.00 | 62 | 1015.6 |
| 20260902010934 | 81 | 226 | 2.6 | 4.3 | 0.00 | 0.00 | 0.00 | 62 | 1015.6 |
| 20260902010839 | 81 | 229 | 2.6 | 4.3 | 0.00 | 0.00 | 0.00 | 62 | 1015.6 |
| 20260902010737 | 81 | 230 | 2.6 | 4.3 | 0.00 | 0.00 | 0.00 | 62 | 1015.6 |
| 20260902010655 | 82 | 227 | 1.7 | 4.3 | 0.00 | 0.00 | 0.00 | 62 | 1015.6 |
| 20260902010532 | 82 | 229 | 2.6 | 4.3 | 0.00 | 0.00 | 0.00 | 62 | 1015.6 |
| 20260902010430 | 82 | 229 | 1.7 | 4.3 | 0.00 | 0.00 | 0.00 | 62 | 1015.6 |
| 20260902010329 | 82 | 227 | 2.6 | 5.2 | 0.00 | 0.00 | 0.00 | 62 | 1015.6 |
| 20260902010248 | 82 | 226 | 3.5 | 5.2 | 0.00 | 0.00 | 0.00 | 62 | 1015.6 |
| 20260902010219 | 82 | 227 | 2.6 | 5.2 | 0.00 | 0.00 | 0.00 | 62 | 1015.6 |
| 20260902010040 | 82 | 227 | 2.6 | 5.2 | 0.00 | 0.00 | 0.00 | 62 | 1015.6 |
| 20260902005939 | 82 | 226 | 1.7 | 5.2 | 0.00 | 0.00 | 0.00 | 62 | 1015.6 |
| 20260902005857 | 82 | 226 | 2.6 | 6.1 | 0.00 | 0.00 | 0.00 | 62 | 1015.6 |
| 20260902005754 | 82 | 223 | 2.6 | 6.1 | 0.00 | 0.00 | 0.00 | 62 | 1015.6 |
| 20260902005631 | 82 | 227 | 3.5 | 6.1 | 0.00 | 0.00 | 0.00 | 62 | 1015.6 |
| 20260902005533 | 82 | 226 | 2.6 | 6.1 | 0.00 | 0.00 | 0.00 | 63 | 1015.6 |
| 20260902005436 | 82 | 226 | 3.5 | 6.1 | 0.00 | 0.00 | 0.00 | 63 | 1015.6 |
| 20260902005335 | 82 | 220 | 3.5 | 6.1 | 0.00 | 0.00 | 0.00 | 63 | 1015.6 |
| 20260902005236 | 82 | 222 | 2.6 | 6.1 | 0.00 | 0.00 | 0.00 | 62 | 1015.6 |
| 20260902005135 | 82 | 224 | 2.6 | 6.1 | 0.00 | 0.00 | 0.00 | 62 | 1015.6 |
| 20260902005034 | 82 | 223 | 3.5 | 6.1 | 0.00 | 0.00 | 0.00 | 62 | 1015.6 |
| 20260902004931 | 82 | 223 | 3.5 | 5.2 | 0.00 | 0.00 | 0.00 | 62 | 1015.6 |
| 20260902004852 | 82 | 224 | 1.7 | 5.2 | 0.00 | 0.00 | 0.00 | 62 | 1015.6 |
| 20260902004728 | 82 | 224 | 3.5 | 5.2 | 0.00 | 0.00 | 0.00 | 62 | 1015.6 |
| 20260902004657 | 82 | 223 | 3.5 | 5.2 | 0.00 | 0.00 | 0.00 | 62 | 1015.6 |
| 20260902004535 | 82 | 222 | 2.6 | 5.2 | 0.00 | 0.00 | 0.00 | 62 | 1015.6 |
| 20260902004438 | 82 | 223 | 1.7 | 5.2 | 0.00 | 0.00 | 0.00 | 62 | 1015.6 |
| 20260902004337 | 82 | 224 | 2.6 | 5.2 | 0.00 | 0.00 | 0.00 | 62 | 1015.6 |
| 20260902004234 | 82 | 224 | 3.5 | 5.2 | 0.00 | 0.00 | 0.00 | 62 | 1015.5 |
| 20260902004133 | 82 | 226 | 2.6 | 5.2 | 0.00 | 0.00 | 0.00 | 62 | 1015.5 |
| 20260902004031 | 82 | 226 | 4.3 | 5.2 | 0.00 | 0.00 | 0.00 | 62 | 1015.5 |
| 20260902003930 | 82 | 224 | 2.6 | 5.2 | 0.00 | 0.00 | 0.00 | 63 | 1015.5 |
| 20260902003833 | 82 | 226 | 3.5 | 5.2 | 0.00 | 0.00 | 0.00 | 63 | 1015.5 |
| 20260902003735 | 82 | 226 | 2.6 | 5.2 | 0.00 | 0.00 | 0.00 | 62 | 1015.5 |
| 20260902003633 | 83 | 227 | 2.6 | 5.2 | 0.00 | 0.00 | 0.00 | 62 | 1015.5 |
| 20260902003532 | 83 | 226 | 3.5 | 5.2 | 0.00 | 0.00 | 0.00 | 62 | 1015.5 |
| 20260902003431 | 83 | 227 | 2.6 | 5.2 | 0.00 | 0.00 | 0.00 | 62 | 1015.5 |
| 20260902003330 | 83 | 224 | 2.6 | 5.2 | 0.00 | 0.00 | 0.00 | 62 | 1015.5 |
| 20260902003239 | 83 | 227 | 3.5 | 6.1 | 0.00 | 0.00 | 0.00 | 62 | 1015.5 |
| 20260902003152 | 83 | 229 | 4.3 | 6.1 | 0.00 | 0.00 | 0.00 | 62 | 1015.5 |
| 20260902003029 | 83 | 230 | 3.5 | 6.1 | 0.00 | 0.00 | 0.00 | 62 | 1015.5 |
| 20260902002928 | 83 | 232 | 2.6 | 6.1 | 0.00 | 0.00 | 0.00 | 62 | 1015.5 |
| 20260902002826 | 83 | 226 | 2.6 | 6.1 | 0.00 | 0.00 | 0.00 | 62 | 1015.5 |
| 20260902002743 | 83 | 227 | 2.6 | 6.1 | 0.00 | 0.00 | 0.00 | 62 | 1015.5 |
| 20260902002641 | 83 | 227 | 3.5 | 6.1 | 0.00 | 0.00 | 0.00 | 62 | 1015.5 |
| 20260902002540 | 83 | 227 | 3.5 | 6.1 | 0.00 | 0.00 | 0.00 | 62 | 1015.5 |
| 20260902002443 | 83 | 229 | 3.5 | 6.1 | 0.00 | 0.00 | 0.00 | 61 | 1015.5 |
| 20260902002341 | 83 | 227 | 5.2 | 6.1 | 0.00 | 0.00 | 0.00 | 61 | 1015.5 |
| 20260902002301 | 83 | 233 | 3.5 | 6.1 | 0.00 | 0.00 | 0.00 | 61 | 1015.5 |
| 20260902002138 | 83 | 263 | 1.7 | 5.2 | 0.00 | 0.00 | 0.00 | 61 | 1015.5 |
| 20260902002058 | 83 | 264 | 2.6 | 5.2 | 0.00 | 0.00 | 0.00 | 61 | 1015.5 |
| 20260902001955 | 83 | 267 | 2.6 | 5.2 | 0.00 | 0.00 | 0.00 | 61 | 1015.5 |
| 20260902001913 | 83 | 267 | 1.7 | 5.2 | 0.00 | 0.00 | 0.00 | 61 | 1015.5 |
| 20260902001811 | 83 | 268 | 2.6 | 5.2 | 0.00 | 0.00 | 0.00 | 60 | 1015.5 |
| 20260902001658 | 83 | 267 | 3.5 | 5.2 | 0.00 | 0.00 | 0.00 | 60 | 1015.5 |
| 20260902001536 | 83 | 268 | 1.7 | 5.2 | 0.00 | 0.00 | 0.00 | 60 | 1015.5 |
| 20260902001438 | 83 | 268 | 3.5 | 5.2 | 0.00 | 0.00 | 0.00 | 60 | 1015.5 |
| 20260902001336 | 83 | 281 | 2.6 | 5.2 | 0.00 | 0.00 | 0.00 | 60 | 1015.5 |
| 20260902001235 | 83 | 288 | 2.6 | 5.2 | 0.00 | 0.00 | 0.00 | 61 | 1015.6 |
| 20260902001133 | 83 | 288 | 1.7 | 5.2 | 0.00 | 0.00 | 0.00 | 61 | 1015.6 |
| 20260902001032 | 83 | 292 | 2.6 | 5.2 | 0.00 | 0.00 | 0.00 | 61 | 1015.6 |
| 20260902000932 | 84 | 360 | 1.7 | 2.6 | 0.00 | 0.00 | 0.00 | 61 | 1015.6 |
| 20260902000833 | 84 | 360 | 0.9 | 1.7 | 0.00 | 0.00 | 0.00 | 61 | 1015.6 |
| 20260902000732 | 84 | 360 | 0.0 | 0.0 | 0.00 | 0.00 | 0.00 | 61 | 1015.6 |
| 20260902000630 | 84 | 360 | 0.0 | 0.0 | 0.00 | 0.00 | 0.00 | 60 | 1015.6 |
| 20260902000529 | 84 | 360 | 0.0 | 0.0 | 0.00 | 0.00 | 0.00 | 60 | 1015.6 |
| 20260902000429 | 84 | 360 | 0.0 | 0.0 | 0.00 | 0.00 | 0.00 | 60 | 1015.6 |
| 20260902000325 | 84 | 360 | 0.0 | 0.0 | 0.00 | 0.00 | 0.00 | 60 | 1015.6 |
| 20260902000235 | 84 | 360 | 0.0 | 0.0 | 0.00 | 0.00 | 0.00 | 60 | 1015.6 |
| 20260902000149 | 84 | 360 | 0.0 | 0.0 | 0.00 | 0.00 | 0.00 | 60 | 1015.6 |
| 20260902000026 | 84 | 360 | 0.0 | 0.0 | 0.00 | 0.00 | 0.00 | 60 | 1015.6 |
| 20260901235944 | 84 | 360 | 0.0 | 0.0 | 0.00 | 0.00 | 0.00 | 60 | 1015.6 |
| 20260901235903 | 84 | 360 | 0.0 | 0.0 | 0.00 | 0.00 | 0.00 | 60 | 1015.6 |
| 20260901235740 | 84 | 360 | 0.0 | 0.0 | 0.00 | 0.00 | 0.00 | 60 | 1015.6 |
| 20260901235639 | 84 | 1 | 0.0 | 0.0 | 0.00 | 0.00 | 0.00 | 60 | 1015.6 |
| 20260901235537 | 84 | 1 | 0.0 | 0.0 | 0.00 | 0.00 | 0.00 | 60 | 1015.6 |
| 20260901235436 | 84 | 1 | 0.0 | 0.0 | 0.00 | 0.00 | 0.00 | 60 | 1015.6 |
| 20260901235338 | 84 | 360 | 0.0 | 0.0 | 0.00 | 0.00 | 0.00 | 60 | 1015.6 |
| 20260901235236 | 84 | 360 | 0.0 | 0.0 | 0.00 | 0.00 | 0.00 | 60 | 1015.6 |
| 20260901235135 | 84 | 1 | 0.0 | 0.0 | 0.00 | 0.00 | 0.00 | 60 | 1015.6 |
| 20260901235033 | 84 | 360 | 0.0 | 0.0 | 0.00 | 0.00 | 0.00 | 60 | 1015.6 |
| 20260901234932 | 84 | 360 | 0.0 | 0.0 | 0.00 | 0.00 | 0.00 | 59 | 1015.6 |
| 20260901234831 | 84 | 360 | 0.0 | 0.0 | 0.00 | 0.00 | 0.00 | 59 | 1015.6 |
| 20260901234733 | 84 | 360 | 0.0 | 0.0 | 0.00 | 0.00 | 0.00 | 59 | 1015.6 |
| 20260901234703 | 84 | 360 | 0.0 | 0.0 | 0.00 | 0.00 | 0.00 | 59 | 1015.6 |
| 20260901234541 | 84 | 360 | 0.0 | 0.0 | 0.00 | 0.00 | 0.00 | 59 | 1015.6 |
| 20260901234440 | 84 | 360 | 0.0 | 0.0 | 0.00 | 0.00 | 0.00 | 59 | 1015.6 |
| 20260901234338 | 84 | 360 | 0.0 | 0.0 | 0.00 | 0.00 | 0.00 | 59 | 1015.6 |
| 20260901234258 | 84 | 360 | 0.0 | 0.0 | 0.00 | 0.00 | 0.00 | 59 | 1015.6 |
| 20260901234134 | 84 | 360 | 0.0 | 0.0 | 0.00 | 0.00 | 0.00 | 60 | 1015.6 |
| 20260901234032 | 84 | 360 | 0.0 | 0.0 | 0.00 | 0.00 | 0.00 | 60 | 1015.6 |
| 20260901233956 | 84 | 360 | 0.0 | 0.0 | 0.00 | 0.00 | 0.00 | 60 | 1015.6 |
| 20260901233832 | 84 | 360 | 0.0 | 0.0 | 0.00 | 0.00 | 0.00 | 60 | 1015.6 |
| 20260901233731 | 84 | 1 | 0.0 | 0.0 | 0.00 | 0.00 | 0.00 | 60 | 1015.6 |
| 20260901233630 | 84 | 360 | 0.0 | 0.0 | 0.00 | 0.00 | 0.00 | 60 | 1015.6 |
| 20260901233528 | 84 | 360 | 0.0 | 0.0 | 0.00 | 0.00 | 0.00 | 60 | 1015.6 |
| 20260901233427 | 85 | 1 | 0.0 | 0.0 | 0.00 | 0.00 | 0.00 | 60 | 1015.6 |
| 20260901233325 | 85 | 360 | 0.0 | 0.0 | 0.00 | 0.00 | 0.00 | 60 | 1015.6 |
| 20260901233228 | 85 | 360 | 0.0 | 0.0 | 0.00 | 0.00 | 0.00 | 60 | 1015.6 |
| 20260901233158 | 85 | 3 | 0.0 | 0.0 | 0.00 | 0.00 | 0.00 | 60 | 1015.6 |
| 20260901233035 | 85 | 360 | 0.0 | 0.0 | 0.00 | 0.00 | 0.00 | 60 | 1015.6 |
| 20260901232935 | 85 | 1 | 0.0 | 0.0 | 0.00 | 0.00 | 0.00 | 59 | 1015.6 |
| 20260901232833 | 85 | 1 | 0.0 | 0.0 | 0.00 | 0.00 | 0.00 | 59 | 1015.6 |
| 20260901232730 | 85 | 360 | 0.0 | 0.0 | 0.00 | 0.00 | 0.00 | 59 | 1015.7 |
| 20260901232629 | 85 | 360 | 0.0 | 0.0 | 0.00 | 0.00 | 0.00 | 59 | 1015.7 |
| 20260901232533 | 85 | 360 | 0.0 | 0.0 | 0.00 | 0.00 | 0.00 | 59 | 1015.7 |
| 20260901232430 | 85 | 360 | 0.0 | 0.0 | 0.00 | 0.00 | 0.00 | 59 | 1015.7 |
| 20260901232328 | 85 | 360 | 0.0 | 0.0 | 0.00 | 0.00 | 0.00 | 59 | 1015.7 |
| 20260901232228 | 85 | 360 | 0.0 | 0.0 | 0.00 | 0.00 | 0.00 | 59 | 1015.7 |
| 20260901232126 | 85 | 360 | 0.0 | 0.0 | 0.00 | 0.00 | 0.00 | 59 | 1015.7 |
| 20260901232025 | 85 | 360 | 0.0 | 0.0 | 0.00 | 0.00 | 0.00 | 59 | 1015.7 |
| 20260901231924 | 85 | 360 | 0.0 | 0.0 | 0.00 | 0.00 | 0.00 | 59 | 1015.7 |
| 20260901231827 | 85 | 360 | 0.0 | 0.0 | 0.00 | 0.00 | 0.00 | 59 | 1015.7 |
| 20260901231735 | 85 | 360 | 0.0 | 0.0 | 0.00 | 0.00 | 0.00 | 59 | 1015.7 |
| 20260901231645 | 85 | 1 | 0.0 | 0.0 | 0.00 | 0.00 | 0.00 | 59 | 1015.7 |
| 20260901231524 | 85 | 360 | 0.0 | 0.0 | 0.00 | 0.00 | 0.00 | 59 | 1015.7 |
| 20260901231442 | 85 | 360 | 0.0 | 0.0 | 0.00 | 0.00 | 0.00 | 59 | 1015.7 |
| 20260901231341 | 85 | 360 | 0.0 | 0.0 | 0.00 | 0.00 | 0.00 | 58 | 1015.7 |
| 20260901231240 | 85 | 360 | 0.0 | 0.0 | 0.00 | 0.00 | 0.00 | 58 | 1015.7 |
| 20260901231142 | 85 | 360 | 0.0 | 0.0 | 0.00 | 0.00 | 0.00 | 58 | 1015.7 |
| 20260901231041 | 85 | 360 | 0.0 | 0.0 | 0.00 | 0.00 | 0.00 | 57 | 1015.7 |
| 20260901230940 | 85 | 360 | 0.0 | 0.0 | 0.00 | 0.00 | 0.00 | 57 | 1015.7 |
| 20260901230841 | 85 | 360 | 0.0 | 0.0 | 0.00 | 0.00 | 0.00 | 57 | 1015.7 |
| 20260901230759 | 85 | 360 | 0.0 | 0.0 | 0.00 | 0.00 | 0.00 | 57 | 1015.7 |
| 20260901230635 | 85 | 360 | 0.0 | 0.0 | 0.00 | 0.00 | 0.00 | 57 | 1015.7 |
| 20260901230553 | 85 | 360 | 0.0 | 0.0 | 0.00 | 0.00 | 0.00 | 57 | 1015.7 |
| 20260901230432 | 85 | 360 | 0.0 | 0.0 | 0.00 | 0.00 | 0.00 | 58 | 1015.7 |
| 20260901230333 | 85 | 360 | 0.0 | 0.0 | 0.00 | 0.00 | 0.00 | 58 | 1015.7 |
| 20260901230244 | 85 | 360 | 0.0 | 0.0 | 0.00 | 0.00 | 0.00 | 58 | 1015.7 |
| 20260901230155 | 85 | 360 | 0.0 | 0.0 | 0.00 | 0.00 | 0.00 | 58 | 1015.7 |
| 20260901230033 | 85 | 360 | 0.0 | 0.0 | 0.00 | 0.00 | 0.00 | 58 | 1015.7 |
| 20260901225931 | 85 | 360 | 0.0 | 0.0 | 0.00 | 0.00 | 0.00 | 58 | 1015.7 |
| 20260901225830 | 85 | 360 | 0.0 | 0.0 | 0.00 | 0.00 | 0.00 | 57 | 1015.7 |
| 20260901225727 | 85 | 360 | 0.0 | 0.0 | 0.00 | 0.00 | 0.00 | 58 | 1015.5 |
| 20260901225630 | 85 | 360 | 0.0 | 0.0 | 0.00 | 0.00 | 0.00 | 58 | 1015.5 |
| 20260901225529 | 85 | 360 | 0.0 | 0.0 | 0.00 | 0.00 | 0.00 | 57 | 1015.5 |
| 20260901225431 | 85 | 1 | 0.0 | 0.0 | 0.00 | 0.00 | 0.00 | 56 | 1015.5 |
| 20260901225330 | 85 | 360 | 0.0 | 0.0 | 0.00 | 0.00 | 0.00 | 55 | 1015.5 |
| 20260901225249 | 85 | 360 | 0.0 | 0.0 | 0.00 | 0.00 | 0.00 | 55 | 1015.5 |
| 20260901225206 | 85 | 360 | 0.0 | 0.0 | 0.00 | 0.00 | 0.00 | 55 | 1015.5 |
| 20260901225104 | 86 | 3 | 0.0 | 0.0 | 0.00 | 0.00 | 0.00 | 56 | 1015.5 |
| 20260901224941 | 86 | 360 | 0.0 | 0.0 | 0.00 | 0.00 | 0.00 | 56 | 1015.5 |
| 20260901224859 | 86 | 360 | 0.0 | 0.0 | 0.00 | 0.00 | 0.00 | 57 | 1015.5 |
| 20260901224801 | 86 | 1 | 0.0 | 0.0 | 0.00 | 0.00 | 0.00 | 58 | 1015.5 |
| 20260901224709 | 86 | 360 | 0.0 | 0.0 | 0.00 | 0.00 | 0.00 | 57 | 1015.5 |
| 20260901224546 | 86 | 1 | 0.0 | 0.0 | 0.00 | 0.00 | 0.00 | 57 | 1015.5 |
| 20260901224444 | 86 | 360 | 0.0 | 0.0 | 0.00 | 0.00 | 0.00 | 57 | 1015.5 |
| 20260901224341 | 86 | 360 | 0.0 | 0.0 | 0.00 | 0.00 | 0.00 | 57 | 1015.5 |
| 20260901224240 | 86 | 1 | 0.0 | 0.0 | 0.00 | 0.00 | 0.00 | 57 | 1015.5 |
| 20260901224139 | 86 | 360 | 0.0 | 0.0 | 0.00 | 0.00 | 0.00 | 57 | 1015.5 |
| 20260901224056 | 86 | 360 | 0.0 | 0.0 | 0.00 | 0.00 | 0.00 | 56 | 1015.5 |
| 20260901223934 | 86 | 1 | 0.0 | 0.0 | 0.00 | 0.00 | 0.00 | 56 | 1015.5 |
| 20260901223836 | 86 | 360 | 0.0 | 0.0 | 0.00 | 0.00 | 0.00 | 56 | 1015.5 |
| 20260901223735 | 86 | 360 | 0.0 | 0.0 | 0.00 | 0.00 | 0.00 | 57 | 1015.5 |
| 20260901223635 | 86 | 360 | 0.0 | 0.0 | 0.00 | 0.00 | 0.00 | 56 | 1015.5 |
| 20260901223533 | 86 | 360 | 0.0 | 0.0 | 0.00 | 0.00 | 0.00 | 56 | 1015.5 |
| 20260901223451 | 86 | 360 | 0.0 | 0.0 | 0.00 | 0.00 | 0.00 | 56 | 1015.5 |
| 20260901223350 | 86 | 360 | 0.0 | 0.0 | 0.00 | 0.00 | 0.00 | 56 | 1015.5 |
| 20260901223249 | 86 | 360 | 0.0 | 0.0 | 0.00 | 0.00 | 0.00 | 56 | 1015.5 |
| 20260901223221 | 86 | 360 | 0.0 | 1.7 | 0.00 | 0.00 | 0.00 | 55 | 1015.5 |
| 20260901223057 | 86 | 360 | 0.0 | 1.7 | 0.00 | 0.00 | 0.00 | 54 | 1015.5 |
| 20260901222940 | 86 | 360 | 0.0 | 1.7 | 0.00 | 0.00 | 0.00 | 55 | 1015.5 |
| 20260901222837 | 86 | 360 | 0.0 | 1.7 | 0.00 | 0.00 | 0.00 | 57 | 1015.5 |
| 20260901222736 | 86 | 360 | 0.0 | 1.7 | 0.00 | 0.00 | 0.00 | 58 | 1015.5 |
| 20260901222633 | 86 | 360 | 0.0 | 1.7 | 0.00 | 0.00 | 0.00 | 58 | 1015.5 |
| 20260901222535 | 86 | 360 | 0.0 | 1.7 | 0.00 | 0.00 | 0.00 | 58 | 1015.5 |
| 20260901222433 | 86 | 360 | 0.0 | 2.6 | 0.00 | 0.00 | 0.00 | 57 | 1015.5 |
| 20260901222332 | 86 | 360 | 0.9 | 2.6 | 0.00 | 0.00 | 0.00 | 57 | 1015.5 |
| 20260901222235 | 86 | 360 | 0.9 | 2.6 | 0.00 | 0.00 | 0.00 | 56 | 1015.5 |
| 20260901222133 | 86 | 360 | 0.0 | 2.6 | 0.00 | 0.00 | 0.00 | 56 | 1015.5 |
| 20260901222032 | 86 | 360 | 0.0 | 2.6 | 0.00 | 0.00 | 0.00 | 56 | 1015.5 |
| 20260901221930 | 86 | 1 | 0.0 | 2.6 | 0.00 | 0.00 | 0.00 | 56 | 1015.5 |
| 20260901221828 | 86 | 360 | 0.0 | 2.6 | 0.00 | 0.00 | 0.00 | 57 | 1015.5 |
| 20260901221748 | 86 | 360 | 0.9 | 2.6 | 0.00 | 0.00 | 0.00 | 56 | 1015.5 |
| 20260901221721 | 86 | 360 | 1.7 | 2.6 | 0.00 | 0.00 | 0.00 | 55 | 1015.5 |
| 20260901221557 | 86 | 1 | 1.7 | 2.6 | 0.00 | 0.00 | 0.00 | 55 | 1015.5 |
| 20260901221442 | 86 | 1 | 0.0 | 1.7 | 0.00 | 0.00 | 0.00 | 54 | 1015.5 |
| 20260901221400 | 86 | 360 | 0.9 | 1.7 | 0.00 | 0.00 | 0.00 | 54 | 1015.5 |
| 20260901221301 | 86 | 1 | 0.9 | 1.7 | 0.00 | 0.00 | 0.00 | 53 | 1015.5 |
| 20260901221157 | 86 | 360 | 0.9 | 1.7 | 0.00 | 0.00 | 0.00 | 53 | 1015.5 |
| 20260901221035 | 86 | 360 | 0.0 | 0.9 | 0.00 | 0.00 | 0.00 | 53 | 1015.5 |
| 20260901220933 | 86 | 360 | 0.0 | 0.9 | 0.00 | 0.00 | 0.00 | 53 | 1015.5 |
| 20260901220852 | 86 | 360 | 0.0 | 0.9 | 0.00 | 0.00 | 0.00 | 53 | 1015.5 |
| 20260901220729 | 86 | 1 | 0.0 | 1.7 | 0.00 | 0.00 | 0.00 | 54 | 1015.5 |
| 20260901220635 | 86 | 360 | 0.0 | 2.6 | 0.00 | 0.00 | 0.00 | 54 | 1015.5 |
| 20260901220533 | 86 | 360 | 0.9 | 2.6 | 0.00 | 0.00 | 0.00 | 54 | 1015.5 |
| 20260901220453 | 86 | 1 | 0.0 | 2.6 | 0.00 | 0.00 | 0.00 | 53 | 1015.5 |
| 20260901220330 | 86 | 360 | 0.0 | 2.6 | 0.00 | 0.00 | 0.00 | 53 | 1015.5 |
| 20260901220240 | 86 | 360 | 0.0 | 2.6 | 0.00 | 0.00 | 0.00 | 54 | 1015.5 |
| 20260901220149 | 86 | 360 | 0.0 | 2.6 | 0.00 | 0.00 | 0.00 | 53 | 1015.5 |
| 20260901220026 | 86 | 360 | 0.9 | 2.6 | 0.00 | 0.00 | 0.00 | 53 | 1015.5 |
| 20260901215924 | 86 | 360 | 0.9 | 2.6 | 0.00 | 0.00 | 0.00 | 53 | 1015.5 |
| 20260901215827 | 86 | 1 | 1.7 | 3.5 | 0.00 | 0.00 | 0.00 | 52 | 1015.5 |
| 20260901215725 | 86 | 3 | 1.7 | 3.5 | 0.00 | 0.00 | 0.00 | 52 | 1015.5 |
| 20260901215643 | 86 | 1 | 0.9 | 3.5 | 0.00 | 0.00 | 0.00 | 51 | 1015.5 |
| 20260901215542 | 86 | 1 | 0.9 | 3.5 | 0.00 | 0.00 | 0.00 | 51 | 1015.5 |
| 20260901215441 | 86 | 360 | 1.7 | 3.5 | 0.00 | 0.00 | 0.00 | 50 | 1015.5 |
| 20260901215339 | 86 | 360 | 0.9 | 3.5 | 0.00 | 0.00 | 0.00 | 53 | 1015.5 |
| 20260901215237 | 86 | 360 | 1.7 | 3.5 | 0.00 | 0.00 | 0.00 | 53 | 1015.5 |
| 20260901215140 | 86 | 1 | 0.9 | 3.5 | 0.00 | 0.00 | 0.00 | 53 | 1015.5 |
| 20260901215038 | 86 | 1 | 1.7 | 3.5 | 0.00 | 0.00 | 0.00 | 53 | 1015.5 |
| 20260901214937 | 86 | 360 | 1.7 | 3.5 | 0.00 | 0.00 | 0.00 | 53 | 1015.5 |
| 20260901214856 | 86 | 326 | 1.7 | 3.5 | 0.00 | 0.00 | 0.00 | 53 | 1015.5 |
| 20260901214744 | 86 | 326 | 1.7 | 3.5 | 0.00 | 0.00 | 0.00 | 53 | 1015.5 |
| 20260901214653 | 86 | 326 | 1.7 | 3.5 | 0.00 | 0.00 | 0.00 | 53 | 1015.5 |
| 20260901214531 | 86 | 326 | 2.6 | 3.5 | 0.00 | 0.00 | 0.00 | 53 | 1015.5 |
| 20260901214449 | 86 | 329 | 1.7 | 2.6 | 0.00 | 0.00 | 0.00 | 53 | 1015.5 |
| 20260901214330 | 86 | 328 | 0.0 | 2.6 | 0.00 | 0.00 | 0.00 | 52 | 1015.5 |
| 20260901214228 | 86 | 330 | 0.0 | 2.6 | 0.00 | 0.00 | 0.00 | 51 | 1015.5 |
| 20260901214126 | 86 | 329 | 1.7 | 2.6 | 0.00 | 0.00 | 0.00 | 51 | 1015.5 |
| 20260901214027 | 86 | 329 | 0.9 | 2.6 | 0.00 | 0.00 | 0.00 | 53 | 1015.5 |
| 20260901213925 | 86 | 328 | 1.7 | 2.6 | 0.00 | 0.00 | 0.00 | 53 | 1015.5 |
| 20260901213825 | 86 | 330 | 0.9 | 1.7 | 0.00 | 0.00 | 0.00 | 53 | 1015.5 |
| 20260901213728 | 86 | 328 | 0.9 | 1.7 | 0.00 | 0.00 | 0.00 | 54 | 1015.5 |
| 20260901213626 | 86 | 330 | 0.9 | 1.7 | 0.00 | 0.00 | 0.00 | 54 | 1015.5 |
| 20260901213524 | 86 | 329 | 0.0 | 1.7 | 0.00 | 0.00 | 0.00 | 54 | 1015.5 |
| 20260901213442 | 86 | 329 | 0.0 | 1.7 | 0.00 | 0.00 | 0.00 | 54 | 1015.5 |
| 20260901213341 | 86 | 329 | 0.0 | 1.7 | 0.00 | 0.00 | 0.00 | 54 | 1015.5 |
| 20260901213259 | 86 | 329 | 0.0 | 1.7 | 0.00 | 0.00 | 0.00 | 54 | 1015.5 |
| 20260901213207 | 86 | 329 | 0.9 | 1.7 | 0.00 | 0.00 | 0.00 | 53 | 1015.5 |
| 20260901213043 | 86 | 329 | 0.9 | 1.7 | 0.00 | 0.00 | 0.00 | 53 | 1015.5 |
| 20260901212924 | 86 | 328 | 0.0 | 1.7 | 0.00 | 0.00 | 0.00 | 53 | 1015.5 |
| 20260901212843 | 86 | 330 | 0.0 | 1.7 | 0.00 | 0.00 | 0.00 | 53 | 1015.5 |
| 20260901212742 | 86 | 329 | 0.0 | 1.7 | 0.00 | 0.00 | 0.00 | 52 | 1015.7 |
| 20260901212640 | 86 | 329 | 0.0 | 1.7 | 0.00 | 0.00 | 0.00 | 52 | 1015.7 |
| 20260901212539 | 86 | 329 | 0.0 | 1.7 | 0.00 | 0.00 | 0.00 | 54 | 1015.7 |
| 20260901212437 | 86 | 328 | 0.9 | 1.7 | 0.00 | 0.00 | 0.00 | 54 | 1015.7 |
| 20260901212335 | 86 | 329 | 0.9 | 2.6 | 0.00 | 0.00 | 0.00 | 53 | 1015.7 |
| 20260901212238 | 86 | 326 | 0.9 | 2.6 | 0.00 | 0.00 | 0.00 | 52 | 1015.7 |
| 20260901212136 | 86 | 329 | 0.9 | 2.6 | 0.00 | 0.00 | 0.00 | 51 | 1015.7 |
| 20260901212055 | 86 | 330 | 0.9 | 2.6 | 0.00 | 0.00 | 0.00 | 51 | 1015.7 |
| 20260901211932 | 86 | 329 | 0.9 | 2.6 | 0.00 | 0.00 | 0.00 | 50 | 1015.7 |
| 20260901211831 | 86 | 330 | 0.9 | 2.6 | 0.00 | 0.00 | 0.00 | 51 | 1015.7 |
| 20260901211740 | 86 | 329 | 0.9 | 2.6 | 0.00 | 0.00 | 0.00 | 50 | 1015.7 |
| 20260901211649 | 86 | 329 | 0.0 | 2.6 | 0.00 | 0.00 | 0.00 | 50 | 1015.7 |
| 20260901211527 | 86 | 329 | 1.7 | 2.6 | 0.00 | 0.00 | 0.00 | 51 | 1015.7 |
| 20260901211429 | 86 | 329 | 1.7 | 2.6 | 0.00 | 0.00 | 0.00 | 50 | 1015.7 |
| 20260901211326 | 86 | 330 | 0.9 | 2.6 | 0.00 | 0.00 | 0.00 | 51 | 1015.7 |
| 20260901211225 | 86 | 329 | 0.0 | 2.6 | 0.00 | 0.00 | 0.00 | 53 | 1015.9 |
| 20260901211123 | 86 | 326 | 0.0 | 2.6 | 0.00 | 0.00 | 0.00 | 53 | 1015.9 |
| 20260901211025 | 86 | 328 | 0.9 | 2.6 | 0.00 | 0.00 | 0.00 | 53 | 1015.9 |
| 20260901210943 | 86 | 329 | 0.9 | 2.6 | 0.00 | 0.00 | 0.00 | 53 | 1015.9 |
| 20260901210839 | 86 | 326 | 0.9 | 2.6 | 0.00 | 0.00 | 0.00 | 55 | 1015.9 |
| 20260901210738 | 86 | 326 | 1.7 | 2.6 | 0.00 | 0.00 | 0.00 | 55 | 1015.9 |
| 20260901210640 | 86 | 328 | 1.7 | 2.6 | 0.00 | 0.00 | 0.00 | 55 | 1015.9 |
| 20260901210559 | 86 | 287 | 0.9 | 2.6 | 0.00 | 0.00 | 0.00 | 54 | 1015.9 |
| 20260901210436 | 86 | 285 | 0.0 | 2.6 | 0.00 | 0.00 | 0.00 | 53 | 1015.9 |
| 20260901210335 | 86 | 285 | 0.0 | 2.6 | 0.00 | 0.00 | 0.00 | 53 | 1015.9 |
| 20260901210234 | 86 | 285 | 0.0 | 5.2 | 0.00 | 0.00 | 0.00 | 53 | 1015.9 |
| 20260901210205 | 86 | 284 | 0.9 | 5.2 | 0.00 | 0.00 | 0.00 | 53 | 1015.9 |
| 20260901210042 | 86 | 285 | 1.7 | 5.2 | 0.00 | 0.00 | 0.00 | 53 | 1015.9 |
| 20260901205944 | 86 | 285 | 0.9 | 5.2 | 0.00 | 0.00 | 0.00 | 53 | 1015.9 |
| 20260901205903 | 86 | 285 | 0.0 | 5.2 | 0.00 | 0.00 | 0.00 | 53 | 1015.9 |
| 20260901205741 | 86 | 282 | 0.0 | 5.2 | 0.00 | 0.00 | 0.00 | 53 | 1015.9 |
| 20260901205639 | 86 | 285 | 0.0 | 5.2 | 0.00 | 0.00 | 0.00 | 53 | 1015.9 |
| 20260901205538 | 86 | 285 | 0.9 | 5.2 | 0.00 | 0.00 | 0.00 | 53 | 1015.9 |
| 20260901205457 | 86 | 285 | 2.6 | 5.2 | 0.00 | 0.00 | 0.00 | 52 | 1015.9 |
| 20260901205335 | 86 | 16 | 0.0 | 1.7 | 0.00 | 0.00 | 0.00 | 52 | 1015.9 |
| 20260901205233 | 86 | 16 | 0.0 | 1.7 | 0.00 | 0.00 | 0.00 | 52 | 1015.9 |
| 20260901205136 | 86 | 11 | 0.0 | 2.6 | 0.00 | 0.00 | 0.00 | 52 | 1015.9 |
| 20260901205035 | 86 | 16 | 0.0 | 2.6 | 0.00 | 0.00 | 0.00 | 52 | 1015.9 |
| 20260901204932 | 86 | 16 | 0.0 | 2.6 | 0.00 | 0.00 | 0.00 | 53 | 1015.9 |
| 20260901204831 | 86 | 16 | 0.9 | 2.6 | 0.00 | 0.00 | 0.00 | 53 | 1015.9 |
| 20260901204729 | 86 | 17 | 0.0 | 2.6 | 0.00 | 0.00 | 0.00 | 53 | 1015.9 |
| 20260901204658 | 86 | 14 | 0.0 | 3.5 | 0.00 | 0.00 | 0.00 | 52 | 1015.9 |
| 20260901204536 | 86 | 16 | 0.0 | 3.5 | 0.00 | 0.00 | 0.00 | 51 | 1015.9 |
| 20260901204440 | 86 | 16 | 0.0 | 4.3 | 0.00 | 0.00 | 0.00 | 51 | 1015.9 |
| 20260901204338 | 86 | 16 | 1.7 | 4.3 | 0.00 | 0.00 | 0.00 | 51 | 1015.9 |
| 20260901204237 | 86 | 17 | 1.7 | 4.3 | 0.00 | 0.00 | 0.00 | 52 | 1016.1 |
| 20260901204135 | 86 | 23 | 0.9 | 4.3 | 0.00 | 0.00 | 0.00 | 51 | 1016.1 |
| 20260901204034 | 86 | 21 | 1.7 | 4.3 | 0.00 | 0.00 | 0.00 | 50 | 1016.1 |
| 20260901203932 | 86 | 21 | 1.7 | 4.3 | 0.00 | 0.00 | 0.00 | 51 | 1016.1 |
| 20260901203834 | 86 | 24 | 1.7 | 4.3 | 0.00 | 0.00 | 0.00 | 50 | 1016.1 |
| 20260901203732 | 86 | 32 | 1.7 | 4.3 | 0.00 | 0.00 | 0.00 | 50 | 1016.1 |
| 20260901203631 | 86 | 37 | 2.6 | 4.3 | 0.00 | 0.00 | 0.00 | 51 | 1016.1 |
| 20260901203530 | 86 | 38 | 2.6 | 4.3 | 0.00 | 0.00 | 0.00 | 51 | 1016.1 |
| 20260901203428 | 86 | 40 | 0.9 | 4.3 | 0.00 | 0.00 | 0.00 | 54 | 1016.1 |
| 20260901203326 | 86 | 41 | 0.0 | 4.3 | 0.00 | 0.00 | 0.00 | 53 | 1016.1 |
| 20260901203246 | 86 | 44 | 0.0 | 4.3 | 0.00 | 0.00 | 0.00 | 53 | 1016.1 |
| 20260901203155 | 86 | 44 | 0.9 | 4.3 | 0.00 | 0.00 | 0.00 | 53 | 1016.1 |
| 20260901203056 | 86 | 42 | 2.6 | 4.3 | 0.00 | 0.00 | 0.00 | 52 | 1016.1 |
| 20260901202933 | 86 | 42 | 2.6 | 4.3 | 0.00 | 0.00 | 0.00 | 55 | 1016.1 |
| 20260901202835 | 86 | 11 | 1.7 | 2.6 | 0.00 | 0.00 | 0.00 | 54 | 1016.1 |
| 20260901202753 | 86 | 10 | 0.9 | 2.6 | 0.00 | 0.00 | 0.00 | 51 | 1016.2 |
| 20260901202650 | 86 | 10 | 0.9 | 2.6 | 0.00 | 0.00 | 0.00 | 53 | 1016.2 |
| 20260901202548 | 86 | 11 | 0.9 | 2.6 | 0.00 | 0.00 | 0.00 | 53 | 1016.2 |
| 20260901202425 | 86 | 8 | 0.0 | 2.6 | 0.00 | 0.00 | 0.00 | 53 | 1016.2 |
| 20260901202344 | 86 | 11 | 0.9 | 2.6 | 0.00 | 0.00 | 0.00 | 52 | 1016.2 |
| 20260901202301 | 86 | 10 | 0.9 | 2.6 | 0.00 | 0.00 | 0.00 | 51 | 1016.2 |
| 20260901202200 | 86 | 10 | 0.9 | 2.6 | 0.00 | 0.00 | 0.00 | 51 | 1016.2 |
| 20260901202102 | 86 | 11 | 1.7 | 2.6 | 0.00 | 0.00 | 0.00 | 51 | 1016.2 |
| 20260901202021 | 86 | 11 | 1.7 | 2.6 | 0.00 | 0.00 | 0.00 | 52 | 1016.2 |
| 20260901201918 | 86 | 11 | 1.7 | 2.6 | 0.00 | 0.00 | 0.00 | 53 | 1016.2 |
| 20260901201815 | 86 | 11 | 1.7 | 2.6 | 0.00 | 0.00 | 0.00 | 52 | 1016.2 |
| 20260901201704 | 86 | 10 | 1.7 | 2.6 | 0.00 | 0.00 | 0.00 | 52 | 1016.2 |
| 20260901201541 | 86 | 10 | 0.9 | 1.7 | 0.00 | 0.00 | 0.00 | 52 | 1016.2 |
| 20260901201441 | 86 | 11 | 0.9 | 1.7 | 0.00 | 0.00 | 0.00 | 52 | 1016.2 |
| 20260901201342 | 86 | 10 | 0.9 | 1.7 | 0.00 | 0.00 | 0.00 | 52 | 1016.2 |
| 20260901201239 | 86 | 11 | 1.7 | 1.7 | 0.00 | 0.00 | 0.00 | 52 | 1016.3 |
| 20260901201141 | 86 | 11 | 1.7 | 1.7 | 0.00 | 0.00 | 0.00 | 52 | 1016.3 |
| 20260901201041 | 86 | 11 | 0.9 | 1.7 | 0.00 | 0.00 | 0.00 | 52 | 1016.3 |
| 20260901201000 | 86 | 11 | 0.0 | 4.3 | 0.00 | 0.00 | 0.00 | 51 | 1016.3 |
| 20260901200837 | 86 | 11 | 0.0 | 4.3 | 0.00 | 0.00 | 0.00 | 52 | 1016.3 |
| 20260901200735 | 86 | 10 | 0.9 | 4.3 | 0.00 | 0.00 | 0.00 | 52 | 1016.3 |
| 20260901200633 | 86 | 10 | 0.9 | 4.3 | 0.00 | 0.00 | 0.00 | 54 | 1016.3 |
| 20260901200532 | 86 | 10 | 0.0 | 4.3 | 0.00 | 0.00 | 0.00 | 54 | 1016.3 |
| 20260901200434 | 86 | 11 | 0.0 | 4.3 | 0.00 | 0.00 | 0.00 | 54 | 1016.3 |
| 20260901200332 | 86 | 8 | 0.0 | 4.3 | 0.00 | 0.00 | 0.00 | 54 | 1016.3 |
| 20260901200231 | 86 | 10 | 1.7 | 4.3 | 0.00 | 0.00 | 0.00 | 54 | 1016.3 |
| 20260901200201 | 86 | 11 | 1.7 | 4.3 | 0.00 | 0.00 | 0.00 | 56 | 1016.3 |
| 20260901200038 | 86 | 13 | 2.6 | 4.3 | 0.00 | 0.00 | 0.00 | 53 | 1016.3 |
| 20260901195957 | 86 | 3 | 0.9 | 2.6 | 0.00 | 0.00 | 0.00 | 53 | 1016.3 |
| 20260901195835 | 86 | 1 | 0.9 | 2.6 | 0.00 | 0.00 | 0.00 | 53 | 1016.3 |
| 20260901195734 | 86 | 1 | 0.9 | 2.6 | 0.00 | 0.00 | 0.00 | 53 | 1016.3 |
| 20260901195636 | 86 | 1 | 1.7 | 2.6 | 0.00 | 0.00 | 0.00 | 52 | 1016.3 |
| 20260901195554 | 86 | 360 | 1.7 | 2.6 | 0.00 | 0.00 | 0.00 | 53 | 1016.3 |
| 20260901195432 | 86 | 1 | 1.7 | 2.6 | 0.00 | 0.00 | 0.00 | 51 | 1016.3 |
| 20260901195331 | 86 | 360 | 0.9 | 1.7 | 0.00 | 0.00 | 0.00 | 52 | 1016.3 |
| 20260901195229 | 86 | 360 | 0.9 | 1.7 | 0.00 | 0.00 | 0.00 | 54 | 1016.3 |
| 20260901195127 | 86 | 360 | 0.0 | 2.6 | 0.00 | 0.00 | 0.00 | 54 | 1016.3 |
| 20260901195026 | 86 | 360 | 0.0 | 2.6 | 0.00 | 0.00 | 0.00 | 57 | 1016.3 |
| 20260901194928 | 87 | 360 | 0.0 | 2.6 | 0.00 | 0.00 | 0.00 | 57 | 1016.3 |
| 20260901194826 | 87 | 360 | 0.0 | 2.6 | 0.00 | 0.00 | 0.00 | 56 | 1016.3 |
| 20260901194736 | 87 | 360 | 0.9 | 2.6 | 0.00 | 0.00 | 0.00 | 56 | 1016.3 |
| 20260901194645 | 87 | 1 | 0.9 | 2.6 | 0.00 | 0.00 | 0.00 | 56 | 1016.3 |
| 20260901194543 | 87 | 360 | 0.9 | 2.6 | 0.00 | 0.00 | 0.00 | 56 | 1016.3 |
| 20260901194442 | 87 | 360 | 0.9 | 2.6 | 0.00 | 0.00 | 0.00 | 55 | 1016.3 |
| 20260901194400 | 87 | 360 | 1.7 | 2.6 | 0.00 | 0.00 | 0.00 | 54 | 1016.3 |
| 20260901194237 | 87 | 360 | 1.7 | 2.6 | 0.00 | 0.00 | 0.00 | 55 | 1016.5 |
| 20260901194140 | 87 | 360 | 0.0 | 2.6 | 0.00 | 0.00 | 0.00 | 55 | 1016.5 |
| 20260901194058 | 87 | 360 | 0.0 | 2.6 | 0.00 | 0.00 | 0.00 | 55 | 1016.5 |
| 20260901193935 | 87 | 360 | 0.0 | 2.6 | 0.00 | 0.00 | 0.00 | 52 | 1016.5 |
| 20260901193853 | 87 | 360 | 0.0 | 2.6 | 0.00 | 0.00 | 0.00 | 53 | 1016.5 |
| 20260901193751 | 87 | 360 | 0.9 | 2.6 | 0.00 | 0.00 | 0.00 | 52 | 1016.5 |
| 20260901193628 | 87 | 360 | 0.9 | 4.3 | 0.00 | 0.00 | 0.00 | 52 | 1016.5 |
| 20260901193547 | 87 | 360 | 1.7 | 4.3 | 0.00 | 0.00 | 0.00 | 53 | 1016.5 |
| 20260901193425 | 87 | 360 | 1.7 | 4.3 | 0.00 | 0.00 | 0.00 | 54 | 1016.5 |
| 20260901193343 | 87 | 360 | 1.7 | 4.3 | 0.00 | 0.00 | 0.00 | 54 | 1016.5 |
| 20260901193238 | 87 | 1 | 0.9 | 4.3 | 0.00 | 0.00 | 0.00 | 53 | 1016.5 |
| 20260901193149 | 87 | 360 | 0.9 | 4.3 | 0.00 | 0.00 | 0.00 | 52 | 1016.5 |
| 20260901193027 | 87 | 1 | 1.7 | 4.3 | 0.00 | 0.00 | 0.00 | 50 | 1016.5 |
| 20260901192926 | 87 | 360 | 2.6 | 4.3 | 0.00 | 0.00 | 0.00 | 50 | 1016.5 |
| 20260901192825 | 87 | 360 | 2.6 | 4.3 | 0.00 | 0.00 | 0.00 | 50 | 1016.5 |
| 20260901192743 | 87 | 1 | 3.5 | 4.3 | 0.00 | 0.00 | 0.00 | 51 | 1016.6 |
| 20260901192642 | 87 | 360 | 3.5 | 4.3 | 0.00 | 0.00 | 0.00 | 50 | 1016.6 |
| 20260901192600 | 87 | 1 | 1.7 | 4.3 | 0.00 | 0.00 | 0.00 | 50 | 1016.6 |
| 20260901192457 | 87 | 1 | 1.7 | 4.3 | 0.00 | 0.00 | 0.00 | 49 | 1016.6 |
| 20260901192338 | 87 | 360 | 1.7 | 4.3 | 0.00 | 0.00 | 0.00 | 49 | 1016.6 |
| 20260901192237 | 87 | 1 | 2.6 | 4.3 | 0.00 | 0.00 | 0.00 | 49 | 1016.6 |
| 20260901192134 | 87 | 360 | 1.7 | 4.3 | 0.00 | 0.00 | 0.00 | 50 | 1016.6 |
| 20260901192052 | 87 | 1 | 0.9 | 2.6 | 0.00 | 0.00 | 0.00 | 50 | 1016.6 |
| 20260901191929 | 87 | 1 | 1.7 | 2.6 | 0.00 | 0.00 | 0.00 | 50 | 1016.6 |
| 20260901191829 | 87 | 360 | 1.7 | 3.5 | 0.00 | 0.00 | 0.00 | 52 | 1016.6 |
| 20260901191728 | 87 | 1 | 0.9 | 4.3 | 0.00 | 0.00 | 0.00 | 51 | 1016.6 |
| 20260901191702 | 87 | 3 | 0.9 | 4.3 | 0.00 | 0.00 | 0.00 | 50 | 1016.6 |
| 20260901191540 | 87 | 3 | 1.7 | 4.3 | 0.00 | 0.00 | 0.00 | 50 | 1016.6 |
| 20260901191458 | 87 | 1 | 2.6 | 4.3 | 0.00 | 0.00 | 0.00 | 52 | 1016.6 |
| 20260901191335 | 87 | 1 | 0.9 | 4.3 | 0.00 | 0.00 | 0.00 | 52 | 1016.6 |
| 20260901191234 | 87 | 6 | 0.9 | 4.3 | 0.00 | 0.00 | 0.00 | 52 | 1016.8 |
| 20260901191132 | 87 | 1 | 0.9 | 4.3 | 0.00 | 0.00 | 0.00 | 51 | 1016.8 |
| 20260901191030 | 87 | 1 | 1.7 | 4.3 | 0.00 | 0.00 | 0.00 | 51 | 1016.8 |
| 20260901190932 | 87 | 1 | 3.5 | 4.3 | 0.00 | 0.00 | 0.00 | 50 | 1016.8 |
| 20260901190828 | 87 | 325 | 0.9 | 3.5 | 0.00 | 0.00 | 0.00 | 50 | 1016.8 |
| 20260901190727 | 87 | 326 | 1.7 | 3.5 | 0.00 | 0.00 | 0.00 | 50 | 1016.8 |
| 20260901190624 | 87 | 325 | 0.9 | 4.3 | 0.00 | 0.00 | 0.00 | 50 | 1016.8 |
| 20260901190542 | 87 | 326 | 1.7 | 4.3 | 0.00 | 0.00 | 0.00 | 50 | 1016.8 |
| 20260901190441 | 87 | 328 | 1.7 | 4.3 | 0.00 | 0.00 | 0.00 | 51 | 1016.8 |
| 20260901190338 | 87 | 326 | 2.6 | 4.3 | 0.00 | 0.00 | 0.00 | 50 | 1016.8 |
| 20260901190237 | 87 | 360 | 2.6 | 4.3 | 0.00 | 0.00 | 0.00 | 49 | 1016.8 |
| 20260901190207 | 87 | 360 | 2.6 | 4.3 | 0.00 | 0.00 | 0.00 | 49 | 1016.8 |
| 20260901190027 | 87 | 360 | 2.6 | 4.3 | 0.00 | 0.00 | 0.00 | 51 | 1016.8 |
| 20260901185926 | 87 | 1 | 2.6 | 4.3 | 0.00 | 0.00 | 0.00 | 50 | 1016.8 |
| 20260901185824 | 87 | 1 | 1.7 | 4.3 | 0.00 | 0.00 | 0.00 | 51 | 1016.8 |
| 20260901185743 | 87 | 4 | 1.7 | 2.6 | 0.00 | 0.00 | 0.00 | 50 | 1016.9 |
| 20260901185643 | 87 | 4 | 1.7 | 2.6 | 0.00 | 0.00 | 0.00 | 50 | 1016.9 |
| 20260901185522 | 87 | 6 | 0.0 | 1.7 | 0.00 | 0.00 | 0.00 | 50 | 1016.9 |
| 20260901185426 | 87 | 6 | 0.0 | 1.7 | 0.00 | 0.00 | 0.00 | 49 | 1016.9 |
| 20260901185324 | 86 | 4 | 0.0 | 1.7 | 0.00 | 0.00 | 0.00 | 48 | 1016.9 |
| 20260901185243 | 86 | 6 | 0.0 | 2.6 | 0.00 | 0.00 | 0.00 | 47 | 1016.9 |
| 20260901185142 | 86 | 6 | 0.9 | 2.6 | 0.00 | 0.00 | 0.00 | 47 | 1016.9 |
| 20260901185040 | 86 | 6 | 0.9 | 2.6 | 0.00 | 0.00 | 0.00 | 48 | 1016.9 |
| 20260901184938 | 86 | 6 | 0.0 | 2.6 | 0.00 | 0.00 | 0.00 | 48 | 1016.9 |
| 20260901184858 | 86 | 6 | 0.0 | 2.6 | 0.00 | 0.00 | 0.00 | 48 | 1016.9 |
| 20260901184815 | 86 | 6 | 0.0 | 2.6 | 0.00 | 0.00 | 0.00 | 50 | 1016.9 |
| 20260901184725 | 86 | 4 | 0.0 | 2.6 | 0.00 | 0.00 | 0.00 | 50 | 1016.9 |
| 20260901184544 | 86 | 6 | 0.0 | 2.6 | 0.00 | 0.00 | 0.00 | 50 | 1016.9 |
| 20260901184502 | 86 | 6 | 0.9 | 2.6 | 0.00 | 0.00 | 0.00 | 52 | 1016.9 |
| 20260901184338 | 86 | 6 | 0.9 | 2.6 | 0.00 | 0.00 | 0.00 | 50 | 1016.9 |
| 20260901184257 | 86 | 7 | 1.7 | 2.6 | 0.00 | 0.00 | 0.00 | 51 | 1017.2 |
| 20260901184133 | 86 | 3 | 1.7 | 2.6 | 0.00 | 0.00 | 0.00 | 52 | 1017.2 |
| 20260901184033 | 86 | 1 | 0.0 | 2.6 | 0.00 | 0.00 | 0.00 | 52 | 1017.2 |
| 20260901183935 | 86 | 360 | 0.9 | 3.5 | 0.00 | 0.00 | 0.00 | 52 | 1017.2 |
| 20260901183832 | 86 | 360 | 1.7 | 3.5 | 0.00 | 0.00 | 0.00 | 51 | 1017.2 |
| 20260901183734 | 86 | 360 | 0.9 | 3.5 | 0.00 | 0.00 | 0.00 | 50 | 1017.2 |
| 20260901183653 | 86 | 360 | 0.9 | 3.5 | 0.00 | 0.00 | 0.00 | 51 | 1017.2 |
| 20260901183531 | 86 | 360 | 1.7 | 3.5 | 0.00 | 0.00 | 0.00 | 52 | 1017.2 |
| 20260901183429 | 86 | 1 | 0.0 | 3.5 | 0.00 | 0.00 | 0.00 | 51 | 1017.2 |
| 20260901183328 | 86 | 360 | 0.9 | 3.5 | 0.00 | 0.00 | 0.00 | 52 | 1017.2 |
| 20260901183237 | 86 | 360 | 2.6 | 3.5 | 0.00 | 0.00 | 0.00 | 52 | 1017.2 |
| 20260901183146 | 86 | 360 | 1.7 | 3.5 | 0.00 | 0.00 | 0.00 | 51 | 1017.2 |
| 20260901183028 | 86 | 360 | 1.7 | 3.5 | 0.00 | 0.00 | 0.00 | 52 | 1017.2 |
| 20260901182929 | 86 | 360 | 0.9 | 2.6 | 0.00 | 0.00 | 0.00 | 51 | 1017.2 |
| 20260901182828 | 86 | 360 | 0.9 | 2.6 | 0.00 | 0.00 | 0.00 | 50 | 1017.2 |
| 20260901182746 | 86 | 360 | 0.9 | 2.6 | 0.00 | 0.00 | 0.00 | 52 | 1017.3 |
| 20260901182644 | 86 | 1 | 1.7 | 2.6 | 0.00 | 0.00 | 0.00 | 52 | 1017.3 |
| 20260901182540 | 86 | 360 | 0.9 | 2.6 | 0.00 | 0.00 | 0.00 | 53 | 1017.3 |
| 20260901182458 | 86 | 360 | 0.9 | 2.6 | 0.00 | 0.00 | 0.00 | 53 | 1017.3 |
| 20260901182336 | 86 | 3 | 1.7 | 2.6 | 0.00 | 0.00 | 0.00 | 56 | 1017.3 |
| 20260901182238 | 86 | 360 | 1.7 | 2.6 | 0.00 | 0.00 | 0.00 | 57 | 1017.3 |
| 20260901182141 | 86 | 360 | 1.7 | 2.6 | 0.00 | 0.00 | 0.00 | 57 | 1017.3 |
| 20260901182039 | 86 | 3 | 0.9 | 2.6 | 0.00 | 0.00 | 0.00 | 57 | 1017.3 |
| 20260901181938 | 86 | 360 | 0.0 | 2.6 | 0.00 | 0.00 | 0.00 | 57 | 1017.3 |
| 20260901181836 | 86 | 1 | 0.0 | 2.6 | 0.00 | 0.00 | 0.00 | 56 | 1017.3 |
| 20260901181755 | 86 | 3 | 0.9 | 2.6 | 0.00 | 0.00 | 0.00 | 57 | 1017.3 |
| 20260901181724 | 86 | 360 | 1.7 | 2.6 | 0.00 | 0.00 | 0.00 | 58 | 1017.3 |
| 20260901181525 | 86 | 360 | 1.7 | 2.6 | 0.00 | 0.00 | 0.00 | 56 | 1017.3 |
| 20260901181443 | 86 | 1 | 1.7 | 2.6 | 0.00 | 0.00 | 0.00 | 56 | 1017.3 |
| 20260901181341 | 86 | 360 | 0.9 | 2.6 | 0.00 | 0.00 | 0.00 | 54 | 1017.3 |
| 20260901181240 | 86 | 360 | 0.0 | 2.6 | 0.00 | 0.00 | 0.00 | 54 | 1017.3 |
| 20260901181138 | 86 | 1 | 0.9 | 2.6 | 0.00 | 0.00 | 0.00 | 54 | 1017.3 |
| 20260901181036 | 86 | 1 | 0.9 | 2.6 | 0.00 | 0.00 | 0.00 | 55 | 1017.3 |
| 20260901180934 | 86 | 360 | 1.7 | 2.6 | 0.00 | 0.00 | 0.00 | 58 | 1017.3 |
| 20260901180836 | 86 | 1 | 0.0 | 1.7 | 0.00 | 0.00 | 0.00 | 58 | 1017.3 |
| 20260901180733 | 86 | 360 | 0.9 | 1.7 | 0.00 | 0.00 | 0.00 | 57 | 1017.3 |
| 20260901180652 | 86 | 360 | 0.9 | 2.6 | 0.00 | 0.00 | 0.00 | 58 | 1017.3 |
| 20260901180529 | 86 | 360 | 0.0 | 2.6 | 0.00 | 0.00 | 0.00 | 57 | 1017.3 |
| 20260901180429 | 86 | 360 | 0.0 | 2.6 | 0.00 | 0.00 | 0.00 | 57 | 1017.3 |
| 20260901180328 | 86 | 1 | 0.0 | 2.6 | 0.00 | 0.00 | 0.00 | 57 | 1017.3 |
| 20260901180241 | 86 | 360 | 0.0 | 2.6 | 0.00 | 0.00 | 0.00 | 57 | 1017.3 |
| 20260901180151 | 86 | 360 | 0.9 | 2.6 | 0.00 | 0.00 | 0.00 | 57 | 1017.3 |
| 20260901180051 | 86 | 360 | 0.9 | 2.6 | 0.00 | 0.00 | 0.00 | 56 | 1017.3 |
| 20260901175928 | 86 | 360 | 0.0 | 2.6 | 0.00 | 0.00 | 0.00 | 56 | 1017.3 |
| 20260901175827 | 86 | 360 | 1.7 | 2.6 | 0.00 | 0.00 | 0.00 | 57 | 1017.3 |
| 20260901175726 | 86 | 360 | 0.9 | 2.6 | 0.00 | 0.00 | 0.00 | 57 | 1017.4 |
| 20260901175627 | 86 | 360 | 0.9 | 2.6 | 0.00 | 0.00 | 0.00 | 55 | 1017.4 |
| 20260901175526 | 86 | 360 | 0.9 | 2.6 | 0.00 | 0.00 | 0.00 | 55 | 1017.4 |
| 20260901175425 | 87 | 360 | 0.9 | 3.5 | 0.00 | 0.00 | 0.00 | 55 | 1017.4 |
| 20260901175347 | 87 | 360 | 0.9 | 3.5 | 0.00 | 0.00 | 0.00 | 55 | 1017.4 |
| 20260901175306 | 87 | 360 | 1.7 | 5.2 | 0.00 | 0.00 | 0.00 | 54 | 1017.4 |
| 20260901175203 | 87 | 360 | 1.7 | 5.2 | 0.00 | 0.00 | 0.00 | 53 | 1017.4 |
| 20260901175041 | 87 | 360 | 1.7 | 5.2 | 0.00 | 0.00 | 0.00 | 53 | 1017.4 |
| 20260901174940 | 87 | 360 | 1.7 | 5.2 | 0.00 | 0.00 | 0.00 | 53 | 1017.4 |
| 20260901174836 | 87 | 1 | 0.9 | 5.2 | 0.00 | 0.00 | 0.00 | 54 | 1017.4 |
| 20260901174735 | 87 | 360 | 0.9 | 5.2 | 0.00 | 0.00 | 0.00 | 53 | 1017.4 |
| 20260901174704 | 87 | 1 | 1.7 | 5.2 | 0.00 | 0.00 | 0.00 | 52 | 1017.4 |
| 20260901174547 | 87 | 31 | 2.6 | 5.2 | 0.00 | 0.00 | 0.00 | 52 | 1017.4 |
| 20260901174505 | 87 | 31 | 3.5 | 5.2 | 0.00 | 0.00 | 0.00 | 54 | 1017.4 |
| 20260901174343 | 87 | 34 | 3.5 | 5.2 | 0.00 | 0.00 | 0.00 | 52 | 1017.4 |
| 20260901174302 | 87 | 27 | 1.7 | 3.5 | 0.00 | 0.00 | 0.00 | 53 | 1017.5 |
| 20260901174140 | 87 | 288 | 0.0 | 1.7 | 0.00 | 0.00 | 0.00 | 51 | 1017.5 |
| 20260901174038 | 87 | 287 | 0.0 | 1.7 | 0.00 | 0.00 | 0.00 | 52 | 1017.5 |
| 20260901173941 | 87 | 288 | 0.9 | 1.7 | 0.00 | 0.00 | 0.00 | 53 | 1017.5 |
| 20260901173838 | 87 | 287 | 0.9 | 1.7 | 0.00 | 0.00 | 0.00 | 56 | 1017.5 |
| 20260901173757 | 87 | 288 | 0.0 | 2.6 | 0.00 | 0.00 | 0.00 | 55 | 1017.5 |
| 20260901173638 | 87 | 281 | 0.0 | 2.6 | 0.00 | 0.00 | 0.00 | 55 | 1017.5 |
| 20260901173536 | 87 | 288 | 0.0 | 4.3 | 0.00 | 0.00 | 0.00 | 55 | 1017.5 |
| 20260901173434 | 87 | 288 | 0.0 | 4.3 | 0.00 | 0.00 | 0.00 | 57 | 1017.5 |
| 20260901173334 | 87 | 288 | 0.0 | 4.3 | 0.00 | 0.00 | 0.00 | 57 | 1017.5 |
| 20260901173233 | 87 | 287 | 0.0 | 4.3 | 0.00 | 0.00 | 0.00 | 57 | 1017.5 |
| 20260901173204 | 87 | 288 | 0.0 | 4.3 | 0.00 | 0.00 | 0.00 | 56 | 1017.5 |
| 20260901173024 | 87 | 288 | 0.9 | 4.3 | 0.00 | 0.00 | 0.00 | 53 | 1017.5 |
| 20260901172943 | 86 | 288 | 0.9 | 4.3 | 0.00 | 0.00 | 0.00 | 53 | 1017.5 |
| 20260901172841 | 86 | 284 | 0.9 | 4.3 | 0.00 | 0.00 | 0.00 | 56 | 1017.5 |
| 20260901172739 | 86 | 284 | 1.7 | 4.3 | 0.00 | 0.00 | 0.00 | 56 | 1017.8 |
| 20260901172640 | 86 | 281 | 1.7 | 4.3 | 0.00 | 0.00 | 0.00 | 57 | 1017.8 |
| 20260901172539 | 86 | 274 | 0.9 | 2.6 | 0.00 | 0.00 | 0.00 | 56 | 1017.8 |
| 20260901172437 | 87 | 272 | 0.0 | 2.6 | 0.00 | 0.00 | 0.00 | 55 | 1017.8 |
| 20260901172355 | 87 | 272 | 0.0 | 2.6 | 0.00 | 0.00 | 0.00 | 55 | 1017.8 |
| 20260901172231 | 87 | 272 | 0.9 | 2.6 | 0.00 | 0.00 | 0.00 | 54 | 1017.8 |
| 20260901172132 | 87 | 274 | 1.7 | 2.6 | 0.00 | 0.00 | 0.00 | 54 | 1017.8 |
| 20260901172029 | 87 | 270 | 0.9 | 2.6 | 0.00 | 0.00 | 0.00 | 54 | 1017.8 |
| 20260901171929 | 87 | 265 | 0.0 | 2.6 | 0.00 | 0.00 | 0.00 | 54 | 1017.8 |
| 20260901171827 | 87 | 263 | 0.0 | 4.3 | 0.00 | 0.00 | 0.00 | 55 | 1017.8 |
| 20260901171736 | 87 | 264 | 0.0 | 4.3 | 0.00 | 0.00 | 0.00 | 53 | 1017.8 |
| 20260901171645 | 87 | 264 | 0.0 | 4.3 | 0.00 | 0.00 | 0.00 | 52 | 1017.8 |
| 20260901171523 | 87 | 264 | 0.9 | 4.3 | 0.00 | 0.00 | 0.00 | 55 | 1017.8 |
| 20260901171426 | 87 | 265 | 2.6 | 4.3 | 0.00 | 0.00 | 0.00 | 55 | 1017.8 |
| 20260901171345 | 87 | 265 | 2.6 | 4.3 | 0.00 | 0.00 | 0.00 | 55 | 1017.8 |
| 20260901171303 | 87 | 261 | 1.7 | 4.3 | 0.00 | 0.00 | 0.00 | 54 | 1017.9 |
| 20260901171140 | 87 | 260 | 0.9 | 4.3 | 0.00 | 0.00 | 0.00 | 55 | 1017.9 |
| 20260901171038 | 87 | 260 | 2.6 | 4.3 | 0.00 | 0.00 | 0.00 | 55 | 1017.9 |
| 20260901170936 | 87 | 261 | 3.5 | 4.3 | 0.00 | 0.00 | 0.00 | 55 | 1017.9 |
| 20260901170835 | 87 | 267 | 0.9 | 4.3 | 0.00 | 0.00 | 0.00 | 56 | 1017.9 |
| 20260901170737 | 87 | 268 | 0.9 | 4.3 | 0.00 | 0.00 | 0.00 | 57 | 1017.9 |
| 20260901170634 | 87 | 270 | 1.7 | 4.3 | 0.00 | 0.00 | 0.00 | 56 | 1017.9 |
| 20260901170531 | 87 | 264 | 0.0 | 2.6 | 0.00 | 0.00 | 0.00 | 56 | 1017.9 |
| 20260901170430 | 87 | 265 | 0.0 | 2.6 | 0.00 | 0.00 | 0.00 | 58 | 1017.9 |
| 20260901170330 | 87 | 264 | 0.0 | 2.6 | 0.00 | 0.00 | 0.00 | 58 | 1017.9 |
| 20260901170228 | 87 | 265 | 0.0 | 2.6 | 0.00 | 0.00 | 0.00 | 57 | 1017.9 |
| 20260901170200 | 87 | 264 | 0.0 | 2.6 | 0.00 | 0.00 | 0.00 | 56 | 1017.9 |
| 20260901170036 | 87 | 264 | 0.9 | 2.6 | 0.00 | 0.00 | 0.00 | 56 | 1017.9 |
| 20260901165941 | 87 | 264 | 1.7 | 2.6 | 0.00 | 0.00 | 0.00 | 56 | 1017.9 |
| 20260901165839 | 86 | 263 | 0.0 | 2.6 | 0.00 | 0.00 | 0.00 | 56 | 1017.9 |
| 20260901165738 | 86 | 261 | 0.0 | 2.6 | 0.00 | 0.00 | 0.00 | 56 | 1018.1 |
| 20260901165637 | 86 | 261 | 0.0 | 2.6 | 0.00 | 0.00 | 0.00 | 56 | 1018.1 |
| 20260901165534 | 86 | 258 | 0.9 | 2.6 | 0.00 | 0.00 | 0.00 | 55 | 1018.1 |
| 20260901165433 | 86 | 263 | 0.9 | 3.5 | 0.00 | 0.00 | 0.00 | 55 | 1018.1 |
| 20260901165335 | 86 | 260 | 0.0 | 3.5 | 0.00 | 0.00 | 0.00 | 54 | 1018.1 |
| 20260901165233 | 86 | 261 | 0.0 | 3.5 | 0.00 | 0.00 | 0.00 | 54 | 1018.1 |
| 20260901165132 | 86 | 261 | 0.9 | 3.5 | 0.00 | 0.00 | 0.00 | 55 | 1018.1 |
| 20260901165030 | 86 | 260 | 0.9 | 3.5 | 0.00 | 0.00 | 0.00 | 56 | 1018.1 |
| 20260901164929 | 86 | 260 | 1.7 | 3.5 | 0.00 | 0.00 | 0.00 | 56 | 1018.1 |
| 20260901164828 | 86 | 260 | 1.7 | 3.5 | 0.00 | 0.00 | 0.00 | 55 | 1018.1 |
| 20260901164726 | 86 | 261 | 1.7 | 3.5 | 0.00 | 0.00 | 0.00 | 56 | 1018.1 |
| 20260901164703 | 86 | 260 | 1.7 | 3.5 | 0.00 | 0.00 | 0.00 | 56 | 1018.1 |
| 20260901164539 | 86 | 260 | 1.7 | 3.5 | 0.00 | 0.00 | 0.00 | 56 | 1018.1 |
| 20260901164436 | 86 | 254 | 0.0 | 2.6 | 0.00 | 0.00 | 0.00 | 55 | 1018.1 |
| 20260901164334 | 86 | 254 | 0.0 | 2.6 | 0.00 | 0.00 | 0.00 | 54 | 1018.1 |
| 20260901164232 | 86 | 254 | 0.0 | 2.6 | 0.00 | 0.00 | 0.00 | 54 | 1018.2 |
| 20260901164129 | 86 | 254 | 0.0 | 2.6 | 0.00 | 0.00 | 0.00 | 54 | 1018.2 |
| 20260901164028 | 86 | 254 | 0.9 | 2.6 | 0.00 | 0.00 | 0.00 | 54 | 1018.2 |
| 20260901163926 | 86 | 251 | 1.7 | 2.6 | 0.00 | 0.00 | 0.00 | 55 | 1018.2 |
| 20260901163830 | 86 | 254 | 0.9 | 2.6 | 0.00 | 0.00 | 0.00 | 54 | 1018.2 |
| 20260901163729 | 86 | 254 | 0.0 | 2.6 | 0.00 | 0.00 | 0.00 | 55 | 1018.2 |
| 20260901163628 | 86 | 254 | 1.7 | 2.6 | 0.00 | 0.00 | 0.00 | 55 | 1018.2 |
| 20260901163547 | 86 | 254 | 0.9 | 2.6 | 0.00 | 0.00 | 0.00 | 53 | 1018.2 |
| 20260901163427 | 86 | 254 | 0.9 | 6.1 | 0.00 | 0.00 | 0.00 | 53 | 1018.2 |
| 20260901163343 | 86 | 251 | 1.7 | 6.1 | 0.00 | 0.00 | 0.00 | 56 | 1018.2 |
| 20260901163242 | 86 | 254 | 1.7 | 6.1 | 0.00 | 0.00 | 0.00 | 58 | 1018.2 |
| 20260901163213 | 86 | 256 | 0.9 | 6.1 | 0.00 | 0.00 | 0.00 | 57 | 1018.2 |
| 20260901163033 | 86 | 254 | 0.0 | 6.1 | 0.00 | 0.00 | 0.00 | 57 | 1018.2 |
| 20260901162929 | 86 | 254 | 0.0 | 6.1 | 0.00 | 0.00 | 0.00 | 55 | 1018.2 |
| 20260901162848 | 86 | 251 | 0.0 | 6.1 | 0.00 | 0.00 | 0.00 | 55 | 1018.2 |
| 20260901162745 | 85 | 254 | 0.9 | 6.1 | 0.00 | 0.00 | 0.00 | 59 | 1018.4 |
| 20260901162700 | 85 | 251 | 2.6 | 6.1 | 0.00 | 0.00 | 0.00 | 60 | 1018.4 |
| 20260901162538 | 85 | 256 | 1.7 | 6.1 | 0.00 | 0.00 | 0.00 | 59 | 1018.4 |
| 20260901162437 | 85 | 261 | 0.0 | 2.6 | 0.00 | 0.00 | 0.00 | 57 | 1018.4 |
| 20260901162335 | 85 | 258 | 0.0 | 2.6 | 0.00 | 0.00 | 0.00 | 58 | 1018.4 |
| 20260901162238 | 85 | 260 | 0.9 | 2.6 | 0.00 | 0.00 | 0.00 | 61 | 1018.4 |
| 20260901162136 | 85 | 254 | 0.9 | 2.6 | 0.00 | 0.00 | 0.00 | 61 | 1018.4 |
| 20260901162036 | 85 | 260 | 0.0 | 2.6 | 0.00 | 0.00 | 0.00 | 61 | 1018.4 |
| 20260901161954 | 85 | 258 | 0.0 | 2.6 | 0.00 | 0.00 | 0.00 | 61 | 1018.4 |
| 20260901161852 | 85 | 257 | 0.0 | 2.6 | 0.00 | 0.00 | 0.00 | 60 | 1018.4 |
| 20260901161801 | 85 | 260 | 0.0 | 2.6 | 0.00 | 0.00 | 0.00 | 61 | 1018.4 |
| 20260901161649 | 85 | 260 | 0.9 | 2.6 | 0.00 | 0.00 | 0.00 | 60 | 1018.4 |
| 20260901161546 | 85 | 260 | 0.9 | 2.6 | 0.00 | 0.00 | 0.00 | 60 | 1018.4 |
| 20260901161504 | 85 | 277 | 0.9 | 2.6 | 0.00 | 0.00 | 0.00 | 60 | 1018.4 |
| 20260901161342 | 85 | 284 | 0.0 | 2.6 | 0.00 | 0.00 | 0.00 | 61 | 1018.4 |
| 20260901161304 | 85 | 282 | 0.0 | 2.6 | 0.00 | 0.00 | 0.00 | 62 | 1018.4 |
| 20260901161141 | 84 | 284 | 0.0 | 2.6 | 0.00 | 0.00 | 0.00 | 62 | 1018.4 |
| 20260901161038 | 84 | 282 | 0.9 | 2.6 | 0.00 | 0.00 | 0.00 | 62 | 1018.4 |
| 20260901160936 | 84 | 284 | 0.9 | 2.6 | 0.00 | 0.00 | 0.00 | 62 | 1018.4 |
| 20260901160835 | 84 | 284 | 0.0 | 2.6 | 0.00 | 0.00 | 0.00 | 62 | 1018.4 |
| 20260901160735 | 84 | 284 | 0.9 | 2.6 | 0.00 | 0.00 | 0.00 | 62 | 1018.4 |
| 20260901160653 | 84 | 278 | 0.9 | 2.6 | 0.00 | 0.00 | 0.00 | 62 | 1018.4 |
| 20260901160530 | 84 | 284 | 0.0 | 1.7 | 0.00 | 0.00 | 0.00 | 62 | 1018.4 |
| 20260901160452 | 84 | 282 | 0.9 | 1.7 | 0.00 | 0.00 | 0.00 | 62 | 1018.4 |
| 20260901160330 | 84 | 282 | 0.0 | 1.7 | 0.00 | 0.00 | 0.00 | 62 | 1018.4 |
| 20260901160229 | 84 | 284 | 0.0 | 1.7 | 0.00 | 0.00 | 0.00 | 60 | 1018.4 |
| 20260901160200 | 84 | 282 | 0.0 | 1.7 | 0.00 | 0.00 | 0.00 | 60 | 1018.4 |
| 20260901160035 | 84 | 282 | 0.9 | 2.6 | 0.00 | 0.00 | 0.00 | 60 | 1018.4 |
| 20260901155933 | 84 | 282 | 0.9 | 2.6 | 0.00 | 0.00 | 0.00 | 61 | 1018.4 |
| 20260901155831 | 84 | 281 | 0.0 | 2.6 | 0.00 | 0.00 | 0.00 | 61 | 1018.4 |
| 20260901155730 | 84 | 282 | 0.0 | 2.6 | 0.00 | 0.00 | 0.00 | 60 | 1018.6 |
| 20260901155653 | 84 | 282 | 0.9 | 2.6 | 0.00 | 0.00 | 0.00 | 63 | 1018.6 |
| 20260901155550 | 84 | 284 | 1.7 | 2.6 | 0.00 | 0.00 | 0.00 | 64 | 1018.6 |
| 20260901155508 | 84 | 282 | 0.9 | 2.6 | 0.00 | 0.00 | 0.00 | 63 | 1018.6 |
| 20260901155404 | 83 | 284 | 0.0 | 2.6 | 0.00 | 0.00 | 0.00 | 62 | 1018.6 |
| 20260901155240 | 83 | 284 | 0.9 | 2.6 | 0.00 | 0.00 | 0.00 | 62 | 1018.6 |
| 20260901155139 | 83 | 284 | 0.9 | 2.6 | 0.00 | 0.00 | 0.00 | 62 | 1018.6 |
| 20260901155058 | 83 | 285 | 0.0 | 2.6 | 0.00 | 0.00 | 0.00 | 62 | 1018.6 |
| 20260901154955 | 83 | 284 | 0.0 | 2.6 | 0.00 | 0.00 | 0.00 | 63 | 1018.6 |
| 20260901154831 | 83 | 284 | 0.9 | 2.6 | 0.00 | 0.00 | 0.00 | 63 | 1018.6 |
| 20260901154739 | 83 | 281 | 0.0 | 2.6 | 0.00 | 0.00 | 0.00 | 63 | 1018.6 |
| 20260901154653 | 83 | 282 | 0.0 | 2.6 | 0.00 | 0.00 | 0.00 | 64 | 1018.6 |
| 20260901154531 | 83 | 284 | 0.0 | 2.6 | 0.00 | 0.00 | 0.00 | 64 | 1018.6 |
| 20260901154430 | 83 | 282 | 0.9 | 4.3 | 0.00 | 0.00 | 0.00 | 65 | 1018.6 |
| 20260901154329 | 83 | 284 | 1.7 | 4.3 | 0.00 | 0.00 | 0.00 | 65 | 1018.6 |
| 20260901154229 | 83 | 282 | 0.9 | 4.3 | 0.00 | 0.00 | 0.00 | 64 | 1018.6 |
| 20260901154147 | 83 | 281 | 1.7 | 4.3 | 0.00 | 0.00 | 0.00 | 63 | 1018.6 |
| 20260901154106 | 83 | 282 | 1.7 | 4.3 | 0.00 | 0.00 | 0.00 | 65 | 1018.6 |
| 20260901154004 | 83 | 282 | 1.7 | 4.3 | 0.00 | 0.00 | 0.00 | 65 | 1018.6 |
| 20260901153840 | 83 | 281 | 1.7 | 4.3 | 0.00 | 0.00 | 0.00 | 65 | 1018.6 |
| 20260901153802 | 83 | 280 | 0.9 | 4.3 | 0.00 | 0.00 | 0.00 | 65 | 1018.6 |
| 20260901153639 | 83 | 284 | 1.7 | 4.3 | 0.00 | 0.00 | 0.00 | 65 | 1018.6 |
| 20260901153537 | 83 | 281 | 1.7 | 2.6 | 0.00 | 0.00 | 0.00 | 65 | 1018.6 |
| 20260901153456 | 83 | 282 | 0.9 | 4.3 | 0.00 | 0.00 | 0.00 | 65 | 1018.6 |
| 20260901153334 | 83 | 282 | 0.0 | 4.3 | 0.00 | 0.00 | 0.00 | 65 | 1018.6 |
| 20260901153231 | 83 | 284 | 0.0 | 4.3 | 0.00 | 0.00 | 0.00 | 65 | 1018.6 |
| 20260901153203 | 83 | 282 | 0.0 | 4.3 | 0.00 | 0.00 | 0.00 | 66 | 1018.6 |
| 20260901153040 | 83 | 280 | 1.7 | 4.3 | 0.00 | 0.00 | 0.00 | 66 | 1018.6 |
| 20260901152959 | 82 | 275 | 0.9 | 4.3 | 0.00 | 0.00 | 0.00 | 66 | 1018.6 |
| 20260901152840 | 82 | 278 | 1.7 | 4.3 | 0.00 | 0.00 | 0.00 | 67 | 1018.6 |
| 20260901152738 | 82 | 275 | 1.7 | 4.3 | 0.00 | 0.00 | 0.00 | 66 | 1018.6 |
| 20260901152636 | 82 | 275 | 2.6 | 4.3 | 0.00 | 0.00 | 0.00 | 67 | 1018.6 |
| 20260901152536 | 82 | 258 | 1.7 | 3.5 | 0.00 | 0.00 | 0.00 | 67 | 1018.6 |
| 20260901152435 | 82 | 261 | 2.6 | 3.5 | 0.00 | 0.00 | 0.00 | 68 | 1018.6 |
| 20260901152334 | 82 | 258 | 2.6 | 3.5 | 0.00 | 0.00 | 0.00 | 68 | 1018.6 |
| 20260901152232 | 82 | 258 | 0.9 | 2.6 | 0.00 | 0.00 | 0.00 | 67 | 1018.6 |
| 20260901152135 | 82 | 258 | 1.7 | 2.6 | 0.00 | 0.00 | 0.00 | 67 | 1018.6 |
| 20260901152034 | 82 | 256 | 0.9 | 2.6 | 0.00 | 0.00 | 0.00 | 67 | 1018.6 |
| 20260901151952 | 82 | 256 | 1.7 | 2.6 | 0.00 | 0.00 | 0.00 | 67 | 1018.6 |
| 20260901151848 | 82 | 257 | 1.7 | 1.7 | 0.00 | 0.00 | 0.00 | 67 | 1018.6 |
| 20260901151737 | 82 | 257 | 0.0 | 2.6 | 0.00 | 0.00 | 0.00 | 67 | 1018.6 |
| 20260901151646 | 82 | 257 | 0.0 | 4.3 | 0.00 | 0.00 | 0.00 | 66 | 1018.6 |
| 20260901151543 | 82 | 257 | 0.9 | 4.3 | 0.00 | 0.00 | 0.00 | 68 | 1018.6 |
| 20260901151441 | 82 | 256 | 0.9 | 4.3 | 0.00 | 0.00 | 0.00 | 68 | 1018.6 |
| 20260901151343 | 82 | 257 | 0.9 | 4.3 | 0.00 | 0.00 | 0.00 | 68 | 1018.6 |
| 20260901151242 | 81 | 256 | 0.9 | 4.3 | 0.00 | 0.00 | 0.00 | 68 | 1018.6 |
| 20260901151141 | 81 | 256 | 0.0 | 4.3 | 0.00 | 0.00 | 0.00 | 68 | 1018.6 |
| 20260901151040 | 81 | 253 | 0.9 | 4.3 | 0.00 | 0.00 | 0.00 | 67 | 1018.6 |
| 20260901150938 | 81 | 257 | 1.7 | 4.3 | 0.00 | 0.00 | 0.00 | 67 | 1018.6 |
| 20260901150836 | 81 | 256 | 2.6 | 4.3 | 0.00 | 0.00 | 0.00 | 68 | 1018.6 |
| 20260901150734 | 81 | 254 | 1.7 | 4.3 | 0.00 | 0.00 | 0.00 | 68 | 1018.6 |
| 20260901150637 | 81 | 257 | 0.9 | 1.7 | 0.00 | 0.00 | 0.00 | 68 | 1018.6 |
| 20260901150535 | 81 | 254 | 0.0 | 1.7 | 0.00 | 0.00 | 0.00 | 68 | 1018.6 |
| 20260901150432 | 81 | 257 | 0.0 | 2.6 | 0.00 | 0.00 | 0.00 | 69 | 1018.6 |
| 20260901150330 | 81 | 256 | 0.0 | 2.6 | 0.00 | 0.00 | 0.00 | 68 | 1018.6 |
| 20260901150239 | 81 | 256 | 0.0 | 2.6 | 0.00 | 0.00 | 0.00 | 69 | 1018.6 |
| 20260901150149 | 81 | 256 | 0.0 | 2.6 | 0.00 | 0.00 | 0.00 | 69 | 1018.6 |
| 20260901150047 | 81 | 257 | 0.0 | 2.6 | 0.00 | 0.00 | 0.00 | 68 | 1018.6 |
| 20260901145945 | 81 | 256 | 0.0 | 2.6 | 0.00 | 0.00 | 0.00 | 68 | 1018.6 |
| 20260901145827 | 81 | 254 | 0.9 | 2.6 | 0.00 | 0.00 | 0.00 | 68 | 1018.6 |
| 20260901145726 | 81 | 257 | 0.9 | 2.6 | 0.00 | 0.00 | 0.00 | 68 | 1018.5 |
| 20260901145644 | 81 | 257 | 1.7 | 3.5 | 0.00 | 0.00 | 0.00 | 68 | 1018.5 |
| 20260901145602 | 81 | 256 | 0.9 | 3.5 | 0.00 | 0.00 | 0.00 | 69 | 1018.5 |
| 20260901145500 | 81 | 253 | 0.0 | 3.5 | 0.00 | 0.00 | 0.00 | 69 | 1018.5 |
| 20260901145337 | 81 | 248 | 0.0 | 3.5 | 0.00 | 0.00 | 0.00 | 68 | 1018.5 |
| 20260901145234 | 81 | 253 | 0.9 | 3.5 | 0.00 | 0.00 | 0.00 | 69 | 1018.5 |
| 20260901145133 | 81 | 253 | 0.0 | 3.5 | 0.00 | 0.00 | 0.00 | 69 | 1018.5 |
| 20260901145030 | 80 | 254 | 0.9 | 3.5 | 0.00 | 0.00 | 0.00 | 68 | 1018.5 |
| 20260901144931 | 80 | 253 | 1.7 | 3.5 | 0.00 | 0.00 | 0.00 | 69 | 1018.5 |
| 20260901144830 | 80 | 247 | 2.6 | 3.5 | 0.00 | 0.00 | 0.00 | 68 | 1018.5 |
| 20260901144739 | 80 | 253 | 0.9 | 2.6 | 0.00 | 0.00 | 0.00 | 68 | 1018.5 |
| 20260901144648 | 80 | 253 | 0.0 | 2.6 | 0.00 | 0.00 | 0.00 | 68 | 1018.5 |
| 20260901144525 | 80 | 251 | 1.7 | 2.6 | 0.00 | 0.00 | 0.00 | 68 | 1018.5 |
| 20260901144424 | 80 | 250 | 0.9 | 4.3 | 0.00 | 0.00 | 0.00 | 68 | 1018.5 |
| 20260901144342 | 80 | 253 | 1.7 | 5.2 | 0.00 | 0.00 | 0.00 | 68 | 1018.5 |
| 20260901144225 | 80 | 254 | 1.7 | 5.2 | 0.00 | 0.00 | 0.00 | 69 | 1018.7 |
| 20260901144142 | 80 | 251 | 1.7 | 5.2 | 0.00 | 0.00 | 0.00 | 69 | 1018.7 |
| 20260901144101 | 80 | 253 | 0.9 | 5.2 | 0.00 | 0.00 | 0.00 | 69 | 1018.7 |
| 20260901143941 | 80 | 250 | 0.0 | 5.2 | 0.00 | 0.00 | 0.00 | 70 | 1018.7 |
| 20260901143840 | 80 | 253 | 0.0 | 5.2 | 0.00 | 0.00 | 0.00 | 69 | 1018.7 |
| 20260901143757 | 80 | 251 | 0.9 | 5.2 | 0.00 | 0.00 | 0.00 | 68 | 1018.7 |
| 20260901143634 | 80 | 253 | 1.7 | 5.2 | 0.00 | 0.00 | 0.00 | 68 | 1018.7 |
| 20260901143533 | 80 | 251 | 3.5 | 5.2 | 0.00 | 0.00 | 0.00 | 69 | 1018.7 |
| 20260901143436 | 80 | 253 | 2.6 | 5.2 | 0.00 | 0.00 | 0.00 | 69 | 1018.7 |
| 20260901143334 | 80 | 251 | 1.7 | 5.2 | 0.00 | 0.00 | 0.00 | 68 | 1018.7 |
| 20260901143232 | 80 | 253 | 1.7 | 5.2 | 0.00 | 0.00 | 0.00 | 68 | 1018.7 |
| 20260901143202 | 80 | 250 | 1.7 | 5.2 | 0.00 | 0.00 | 0.00 | 69 | 1018.7 |
| 20260901143059 | 80 | 251 | 2.6 | 5.2 | 0.00 | 0.00 | 0.00 | 68 | 1018.7 |
| 20260901142937 | 80 | 250 | 1.7 | 4.3 | 0.00 | 0.00 | 0.00 | 69 | 1018.7 |
| 20260901142834 | 80 | 253 | 2.6 | 4.3 | 0.00 | 0.00 | 0.00 | 69 | 1018.7 |
| 20260901142733 | 79 | 253 | 2.6 | 4.3 | 0.00 | 0.00 | 0.00 | 69 | 1018.7 |
| 20260901142657 | 79 | 250 | 0.9 | 4.3 | 0.00 | 0.00 | 0.00 | 69 | 1018.7 |
| 20260901142536 | 79 | 253 | 1.7 | 4.3 | 0.00 | 0.00 | 0.00 | 68 | 1018.7 |
| 20260901142435 | 79 | 254 | 2.6 | 4.3 | 0.00 | 0.00 | 0.00 | 68 | 1018.7 |
| 20260901142332 | 79 | 251 | 2.6 | 4.3 | 0.00 | 0.00 | 0.00 | 68 | 1018.7 |
| 20260901142227 | 79 | 251 | 2.6 | 4.3 | 0.00 | 0.00 | 0.00 | 68 | 1018.7 |
| 20260901142147 | 79 | 250 | 2.6 | 4.3 | 0.00 | 0.00 | 0.00 | 68 | 1018.7 |
| 20260901142105 | 79 | 254 | 2.6 | 4.3 | 0.00 | 0.00 | 0.00 | 68 | 1018.7 |
| 20260901141942 | 79 | 250 | 1.7 | 4.3 | 0.00 | 0.00 | 0.00 | 68 | 1018.7 |
| 20260901141825 | 79 | 250 | 1.7 | 4.3 | 0.00 | 0.00 | 0.00 | 69 | 1018.7 |
| 20260901141743 | 79 | 248 | 0.9 | 4.3 | 0.00 | 0.00 | 0.00 | 69 | 1018.7 |
| 20260901141712 | 79 | 250 | 1.7 | 4.3 | 0.00 | 0.00 | 0.00 | 69 | 1018.7 |
| 20260901141531 | 79 | 243 | 1.7 | 4.3 | 0.00 | 0.00 | 0.00 | 68 | 1018.7 |
| 20260901141449 | 79 | 248 | 2.6 | 4.3 | 0.00 | 0.00 | 0.00 | 69 | 1018.7 |
| 20260901141324 | 79 | 248 | 0.9 | 4.3 | 0.00 | 0.00 | 0.00 | 69 | 1018.7 |
| 20260901141243 | 79 | 250 | 0.9 | 3.5 | 0.00 | 0.00 | 0.00 | 69 | 1018.6 |
| 20260901141142 | 79 | 248 | 0.9 | 3.5 | 0.00 | 0.00 | 0.00 | 69 | 1018.6 |
| 20260901141041 | 79 | 250 | 1.7 | 3.5 | 0.00 | 0.00 | 0.00 | 69 | 1018.6 |
| 20260901141005 | 79 | 246 | 0.9 | 3.5 | 0.00 | 0.00 | 0.00 | 70 | 1018.6 |
| 20260901140842 | 79 | 247 | 1.7 | 3.5 | 0.00 | 0.00 | 0.00 | 70 | 1018.6 |
| 20260901140740 | 79 | 248 | 0.0 | 4.3 | 0.00 | 0.00 | 0.00 | 69 | 1018.6 |
| 20260901140639 | 79 | 250 | 0.0 | 4.3 | 0.00 | 0.00 | 0.00 | 70 | 1018.6 |
| 20260901140558 | 79 | 248 | 0.0 | 4.3 | 0.00 | 0.00 | 0.00 | 71 | 1018.6 |
| 20260901140435 | 79 | 250 | 0.9 | 4.3 | 0.00 | 0.00 | 0.00 | 70 | 1018.6 |
| 20260901140332 | 79 | 248 | 1.7 | 4.3 | 0.00 | 0.00 | 0.00 | 70 | 1018.6 |
| 20260901140226 | 78 | 250 | 2.6 | 4.3 | 0.00 | 0.00 | 0.00 | 70 | 1018.6 |
| 20260901135939 | 78 | 241 | 1.7 | 4.3 | 0.00 | 0.00 | 0.00 | 71 | 1018.6 |
| 20260901135838 | 78 | 240 | 1.7 | 4.3 | 0.00 | 0.00 | 0.00 | 70 | 1018.6 |
| 20260901135755 | 78 | 241 | 0.9 | 4.3 | 0.00 | 0.00 | 0.00 | 70 | 1018.3 |
| 20260901135633 | 78 | 240 | 1.7 | 4.3 | 0.00 | 0.00 | 0.00 | 71 | 1018.3 |
| 20260901135533 | 78 | 236 | 2.6 | 5.2 | 0.00 | 0.00 | 0.00 | 71 | 1018.3 |
| 20260901135432 | 78 | 239 | 1.7 | 5.2 | 0.00 | 0.00 | 0.00 | 71 | 1018.3 |
| 20260901135333 | 78 | 240 | 1.7 | 5.2 | 0.00 | 0.00 | 0.00 | 71 | 1018.3 |
| 20260901135231 | 78 | 237 | 2.6 | 6.1 | 0.00 | 0.00 | 0.00 | 71 | 1018.3 |
| 20260901135130 | 78 | 237 | 2.6 | 6.1 | 0.00 | 0.00 | 0.00 | 71 | 1018.3 |
| 20260901135028 | 78 | 237 | 1.7 | 6.1 | 0.00 | 0.00 | 0.00 | 71 | 1018.3 |
| 20260901134927 | 78 | 239 | 2.6 | 6.1 | 0.00 | 0.00 | 0.00 | 71 | 1018.3 |
| 20260901134824 | 78 | 234 | 0.9 | 6.1 | 0.00 | 0.00 | 0.00 | 71 | 1018.3 |
| 20260901134733 | 78 | 234 | 2.6 | 6.1 | 0.00 | 0.00 | 0.00 | 71 | 1018.3 |
| 20260901134646 | 78 | 234 | 1.7 | 7.0 | 0.00 | 0.00 | 0.00 | 71 | 1018.3 |
| 20260901134524 | 78 | 222 | 0.9 | 7.0 | 0.00 | 0.00 | 0.00 | 71 | 1018.3 |
| 20260901134443 | 78 | 227 | 2.6 | 7.0 | 0.00 | 0.00 | 0.00 | 71 | 1018.3 |
| 20260901134342 | 78 | 217 | 2.6 | 7.0 | 0.00 | 0.00 | 0.00 | 72 | 1018.3 |
| 20260901134221 | 78 | 234 | 2.6 | 7.0 | 0.00 | 0.00 | 0.00 | 72 | 1018.3 |
| 20260901134143 | 78 | 234 | 3.5 | 7.0 | 0.00 | 0.00 | 0.00 | 72 | 1018.3 |
| 20260901134040 | 78 | 234 | 4.3 | 7.0 | 0.00 | 0.00 | 0.00 | 72 | 1018.3 |
| 20260901133938 | 78 | 234 | 5.2 | 7.0 | 0.00 | 0.00 | 0.00 | 72 | 1018.3 |
| 20260901133840 | 78 | 219 | 4.3 | 7.0 | 0.00 | 0.00 | 0.00 | 72 | 1018.3 |
| 20260901133740 | 78 | 220 | 5.2 | 7.0 | 0.00 | 0.00 | 0.00 | 72 | 1018.3 |
| 20260901133637 | 77 | 233 | 3.5 | 6.1 | 0.00 | 0.00 | 0.00 | 72 | 1018.3 |
| 20260901133555 | 77 | 234 | 1.7 | 6.1 | 0.00 | 0.00 | 0.00 | 72 | 1018.3 |
| 20260901133431 | 77 | 234 | 3.5 | 6.1 | 0.00 | 0.00 | 0.00 | 72 | 1018.3 |
| 20260901133330 | 77 | 239 | 4.3 | 7.0 | 0.00 | 0.00 | 0.00 | 72 | 1018.3 |
| 20260901133228 | 77 | 233 | 2.6 | 7.0 | 0.00 | 0.00 | 0.00 | 72 | 1018.3 |
| 20260901133159 | 77 | 230 | 4.3 | 7.0 | 0.00 | 0.00 | 0.00 | 73 | 1018.3 |
| 20260901133037 | 77 | 232 | 3.5 | 7.0 | 0.00 | 0.00 | 0.00 | 72 | 1018.3 |
| 20260901132936 | 77 | 230 | 2.6 | 7.0 | 0.00 | 0.00 | 0.00 | 72 | 1018.3 |
| 20260901132834 | 77 | 226 | 1.7 | 7.0 | 0.00 | 0.00 | 0.00 | 72 | 1018.3 |
| 20260901132733 | 77 | 227 | 1.7 | 7.0 | 0.00 | 0.00 | 0.00 | 72 | 1018.4 |
| 20260901132651 | 77 | 229 | 3.5 | 7.0 | 0.00 | 0.00 | 0.00 | 72 | 1018.4 |
| 20260901132529 | 77 | 229 | 5.2 | 7.0 | 0.00 | 0.00 | 0.00 | 72 | 1018.4 |
| 20260901132428 | 77 | 232 | 3.5 | 7.0 | 0.00 | 0.00 | 0.00 | 72 | 1018.4 |
| 20260901132330 | 77 | 232 | 2.6 | 7.0 | 0.00 | 0.00 | 0.00 | 72 | 1018.4 |
| 20260901132229 | 77 | 232 | 3.5 | 8.7 | 0.00 | 0.00 | 0.00 | 72 | 1018.4 |
| 20260901132147 | 77 | 229 | 2.6 | 8.7 | 0.00 | 0.00 | 0.00 | 72 | 1018.4 |
| 20260901132026 | 77 | 230 | 4.3 | 8.7 | 0.00 | 0.00 | 0.00 | 72 | 1018.4 |
| 20260901131924 | 77 | 229 | 4.3 | 8.7 | 0.00 | 0.00 | 0.00 | 72 | 1018.4 |
| 20260901131823 | 77 | 229 | 5.2 | 8.7 | 0.00 | 0.00 | 0.00 | 72 | 1018.4 |
| 20260901131735 | 77 | 232 | 5.2 | 8.7 | 0.00 | 0.00 | 0.00 | 72 | 1018.4 |
| 20260901131649 | 77 | 215 | 3.5 | 8.7 | 0.00 | 0.00 | 0.00 | 72 | 1018.4 |
| 20260901131528 | 77 | 220 | 4.3 | 8.7 | 0.00 | 0.00 | 0.00 | 72 | 1018.4 |
| 20260901131427 | 77 | 215 | 6.1 | 8.7 | 0.00 | 0.00 | 0.00 | 72 | 1018.4 |
| 20260901131324 | 77 | 224 | 4.3 | 7.0 | 0.00 | 0.00 | 0.00 | 72 | 1018.4 |
| 20260901131224 | 77 | 223 | 5.2 | 7.0 | 0.00 | 0.00 | 0.00 | 72 | 1018.3 |
| 20260901131143 | 77 | 224 | 3.5 | 7.0 | 0.00 | 0.00 | 0.00 | 72 | 1018.3 |
| 20260901131041 | 77 | 223 | 3.5 | 7.0 | 0.00 | 0.00 | 0.00 | 72 | 1018.3 |
| 20260901130958 | 77 | 227 | 3.5 | 7.0 | 0.00 | 0.00 | 0.00 | 72 | 1018.3 |
| 20260901130840 | 77 | 224 | 3.5 | 7.0 | 0.00 | 0.00 | 0.00 | 72 | 1018.3 |
| 20260901130739 | 77 | 229 | 5.2 | 7.0 | 0.00 | 0.00 | 0.00 | 72 | 1018.3 |
| 20260901130637 | 77 | 229 | 3.5 | 7.0 | 0.00 | 0.00 | 0.00 | 72 | 1018.3 |
| 20260901130536 | 77 | 223 | 5.2 | 8.7 | 0.00 | 0.00 | 0.00 | 73 | 1018.3 |
| 20260901130434 | 77 | 220 | 5.2 | 8.7 | 0.00 | 0.00 | 0.00 | 73 | 1018.3 |
| 20260901130334 | 76 | 217 | 2.6 | 8.7 | 0.00 | 0.00 | 0.00 | 73 | 1018.3 |
| 20260901130253 | 76 | 217 | 2.6 | 8.7 | 0.00 | 0.00 | 0.00 | 73 | 1018.3 |
| 20260901130201 | 76 | 216 | 4.3 | 8.7 | 0.00 | 0.00 | 0.00 | 73 | 1018.3 |
| 20260901130043 | 76 | 217 | 3.5 | 8.7 | 0.00 | 0.00 | 0.00 | 73 | 1018.3 |
| 20260901125942 | 76 | 216 | 2.6 | 8.7 | 0.00 | 0.00 | 0.00 | 73 | 1018.3 |
| 20260901125840 | 76 | 222 | 3.5 | 8.7 | 0.00 | 0.00 | 0.00 | 73 | 1018.3 |
| 20260901125737 | 76 | 200 | 2.6 | 8.7 | 0.00 | 0.00 | 0.00 | 73 | 1018.4 |
| 20260901125637 | 76 | 215 | 5.2 | 8.7 | 0.00 | 0.00 | 0.00 | 74 | 1018.4 |
| 20260901125537 | 76 | 208 | 5.2 | 8.7 | 0.00 | 0.00 | 0.00 | 73 | 1018.4 |
| 20260901125440 | 76 | 205 | 5.2 | 8.7 | 0.00 | 0.00 | 0.00 | 73 | 1018.4 |
| 20260901125339 | 76 | 215 | 3.5 | 8.7 | 0.00 | 0.00 | 0.00 | 73 | 1018.4 |
| 20260901125236 | 76 | 212 | 3.5 | 8.7 | 0.00 | 0.00 | 0.00 | 73 | 1018.4 |
| 20260901125135 | 76 | 206 | 4.3 | 8.7 | 0.00 | 0.00 | 0.00 | 73 | 1018.4 |
| 20260901125033 | 76 | 222 | 2.6 | 7.0 | 0.00 | 0.00 | 0.00 | 74 | 1018.4 |
| 20260901124931 | 76 | 220 | 4.3 | 7.0 | 0.00 | 0.00 | 0.00 | 74 | 1018.4 |
| 20260901124829 | 76 | 219 | 1.7 | 7.0 | 0.00 | 0.00 | 0.00 | 74 | 1018.4 |
| 20260901124743 | 76 | 217 | 4.3 | 7.0 | 0.00 | 0.00 | 0.00 | 74 | 1018.4 |
| 20260901124653 | 76 | 215 | 4.3 | 7.0 | 0.00 | 0.00 | 0.00 | 73 | 1018.4 |
| 20260901124551 | 76 | 217 | 3.5 | 7.0 | 0.00 | 0.00 | 0.00 | 74 | 1018.4 |
| 20260901124428 | 76 | 217 | 1.7 | 7.0 | 0.00 | 0.00 | 0.00 | 73 | 1018.4 |
| 20260901124330 | 76 | 219 | 4.3 | 7.0 | 0.00 | 0.00 | 0.00 | 74 | 1018.4 |
| 20260901124229 | 76 | 222 | 4.3 | 6.1 | 0.00 | 0.00 | 0.00 | 74 | 1018.2 |
| 20260901124147 | 76 | 222 | 3.5 | 6.1 | 0.00 | 0.00 | 0.00 | 74 | 1018.2 |
| 20260901124025 | 76 | 224 | 3.5 | 6.1 | 0.00 | 0.00 | 0.00 | 74 | 1018.2 |
| 20260901123927 | 76 | 223 | 5.2 | 8.7 | 0.00 | 0.00 | 0.00 | 74 | 1018.2 |
| 20260901123845 | 76 | 230 | 5.2 | 8.7 | 0.00 | 0.00 | 0.00 | 74 | 1018.2 |
| 20260901123743 | 76 | 240 | 5.2 | 8.7 | 0.00 | 0.00 | 0.00 | 74 | 1018.2 |
| 20260901123640 | 76 | 230 | 4.3 | 8.7 | 0.00 | 0.00 | 0.00 | 74 | 1018.2 |
| 20260901123538 | 76 | 234 | 3.5 | 8.7 | 0.00 | 0.00 | 0.00 | 74 | 1018.2 |
| 20260901123435 | 76 | 227 | 4.3 | 8.7 | 0.00 | 0.00 | 0.00 | 73 | 1018.2 |
| 20260901123334 | 76 | 226 | 2.6 | 8.7 | 0.00 | 0.00 | 0.00 | 73 | 1018.2 |
| 20260901123253 | 76 | 224 | 3.5 | 8.7 | 0.00 | 0.00 | 0.00 | 73 | 1018.2 |
| 20260901123202 | 76 | 226 | 5.2 | 8.7 | 0.00 | 0.00 | 0.00 | 73 | 1018.2 |
| 20260901123059 | 76 | 215 | 6.1 | 8.7 | 0.00 | 0.00 | 0.00 | 73 | 1018.2 |
| 20260901122941 | 76 | 220 | 6.1 | 8.7 | 0.00 | 0.00 | 0.00 | 73 | 1018.2 |
| 20260901122839 | 76 | 219 | 5.2 | 8.7 | 0.00 | 0.00 | 0.00 | 73 | 1018.2 |
| 20260901122738 | 76 | 222 | 4.3 | 8.7 | 0.00 | 0.00 | 0.00 | 73 | 1018.0 |
| 20260901122638 | 76 | 226 | 5.2 | 8.7 | 0.00 | 0.00 | 0.00 | 73 | 1018.0 |
| 20260901122556 | 76 | 223 | 4.3 | 8.7 | 0.00 | 0.00 | 0.00 | 73 | 1018.0 |
| 20260901122433 | 76 | 206 | 5.2 | 8.7 | 0.00 | 0.00 | 0.00 | 73 | 1018.0 |
| 20260901122331 | 76 | 236 | 4.3 | 8.7 | 0.00 | 0.00 | 0.00 | 73 | 1018.0 |
| 20260901122234 | 76 | 234 | 6.1 | 8.7 | 0.00 | 0.00 | 0.00 | 73 | 1018.0 |
| 20260901122132 | 76 | 196 | 5.2 | 8.7 | 0.00 | 0.00 | 0.00 | 73 | 1018.0 |
| 20260901122030 | 76 | 232 | 5.2 | 8.7 | 0.00 | 0.00 | 0.00 | 73 | 1018.0 |
| 20260901121928 | 76 | 234 | 5.2 | 8.7 | 0.00 | 0.00 | 0.00 | 73 | 1018.0 |
| 20260901121849 | 76 | 233 | 5.2 | 8.7 | 0.00 | 0.00 | 0.00 | 73 | 1018.0 |
| 20260901121737 | 76 | 224 | 4.3 | 8.7 | 0.00 | 0.00 | 0.00 | 73 | 1018.0 |
| 20260901121647 | 76 | 220 | 5.2 | 8.7 | 0.00 | 0.00 | 0.00 | 73 | 1018.0 |
| 20260901121545 | 76 | 216 | 5.2 | 8.7 | 0.00 | 0.00 | 0.00 | 72 | 1018.0 |
| 20260901121442 | 76 | 224 | 2.6 | 8.7 | 0.00 | 0.00 | 0.00 | 72 | 1018.0 |
| 20260901121345 | 76 | 222 | 5.2 | 8.7 | 0.00 | 0.00 | 0.00 | 72 | 1018.0 |
| 20260901121243 | 76 | 224 | 5.2 | 8.7 | 0.00 | 0.00 | 0.00 | 72 | 1017.7 |
| 20260901121142 | 76 | 234 | 4.3 | 8.7 | 0.00 | 0.00 | 0.00 | 72 | 1017.7 |
| 20260901121102 | 76 | 232 | 3.5 | 8.7 | 0.00 | 0.00 | 0.00 | 72 | 1017.7 |
| 20260901120938 | 76 | 233 | 5.2 | 8.7 | 0.00 | 0.00 | 0.00 | 72 | 1017.7 |
| 20260901120858 | 76 | 220 | 6.1 | 8.7 | 0.00 | 0.00 | 0.00 | 71 | 1017.7 |
| 20260901120755 | 76 | 217 | 5.2 | 7.0 | 0.00 | 0.00 | 0.00 | 71 | 1017.7 |
| 20260901120632 | 76 | 223 | 4.3 | 7.0 | 0.00 | 0.00 | 0.00 | 71 | 1017.7 |
| 20260901120530 | 76 | 210 | 4.3 | 7.0 | 0.00 | 0.00 | 0.00 | 71 | 1017.7 |
| 20260901120432 | 76 | 220 | 2.6 | 7.0 | 0.00 | 0.00 | 0.00 | 71 | 1017.7 |
| 20260901120329 | 76 | 222 | 2.6 | 7.0 | 0.00 | 0.00 | 0.00 | 71 | 1017.7 |
| 20260901120228 | 76 | 222 | 5.2 | 7.0 | 0.00 | 0.00 | 0.00 | 71 | 1017.7 |
| 20260901120158 | 76 | 212 | 4.3 | 7.0 | 0.00 | 0.00 | 0.00 | 71 | 1017.7 |
| 20260901120034 | 76 | 224 | 5.2 | 7.0 | 0.00 | 0.00 | 0.00 | 71 | 1017.7 |
| 20260901115932 | 76 | 232 | 4.3 | 7.0 | 0.00 | 0.00 | 0.00 | 71 | 1017.7 |
| 20260901115831 | 76 | 222 | 5.2 | 7.0 | 0.00 | 0.00 | 0.00 | 71 | 1017.7 |
| 20260901115735 | 76 | 224 | 5.2 | 7.0 | 0.00 | 0.00 | 0.00 | 71 | 1017.6 |
| 20260901115634 | 76 | 226 | 4.3 | 7.0 | 0.00 | 0.00 | 0.00 | 71 | 1017.6 |
| 20260901115551 | 76 | 237 | 2.6 | 7.0 | 0.00 | 0.00 | 0.00 | 71 | 1017.6 |
| 20260901115433 | 76 | 237 | 3.5 | 7.0 | 0.00 | 0.00 | 0.00 | 71 | 1017.6 |
| 20260901115335 | 76 | 223 | 4.3 | 7.0 | 0.00 | 0.00 | 0.00 | 71 | 1017.6 |
| 20260901115234 | 76 | 227 | 3.5 | 7.0 | 0.00 | 0.00 | 0.00 | 71 | 1017.6 |
| 20260901115152 | 76 | 227 | 4.3 | 7.0 | 0.00 | 0.00 | 0.00 | 71 | 1017.6 |
| 20260901115030 | 76 | 230 | 5.2 | 7.0 | 0.00 | 0.00 | 0.00 | 71 | 1017.6 |
| 20260901114952 | 76 | 234 | 5.2 | 7.0 | 0.00 | 0.00 | 0.00 | 70 | 1017.6 |
| 20260901114830 | 76 | 229 | 3.5 | 7.0 | 0.00 | 0.00 | 0.00 | 70 | 1017.6 |
| 20260901114749 | 76 | 222 | 3.5 | 7.0 | 0.00 | 0.00 | 0.00 | 70 | 1017.6 |
| 20260901114718 | 76 | 219 | 4.3 | 7.8 | 0.00 | 0.00 | 0.00 | 70 | 1017.6 |
| 20260901114556 | 76 | 229 | 5.2 | 7.8 | 0.00 | 0.00 | 0.00 | 70 | 1017.6 |
| 20260901114451 | 76 | 220 | 4.3 | 7.8 | 0.00 | 0.00 | 0.00 | 70 | 1017.6 |
| 20260901114330 | 76 | 209 | 5.2 | 7.8 | 0.00 | 0.00 | 0.00 | 70 | 1017.6 |
| 20260901114227 | 76 | 215 | 4.3 | 7.8 | 0.00 | 0.00 | 0.00 | 70 | 1017.5 |
| 20260901114145 | 76 | 206 | 4.3 | 7.8 | 0.00 | 0.00 | 0.00 | 70 | 1017.5 |
| 20260901114042 | 76 | 219 | 3.5 | 7.8 | 0.00 | 0.00 | 0.00 | 70 | 1017.5 |
| 20260901113944 | 76 | 220 | 4.3 | 7.8 | 0.00 | 0.00 | 0.00 | 70 | 1017.5 |
| 20260901113902 | 76 | 213 | 4.3 | 7.8 | 0.00 | 0.00 | 0.00 | 70 | 1017.5 |
| 20260901113741 | 76 | 212 | 5.2 | 7.8 | 0.00 | 0.00 | 0.00 | 70 | 1017.5 |
| 20260901113640 | 76 | 220 | 4.3 | 7.8 | 0.00 | 0.00 | 0.00 | 70 | 1017.5 |
| 20260901113539 | 76 | 230 | 4.3 | 7.8 | 0.00 | 0.00 | 0.00 | 70 | 1017.5 |
| 20260901113437 | 76 | 212 | 4.3 | 7.8 | 0.00 | 0.00 | 0.00 | 70 | 1017.5 |
| 20260901113336 | 76 | 219 | 4.3 | 7.8 | 0.00 | 0.00 | 0.00 | 70 | 1017.5 |
| 20260901113305 | 76 | 223 | 3.5 | 7.8 | 0.00 | 0.00 | 0.00 | 70 | 1017.5 |
| 20260901113158 | 76 | 223 | 3.5 | 7.8 | 0.00 | 0.00 | 0.00 | 70 | 1017.5 |
| 20260901113054 | 76 | 219 | 3.5 | 9.6 | 0.00 | 0.00 | 0.00 | 70 | 1017.5 |
| 20260901112952 | 76 | 209 | 4.3 | 9.6 | 0.00 | 0.00 | 0.00 | 70 | 1017.5 |
| 20260901112830 | 76 | 226 | 5.2 | 9.6 | 0.00 | 0.00 | 0.00 | 70 | 1017.5 |
| 20260901112748 | 76 | 217 | 5.2 | 9.6 | 0.00 | 0.00 | 0.00 | 69 | 1017.4 |
| 20260901112645 | 76 | 236 | 4.3 | 9.6 | 0.00 | 0.00 | 0.00 | 70 | 1017.4 |
| 20260901112544 | 76 | 232 | 3.5 | 9.6 | 0.00 | 0.00 | 0.00 | 70 | 1017.4 |
| 20260901112503 | 76 | 222 | 3.5 | 9.6 | 0.00 | 0.00 | 0.00 | 70 | 1017.4 |
| 20260901112340 | 76 | 227 | 3.5 | 9.6 | 0.00 | 0.00 | 0.00 | 70 | 1017.4 |
| 20260901112223 | 76 | 219 | 6.1 | 9.6 | 0.00 | 0.00 | 0.00 | 70 | 1017.4 |
| 20260901112124 | 76 | 220 | 6.1 | 7.8 | 0.00 | 0.00 | 0.00 | 70 | 1017.4 |
| 20260901112043 | 76 | 210 | 5.2 | 7.8 | 0.00 | 0.00 | 0.00 | 70 | 1017.4 |
| 20260901111940 | 76 | 229 | 4.3 | 6.1 | 0.00 | 0.00 | 0.00 | 70 | 1017.4 |
| 20260901111839 | 76 | 226 | 4.3 | 7.0 | 0.00 | 0.00 | 0.00 | 70 | 1017.4 |
| 20260901111737 | 76 | 230 | 2.6 | 7.8 | 0.00 | 0.00 | 0.00 | 69 | 1017.4 |
| 20260901111707 | 76 | 236 | 5.2 | 7.8 | 0.00 | 0.00 | 0.00 | 69 | 1017.4 |
| 20260901111543 | 76 | 230 | 4.3 | 7.8 | 0.00 | 0.00 | 0.00 | 69 | 1017.4 |
| 20260901111446 | 76 | 219 | 3.5 | 7.8 | 0.00 | 0.00 | 0.00 | 69 | 1017.4 |
| 20260901111404 | 75 | 229 | 4.3 | 7.8 | 0.00 | 0.00 | 0.00 | 69 | 1017.4 |
| 20260901111241 | 75 | 227 | 4.3 | 8.7 | 0.00 | 0.00 | 0.00 | 69 | 1017.2 |
| 20260901111140 | 75 | 230 | 3.5 | 8.7 | 0.00 | 0.00 | 0.00 | 69 | 1017.2 |
| 20260901111038 | 75 | 229 | 4.3 | 8.7 | 0.00 | 0.00 | 0.00 | 69 | 1017.2 |
| 20260901110936 | 75 | 232 | 6.1 | 8.7 | 0.00 | 0.00 | 0.00 | 69 | 1017.2 |
| 20260901110855 | 75 | 237 | 5.2 | 8.7 | 0.00 | 0.00 | 0.00 | 70 | 1017.2 |
| 20260901110734 | 75 | 224 | 4.3 | 9.6 | 0.00 | 0.00 | 0.00 | 69 | 1017.2 |
| 20260901110636 | 75 | 230 | 4.3 | 9.6 | 0.00 | 0.00 | 0.00 | 69 | 1017.2 |
| 20260901110534 | 75 | 232 | 4.3 | 9.6 | 0.00 | 0.00 | 0.00 | 69 | 1017.2 |
| 20260901110432 | 75 | 230 | 5.2 | 9.6 | 0.00 | 0.00 | 0.00 | 69 | 1017.2 |
| 20260901110350 | 75 | 217 | 6.1 | 9.6 | 0.00 | 0.00 | 0.00 | 69 | 1017.2 |
| 20260901110230 | 75 | 213 | 5.2 | 9.6 | 0.00 | 0.00 | 0.00 | 70 | 1017.2 |
| 20260901110201 | 75 | 223 | 5.2 | 9.6 | 0.00 | 0.00 | 0.00 | 70 | 1017.2 |
| 20260901110037 | 75 | 217 | 4.3 | 9.6 | 0.00 | 0.00 | 0.00 | 70 | 1017.2 |
| 20260901105935 | 75 | 205 | 5.2 | 9.6 | 0.00 | 0.00 | 0.00 | 70 | 1017.2 |
| 20260901105838 | 75 | 213 | 5.2 | 9.6 | 0.00 | 0.00 | 0.00 | 70 | 1017.2 |
| 20260901105736 | 75 | 220 | 6.1 | 9.6 | 0.00 | 0.00 | 0.00 | 70 | 1017.2 |
| 20260901105636 | 75 | 219 | 6.1 | 9.6 | 0.00 | 0.00 | 0.00 | 70 | 1017.2 |
| 20260901105536 | 75 | 213 | 6.1 | 9.6 | 0.00 | 0.00 | 0.00 | 70 | 1017.2 |
| 20260901105433 | 75 | 192 | 4.3 | 8.7 | 0.00 | 0.00 | 0.00 | 69 | 1017.2 |
| 20260901105330 | 75 | 226 | 5.2 | 8.7 | 0.00 | 0.00 | 0.00 | 70 | 1017.2 |
| 20260901105229 | 75 | 227 | 5.2 | 8.7 | 0.00 | 0.00 | 0.00 | 70 | 1017.2 |
| 20260901105130 | 75 | 213 | 6.1 | 8.7 | 0.00 | 0.00 | 0.00 | 70 | 1017.2 |
| 20260901105029 | 75 | 195 | 5.2 | 9.6 | 0.00 | 0.00 | 0.00 | 70 | 1017.2 |
| 20260901104926 | 75 | 208 | 4.3 | 9.6 | 0.00 | 0.00 | 0.00 | 70 | 1017.2 |
| 20260901104824 | 75 | 208 | 5.2 | 9.6 | 0.00 | 0.00 | 0.00 | 70 | 1017.2 |
| 20260901104724 | 75 | 212 | 5.2 | 9.6 | 0.00 | 0.00 | 0.00 | 70 | 1017.2 |
| 20260901104653 | 75 | 205 | 4.3 | 9.6 | 0.00 | 0.00 | 0.00 | 70 | 1017.2 |
| 20260901104531 | 75 | 227 | 4.3 | 9.6 | 0.00 | 0.00 | 0.00 | 70 | 1017.2 |
| 20260901104433 | 75 | 216 | 5.2 | 9.6 | 0.00 | 0.00 | 0.00 | 70 | 1017.2 |
| 20260901104332 | 75 | 223 | 5.2 | 9.6 | 0.00 | 0.00 | 0.00 | 70 | 1017.2 |
| 20260901104231 | 75 | 199 | 6.1 | 9.6 | 0.00 | 0.00 | 0.00 | 70 | 1017.0 |
| 20260901104130 | 75 | 202 | 4.3 | 9.6 | 0.00 | 0.00 | 0.00 | 70 | 1017.0 |
| 20260901104028 | 75 | 216 | 4.3 | 9.6 | 0.00 | 0.00 | 0.00 | 70 | 1017.0 |
| 20260901103928 | 75 | 216 | 5.2 | 9.6 | 0.00 | 0.00 | 0.00 | 70 | 1017.0 |
| 20260901103830 | 75 | 200 | 7.0 | 9.6 | 0.00 | 0.00 | 0.00 | 70 | 1017.0 |
| 20260901103752 | 75 | 222 | 4.3 | 8.7 | 0.00 | 0.00 | 0.00 | 70 | 1017.0 |
| 20260901103629 | 75 | 215 | 5.2 | 8.7 | 0.00 | 0.00 | 0.00 | 70 | 1017.0 |
| 20260901103526 | 75 | 209 | 5.2 | 8.7 | 0.00 | 0.00 | 0.00 | 70 | 1017.0 |
| 20260901103426 | 75 | 209 | 4.3 | 8.7 | 0.00 | 0.00 | 0.00 | 70 | 1017.0 |
| 20260901103326 | 75 | 210 | 3.5 | 8.7 | 0.00 | 0.00 | 0.00 | 70 | 1017.0 |
| 20260901103238 | 75 | 206 | 6.1 | 8.7 | 0.00 | 0.00 | 0.00 | 70 | 1017.0 |
| 20260901103149 | 75 | 212 | 3.5 | 8.7 | 0.00 | 0.00 | 0.00 | 70 | 1017.0 |
| 20260901103030 | 75 | 205 | 4.3 | 8.7 | 0.00 | 0.00 | 0.00 | 71 | 1017.0 |
| 20260901102927 | 75 | 203 | 3.5 | 7.8 | 0.00 | 0.00 | 0.00 | 71 | 1017.0 |
| 20260901102846 | 75 | 206 | 4.3 | 7.8 | 0.00 | 0.00 | 0.00 | 71 | 1017.0 |
| 20260901102805 | 75 | 205 | 5.2 | 7.8 | 0.00 | 0.00 | 0.00 | 71 | 1017.0 |
| 20260901102641 | 75 | 209 | 3.5 | 7.8 | 0.00 | 0.00 | 0.00 | 71 | 1017.0 |
| 20260901102539 | 75 | 192 | 4.3 | 10.4 | 0.00 | 0.00 | 0.00 | 71 | 1017.0 |
| 20260901102438 | 75 | 185 | 5.2 | 10.4 | 0.00 | 0.00 | 0.00 | 71 | 1017.0 |
| 20260901102336 | 75 | 212 | 4.3 | 10.4 | 0.00 | 0.00 | 0.00 | 71 | 1017.0 |
| 20260901102238 | 75 | 196 | 3.5 | 10.4 | 0.00 | 0.00 | 0.00 | 71 | 1017.0 |
| 20260901102136 | 75 | 199 | 5.2 | 10.4 | 0.00 | 0.00 | 0.00 | 71 | 1017.0 |
| 20260901102035 | 75 | 215 | 5.2 | 10.4 | 0.00 | 0.00 | 0.00 | 71 | 1017.0 |
| 20260901101957 | 75 | 210 | 3.5 | 10.4 | 0.00 | 0.00 | 0.00 | 71 | 1017.0 |
| 20260901101854 | 75 | 210 | 3.5 | 10.4 | 0.00 | 0.00 | 0.00 | 71 | 1017.0 |
| 20260901101731 | 75 | 198 | 5.2 | 10.4 | 0.00 | 0.00 | 0.00 | 70 | 1017.0 |
| 20260901101700 | 75 | 195 | 5.2 | 10.4 | 0.00 | 0.00 | 0.00 | 71 | 1017.0 |
| 20260901101538 | 75 | 206 | 4.3 | 10.4 | 0.00 | 0.00 | 0.00 | 70 | 1017.0 |
| 20260901101434 | 75 | 203 | 4.3 | 10.4 | 0.00 | 0.00 | 0.00 | 71 | 1017.0 |
| 20260901101353 | 75 | 202 | 4.3 | 10.4 | 0.00 | 0.00 | 0.00 | 71 | 1017.0 |
| 20260901101234 | 75 | 193 | 4.3 | 10.4 | 0.00 | 0.00 | 0.00 | 71 | 1016.9 |
| 20260901101133 | 75 | 203 | 4.3 | 8.7 | 0.00 | 0.00 | 0.00 | 71 | 1016.9 |
| 20260901101031 | 75 | 193 | 4.3 | 8.7 | 0.00 | 0.00 | 0.00 | 71 | 1016.9 |
| 20260901100933 | 75 | 188 | 4.3 | 8.7 | 0.00 | 0.00 | 0.00 | 71 | 1016.9 |
| 20260901100834 | 75 | 208 | 4.3 | 8.7 | 0.00 | 0.00 | 0.00 | 71 | 1016.9 |
| 20260901100752 | 75 | 205 | 4.3 | 8.7 | 0.00 | 0.00 | 0.00 | 71 | 1016.9 |
| 20260901100628 | 75 | 198 | 3.5 | 8.7 | 0.00 | 0.00 | 0.00 | 71 | 1016.9 |
| 20260901100530 | 75 | 198 | 3.5 | 8.7 | 0.00 | 0.00 | 0.00 | 71 | 1016.9 |
| 20260901100430 | 75 | 193 | 4.3 | 8.7 | 0.00 | 0.00 | 0.00 | 71 | 1016.9 |
| 20260901100329 | 75 | 198 | 5.2 | 8.7 | 0.00 | 0.00 | 0.00 | 71 | 1016.9 |
| 20260901100227 | 75 | 198 | 4.3 | 8.7 | 0.00 | 0.00 | 0.00 | 71 | 1016.9 |
| 20260901100158 | 75 | 199 | 4.3 | 8.7 | 0.00 | 0.00 | 0.00 | 71 | 1016.9 |
| 20260901100054 | 75 | 186 | 5.2 | 8.7 | 0.00 | 0.00 | 0.00 | 72 | 1016.9 |
| 20260901095952 | 75 | 179 | 5.2 | 8.7 | 0.00 | 0.00 | 0.00 | 72 | 1016.9 |
| 20260901095829 | 75 | 193 | 4.3 | 8.7 | 0.00 | 0.00 | 0.00 | 72 | 1016.9 |
| 20260901095733 | 75 | 184 | 3.5 | 7.0 | 0.00 | 0.00 | 0.00 | 72 | 1016.7 |
| 20260901095632 | 75 | 185 | 1.7 | 7.0 | 0.00 | 0.00 | 0.00 | 72 | 1016.7 |
| 20260901095550 | 75 | 192 | 3.5 | 7.0 | 0.00 | 0.00 | 0.00 | 72 | 1016.7 |
| 20260901095427 | 75 | 188 | 3.5 | 7.0 | 0.00 | 0.00 | 0.00 | 73 | 1016.7 |
| 20260901095326 | 76 | 210 | 3.5 | 7.0 | 0.00 | 0.00 | 0.00 | 73 | 1016.7 |
| 20260901095224 | 76 | 193 | 2.6 | 7.0 | 0.00 | 0.00 | 0.00 | 73 | 1016.7 |
| 20260901095143 | 76 | 185 | 2.6 | 7.0 | 0.00 | 0.00 | 0.00 | 73 | 1016.7 |
| 20260901095026 | 76 | 186 | 3.5 | 7.0 | 0.00 | 0.00 | 0.00 | 72 | 1016.7 |
| 20260901094924 | 76 | 189 | 2.6 | 7.0 | 0.00 | 0.00 | 0.00 | 72 | 1016.7 |
| 20260901094843 | 76 | 191 | 3.5 | 7.0 | 0.00 | 0.00 | 0.00 | 72 | 1016.7 |
| 20260901094742 | 76 | 182 | 2.6 | 6.1 | 0.00 | 0.00 | 0.00 | 72 | 1016.7 |
| 20260901094653 | 76 | 184 | 2.6 | 6.1 | 0.00 | 0.00 | 0.00 | 72 | 1016.7 |
| 20260901094531 | 76 | 179 | 2.6 | 6.1 | 0.00 | 0.00 | 0.00 | 72 | 1016.7 |
| 20260901094449 | 76 | 178 | 3.5 | 6.1 | 0.00 | 0.00 | 0.00 | 72 | 1016.7 |
| 20260901094327 | 76 | 185 | 4.3 | 6.1 | 0.00 | 0.00 | 0.00 | 72 | 1016.7 |
| 20260901094230 | 76 | 181 | 2.6 | 5.2 | 0.00 | 0.00 | 0.00 | 72 | 1016.7 |
| 20260901094128 | 76 | 181 | 2.6 | 4.3 | 0.00 | 0.00 | 0.00 | 72 | 1016.7 |
| 20260901094027 | 76 | 182 | 1.7 | 4.3 | 0.00 | 0.00 | 0.00 | 72 | 1016.7 |
| 20260901093924 | 76 | 176 | 2.6 | 4.3 | 0.00 | 0.00 | 0.00 | 72 | 1016.7 |
| 20260901093842 | 76 | 182 | 2.6 | 4.3 | 0.00 | 0.00 | 0.00 | 72 | 1016.7 |
| 20260901093740 | 76 | 176 | 1.7 | 4.3 | 0.00 | 0.00 | 0.00 | 72 | 1016.7 |
| 20260901093641 | 76 | 178 | 2.6 | 6.1 | 0.00 | 0.00 | 0.00 | 71 | 1016.7 |
| 20260901093540 | 76 | 178 | 1.7 | 6.1 | 0.00 | 0.00 | 0.00 | 71 | 1016.7 |
| 20260901093442 | 76 | 178 | 1.7 | 6.1 | 0.00 | 0.00 | 0.00 | 71 | 1016.7 |
| 20260901093401 | 76 | 179 | 1.7 | 6.1 | 0.00 | 0.00 | 0.00 | 71 | 1016.7 |
| 20260901093257 | 76 | 174 | 2.6 | 6.1 | 0.00 | 0.00 | 0.00 | 72 | 1016.7 |
| 20260901093207 | 76 | 174 | 1.7 | 6.1 | 0.00 | 0.00 | 0.00 | 72 | 1016.7 |
| 20260901093042 | 76 | 175 | 1.7 | 6.1 | 0.00 | 0.00 | 0.00 | 73 | 1016.7 |
| 20260901092941 | 76 | 178 | 2.6 | 6.1 | 0.00 | 0.00 | 0.00 | 73 | 1016.7 |
| 20260901092900 | 76 | 179 | 2.6 | 6.1 | 0.00 | 0.00 | 0.00 | 73 | 1016.7 |
| 20260901092739 | 76 | 179 | 2.6 | 6.1 | 0.00 | 0.00 | 0.00 | 72 | 1016.5 |
| 20260901092656 | 76 | 178 | 1.7 | 5.2 | 0.00 | 0.00 | 0.00 | 72 | 1016.5 |
| 20260901092553 | 76 | 178 | 1.7 | 5.2 | 0.00 | 0.00 | 0.00 | 72 | 1016.5 |
| 20260901092434 | 76 | 181 | 1.7 | 5.2 | 0.00 | 0.00 | 0.00 | 72 | 1016.5 |
| 20260901092332 | 76 | 184 | 1.7 | 5.2 | 0.00 | 0.00 | 0.00 | 72 | 1016.5 |
| 20260901092251 | 76 | 184 | 1.7 | 5.2 | 0.00 | 0.00 | 0.00 | 72 | 1016.5 |
| 20260901092128 | 76 | 182 | 2.6 | 5.2 | 0.00 | 0.00 | 0.00 | 72 | 1016.5 |
| 20260901092026 | 76 | 181 | 1.7 | 5.2 | 0.00 | 0.00 | 0.00 | 72 | 1016.5 |
| 20260901091926 | 76 | 184 | 3.5 | 5.2 | 0.00 | 0.00 | 0.00 | 71 | 1016.5 |
| 20260901091824 | 76 | 186 | 2.6 | 5.2 | 0.00 | 0.00 | 0.00 | 71 | 1016.5 |
| 20260901091733 | 76 | 184 | 1.7 | 5.2 | 0.00 | 0.00 | 0.00 | 71 | 1016.5 |
| 20260901091646 | 76 | 179 | 1.7 | 5.2 | 0.00 | 0.00 | 0.00 | 71 | 1016.5 |
| 20260901091524 | 76 | 184 | 2.6 | 5.2 | 0.00 | 0.00 | 0.00 | 71 | 1016.5 |
| 20260901091443 | 76 | 174 | 1.7 | 5.2 | 0.00 | 0.00 | 0.00 | 71 | 1016.5 |
| 20260901091341 | 76 | 175 | 1.7 | 5.2 | 0.00 | 0.00 | 0.00 | 71 | 1016.5 |
| 20260901091239 | 76 | 178 | 1.7 | 5.2 | 0.00 | 0.00 | 0.00 | 71 | 1016.4 |
| 20260901091138 | 76 | 178 | 1.7 | 5.2 | 0.00 | 0.00 | 0.00 | 71 | 1016.4 |
| 20260901091036 | 76 | 179 | 2.6 | 6.1 | 0.00 | 0.00 | 0.00 | 71 | 1016.4 |
| 20260901090939 | 76 | 181 | 2.6 | 6.1 | 0.00 | 0.00 | 0.00 | 71 | 1016.4 |
| 20260901090837 | 76 | 179 | 1.7 | 6.1 | 0.00 | 0.00 | 0.00 | 71 | 1016.4 |
| 20260901090735 | 76 | 184 | 1.7 | 6.1 | 0.00 | 0.00 | 0.00 | 71 | 1016.4 |
| 20260901090635 | 76 | 182 | 1.7 | 6.1 | 0.00 | 0.00 | 0.00 | 71 | 1016.4 |
| 20260901090534 | 76 | 188 | 1.7 | 6.1 | 0.00 | 0.00 | 0.00 | 71 | 1016.4 |
| 20260901090431 | 76 | 186 | 3.5 | 6.1 | 0.00 | 0.00 | 0.00 | 71 | 1016.4 |
| 20260901090329 | 76 | 184 | 2.6 | 6.1 | 0.00 | 0.00 | 0.00 | 71 | 1016.4 |
| 20260901090232 | 76 | 181 | 3.5 | 6.1 | 0.00 | 0.00 | 0.00 | 71 | 1016.4 |
| 20260901090203 | 76 | 185 | 2.6 | 6.1 | 0.00 | 0.00 | 0.00 | 71 | 1016.4 |
| 20260901090040 | 76 | 179 | 2.6 | 6.1 | 0.00 | 0.00 | 0.00 | 71 | 1016.4 |
| 20260901085937 | 76 | 175 | 2.6 | 6.1 | 0.00 | 0.00 | 0.00 | 71 | 1016.4 |
| 20260901085836 | 76 | 176 | 1.7 | 6.1 | 0.00 | 0.00 | 0.00 | 71 | 1016.4 |
| 20260901085733 | 76 | 172 | 2.6 | 6.1 | 0.00 | 0.00 | 0.00 | 71 | 1016.4 |
| 20260901085630 | 76 | 174 | 1.7 | 6.1 | 0.00 | 0.00 | 0.00 | 71 | 1016.4 |
| 20260901085529 | 76 | 174 | 1.7 | 6.1 | 0.00 | 0.00 | 0.00 | 72 | 1016.4 |
| 20260901085431 | 76 | 171 | 3.5 | 6.1 | 0.00 | 0.00 | 0.00 | 72 | 1016.4 |
| 20260901085329 | 76 | 171 | 1.7 | 6.1 | 0.00 | 0.00 | 0.00 | 72 | 1016.4 |
| 20260901085227 | 76 | 175 | 1.7 | 6.1 | 0.00 | 0.00 | 0.00 | 71 | 1016.4 |
| 20260901085127 | 76 | 178 | 2.6 | 10.4 | 0.00 | 0.00 | 0.00 | 71 | 1016.4 |
| 20260901085045 | 76 | 178 | 2.6 | 10.4 | 0.00 | 0.00 | 0.00 | 71 | 1016.4 |
| 20260901084943 | 76 | 176 | 2.6 | 10.4 | 0.00 | 0.00 | 0.00 | 71 | 1016.4 |
| 20260901084841 | 76 | 171 | 3.5 | 10.4 | 0.00 | 0.00 | 0.00 | 71 | 1016.4 |
| 20260901084724 | 76 | 181 | 3.5 | 10.4 | 0.00 | 0.00 | 0.00 | 71 | 1016.4 |
| 20260901084655 | 76 | 179 | 2.6 | 10.4 | 0.00 | 0.00 | 0.00 | 71 | 1016.4 |
| 20260901084552 | 76 | 185 | 1.7 | 10.4 | 0.00 | 0.00 | 0.00 | 70 | 1016.4 |
| 20260901084450 | 76 | 184 | 3.5 | 10.4 | 0.00 | 0.00 | 0.00 | 70 | 1016.4 |
| 20260901084328 | 76 | 195 | 5.2 | 10.4 | 0.00 | 0.00 | 0.00 | 69 | 1016.4 |
| 20260901084226 | 76 | 176 | 3.5 | 7.8 | 0.00 | 0.00 | 0.00 | 69 | 1016.4 |
| 20260901084145 | 76 | 184 | 4.3 | 7.8 | 0.00 | 0.00 | 0.00 | 70 | 1016.4 |
| 20260901084103 | 76 | 184 | 4.3 | 7.8 | 0.00 | 0.00 | 0.00 | 70 | 1016.4 |
| 20260901083925 | 76 | 196 | 4.3 | 7.8 | 0.00 | 0.00 | 0.00 | 70 | 1016.4 |
| 20260901083842 | 76 | 191 | 3.5 | 7.0 | 0.00 | 0.00 | 0.00 | 70 | 1016.4 |
| 20260901083741 | 76 | 186 | 4.3 | 7.0 | 0.00 | 0.00 | 0.00 | 70 | 1016.4 |
| 20260901083638 | 76 | 206 | 3.5 | 7.0 | 0.00 | 0.00 | 0.00 | 70 | 1016.4 |
| 20260901083535 | 76 | 185 | 2.6 | 6.1 | 0.00 | 0.00 | 0.00 | 70 | 1016.4 |
| 20260901083434 | 76 | 191 | 3.5 | 6.1 | 0.00 | 0.00 | 0.00 | 70 | 1016.4 |
| 20260901083331 | 76 | 191 | 2.6 | 6.1 | 0.00 | 0.00 | 0.00 | 70 | 1016.4 |
| 20260901083241 | 76 | 169 | 3.5 | 6.1 | 0.00 | 0.00 | 0.00 | 70 | 1016.4 |
| 20260901083150 | 76 | 172 | 2.6 | 6.1 | 0.00 | 0.00 | 0.00 | 71 | 1016.4 |
| 20260901083029 | 76 | 174 | 2.6 | 6.1 | 0.00 | 0.00 | 0.00 | 71 | 1016.4 |
| 20260901082929 | 77 | 167 | 2.6 | 6.1 | 0.00 | 0.00 | 0.00 | 71 | 1016.4 |
| 20260901082827 | 77 | 169 | 3.5 | 6.1 | 0.00 | 0.00 | 0.00 | 71 | 1016.4 |
| 20260901082746 | 77 | 169 | 4.3 | 6.1 | 0.00 | 0.00 | 0.00 | 71 | 1016.4 |
| 20260901082703 | 77 | 169 | 3.5 | 6.1 | 0.00 | 0.00 | 0.00 | 71 | 1016.4 |
| 20260901082540 | 77 | 174 | 2.6 | 6.1 | 0.00 | 0.00 | 0.00 | 71 | 1016.4 |
| 20260901082438 | 77 | 164 | 2.6 | 6.1 | 0.00 | 0.00 | 0.00 | 71 | 1016.4 |
| 20260901082339 | 77 | 167 | 1.7 | 6.1 | 0.00 | 0.00 | 0.00 | 71 | 1016.4 |
| 20260901082238 | 77 | 162 | 3.5 | 6.1 | 0.00 | 0.00 | 0.00 | 71 | 1016.4 |
| 20260901082135 | 77 | 167 | 4.3 | 6.1 | 0.00 | 0.00 | 0.00 | 71 | 1016.4 |
| 20260901082034 | 77 | 161 | 4.3 | 5.2 | 0.00 | 0.00 | 0.00 | 71 | 1016.4 |
| 20260901081933 | 77 | 161 | 3.5 | 6.1 | 0.00 | 0.00 | 0.00 | 71 | 1016.4 |
| 20260901081832 | 77 | 162 | 2.6 | 6.1 | 0.00 | 0.00 | 0.00 | 71 | 1016.4 |
| 20260901081740 | 77 | 164 | 3.5 | 6.1 | 0.00 | 0.00 | 0.00 | 71 | 1016.4 |
| 20260901081652 | 77 | 165 | 3.5 | 6.1 | 0.00 | 0.00 | 0.00 | 71 | 1016.4 |
| 20260901081554 | 77 | 168 | 2.6 | 6.1 | 0.00 | 0.00 | 0.00 | 71 | 1016.4 |
| 20260901081432 | 77 | 168 | 3.5 | 6.1 | 0.00 | 0.00 | 0.00 | 70 | 1016.4 |
| 20260901081350 | 77 | 162 | 4.3 | 6.1 | 0.00 | 0.00 | 0.00 | 70 | 1016.4 |
| 20260901081308 | 77 | 157 | 2.6 | 6.1 | 0.00 | 0.00 | 0.00 | 70 | 1016.4 |
| 20260901081204 | 77 | 162 | 2.6 | 6.1 | 0.00 | 0.00 | 0.00 | 70 | 1016.4 |
| 20260901081041 | 77 | 162 | 3.5 | 6.1 | 0.00 | 0.00 | 0.00 | 70 | 1016.4 |
| 20260901080959 | 77 | 164 | 2.6 | 5.2 | 0.00 | 0.00 | 0.00 | 70 | 1016.4 |
| 20260901080837 | 77 | 164 | 4.3 | 6.1 | 0.00 | 0.00 | 0.00 | 70 | 1016.4 |
| 20260901080755 | 77 | 162 | 3.5 | 6.1 | 0.00 | 0.00 | 0.00 | 70 | 1016.4 |
| 20260901080637 | 77 | 168 | 4.3 | 6.1 | 0.00 | 0.00 | 0.00 | 71 | 1016.4 |
| 20260901080534 | 77 | 169 | 2.6 | 6.1 | 0.00 | 0.00 | 0.00 | 71 | 1016.4 |
| 20260901080433 | 77 | 165 | 2.6 | 6.1 | 0.00 | 0.00 | 0.00 | 71 | 1016.4 |
| 20260901080330 | 77 | 162 | 3.5 | 6.1 | 0.00 | 0.00 | 0.00 | 71 | 1016.4 |
| 20260901080240 | 77 | 158 | 3.5 | 6.1 | 0.00 | 0.00 | 0.00 | 71 | 1016.4 |
| 20260901080150 | 77 | 157 | 3.5 | 6.1 | 0.00 | 0.00 | 0.00 | 71 | 1016.4 |
| 20260901080027 | 77 | 152 | 4.3 | 6.1 | 0.00 | 0.00 | 0.00 | 71 | 1016.4 |
| 20260901075930 | 77 | 140 | 2.6 | 6.1 | 0.00 | 0.00 | 0.00 | 71 | 1016.4 |
| 20260901075829 | 77 | 147 | 5.2 | 6.1 | 0.00 | 0.00 | 0.00 | 71 | 1016.4 |
| 20260901075727 | 77 | 154 | 4.3 | 6.1 | 0.00 | 0.00 | 0.00 | 71 | 1016.4 |
| 20260901075625 | 77 | 151 | 5.2 | 6.1 | 0.00 | 0.00 | 0.00 | 71 | 1016.4 |
| 20260901075524 | 77 | 145 | 4.3 | 6.1 | 0.00 | 0.00 | 0.00 | 71 | 1016.4 |
| 20260901075443 | 77 | 144 | 5.2 | 7.0 | 0.00 | 0.00 | 0.00 | 71 | 1016.4 |
| 20260901075342 | 77 | 144 | 4.3 | 7.0 | 0.00 | 0.00 | 0.00 | 71 | 1016.4 |
| 20260901075300 | 77 | 147 | 4.3 | 7.0 | 0.00 | 0.00 | 0.00 | 71 | 1016.4 |
| 20260901075143 | 77 | 144 | 4.3 | 7.0 | 0.00 | 0.00 | 0.00 | 70 | 1016.4 |
| 20260901075042 | 77 | 144 | 4.3 | 7.0 | 0.00 | 0.00 | 0.00 | 70 | 1016.4 |
| 20260901074941 | 77 | 145 | 4.3 | 7.0 | 0.00 | 0.00 | 0.00 | 70 | 1016.4 |
| 20260901074840 | 77 | 143 | 5.2 | 7.0 | 0.00 | 0.00 | 0.00 | 71 | 1016.4 |
| 20260901074740 | 77 | 150 | 4.3 | 7.0 | 0.00 | 0.00 | 0.00 | 71 | 1016.4 |
| 20260901074710 | 77 | 144 | 2.6 | 7.0 | 0.00 | 0.00 | 0.00 | 71 | 1016.4 |
| 20260901074526 | 77 | 130 | 3.5 | 7.0 | 0.00 | 0.00 | 0.00 | 71 | 1016.4 |
| 20260901074448 | 77 | 110 | 3.5 | 7.0 | 0.00 | 0.00 | 0.00 | 71 | 1016.4 |
| 20260901074405 | 77 | 143 | 3.5 | 7.0 | 0.00 | 0.00 | 0.00 | 71 | 1016.4 |
| 20260901074242 | 77 | 140 | 3.5 | 7.0 | 0.00 | 0.00 | 0.00 | 71 | 1016.4 |
| 20260901074141 | 77 | 137 | 2.6 | 6.1 | 0.00 | 0.00 | 0.00 | 71 | 1016.4 |
| 20260901074038 | 77 | 151 | 2.6 | 6.1 | 0.00 | 0.00 | 0.00 | 71 | 1016.4 |
| 20260901073936 | 77 | 148 | 5.2 | 6.1 | 0.00 | 0.00 | 0.00 | 71 | 1016.4 |
| 20260901073835 | 77 | 144 | 4.3 | 6.1 | 0.00 | 0.00 | 0.00 | 70 | 1016.4 |
| 20260901073736 | 77 | 144 | 4.3 | 6.1 | 0.00 | 0.00 | 0.00 | 71 | 1016.4 |
| 20260901073658 | 77 | 137 | 4.3 | 6.1 | 0.00 | 0.00 | 0.00 | 71 | 1016.4 |
| 20260901073535 | 77 | 131 | 5.2 | 6.1 | 0.00 | 0.00 | 0.00 | 71 | 1016.4 |
| 20260901073434 | 77 | 131 | 4.3 | 6.1 | 0.00 | 0.00 | 0.00 | 71 | 1016.4 |
| 20260901073352 | 77 | 121 | 3.5 | 6.1 | 0.00 | 0.00 | 0.00 | 70 | 1016.4 |
| 20260901073242 | 77 | 114 | 3.5 | 6.1 | 0.00 | 0.00 | 0.00 | 71 | 1016.4 |
| 20260901073153 | 77 | 109 | 4.3 | 6.1 | 0.00 | 0.00 | 0.00 | 71 | 1016.4 |
| 20260901073049 | 77 | 138 | 3.5 | 6.1 | 0.00 | 0.00 | 0.00 | 71 | 1016.4 |
| 20260901072926 | 77 | 137 | 3.5 | 6.1 | 0.00 | 0.00 | 0.00 | 71 | 1016.4 |
| 20260901072843 | 77 | 141 | 3.5 | 6.1 | 0.00 | 0.00 | 0.00 | 71 | 1016.4 |
| 20260901072725 | 77 | 126 | 3.5 | 6.1 | 0.00 | 0.00 | 0.00 | 71 | 1016.4 |
| 20260901072642 | 77 | 143 | 3.5 | 6.1 | 0.00 | 0.00 | 0.00 | 71 | 1016.4 |
| 20260901072541 | 77 | 145 | 3.5 | 6.1 | 0.00 | 0.00 | 0.00 | 71 | 1016.4 |
| 20260901072439 | 77 | 145 | 4.3 | 6.1 | 0.00 | 0.00 | 0.00 | 71 | 1016.4 |
| 20260901072338 | 77 | 141 | 4.3 | 6.1 | 0.00 | 0.00 | 0.00 | 70 | 1016.4 |
| 20260901072256 | 77 | 144 | 4.3 | 6.1 | 0.00 | 0.00 | 0.00 | 70 | 1016.4 |
| 20260901072132 | 77 | 145 | 4.3 | 6.1 | 0.00 | 0.00 | 0.00 | 70 | 1016.4 |
| 20260901072029 | 77 | 141 | 4.3 | 6.1 | 0.00 | 0.00 | 0.00 | 70 | 1016.4 |
| 20260901071931 | 77 | 137 | 3.5 | 6.1 | 0.00 | 0.00 | 0.00 | 70 | 1016.4 |
| 20260901071830 | 77 | 136 | 3.5 | 6.1 | 0.00 | 0.00 | 0.00 | 70 | 1016.4 |
| 20260901071728 | 77 | 134 | 3.5 | 6.1 | 0.00 | 0.00 | 0.00 | 70 | 1016.4 |
| 20260901071658 | 77 | 121 | 4.3 | 6.1 | 0.00 | 0.00 | 0.00 | 71 | 1016.4 |
| 20260901071535 | 77 | 143 | 4.3 | 6.1 | 0.00 | 0.00 | 0.00 | 71 | 1016.4 |
| 20260901071434 | 77 | 143 | 4.3 | 6.1 | 0.00 | 0.00 | 0.00 | 71 | 1016.4 |
| 20260901071332 | 77 | 134 | 3.5 | 6.1 | 0.00 | 0.00 | 0.00 | 71 | 1016.4 |
| 20260901071234 | 77 | 143 | 4.3 | 6.1 | 0.00 | 0.00 | 0.00 | 71 | 1016.6 |
| 20260901071132 | 77 | 144 | 4.3 | 6.1 | 0.00 | 0.00 | 0.00 | 71 | 1016.6 |
| 20260901071031 | 77 | 145 | 4.3 | 6.1 | 0.00 | 0.00 | 0.00 | 71 | 1016.6 |
| 20260901070930 | 77 | 144 | 4.3 | 6.1 | 0.00 | 0.00 | 0.00 | 71 | 1016.6 |
| 20260901070828 | 77 | 141 | 3.5 | 6.1 | 0.00 | 0.00 | 0.00 | 71 | 1016.6 |
| 20260901070727 | 77 | 145 | 3.5 | 6.1 | 0.00 | 0.00 | 0.00 | 71 | 1016.6 |
| 20260901070630 | 77 | 148 | 4.3 | 6.1 | 0.00 | 0.00 | 0.00 | 71 | 1016.6 |
| 20260901070529 | 77 | 147 | 3.5 | 7.0 | 0.00 | 0.00 | 0.00 | 71 | 1016.6 |
| 20260901070427 | 77 | 147 | 3.5 | 7.0 | 0.00 | 0.00 | 0.00 | 70 | 1016.6 |
| 20260901070326 | 77 | 147 | 3.5 | 7.0 | 0.00 | 0.00 | 0.00 | 71 | 1016.6 |
| 20260901070225 | 77 | 147 | 4.3 | 7.0 | 0.00 | 0.00 | 0.00 | 71 | 1016.6 |
| 20260901070157 | 77 | 143 | 3.5 | 7.0 | 0.00 | 0.00 | 0.00 | 71 | 1016.6 |
| 20260901070034 | 77 | 144 | 2.6 | 7.0 | 0.00 | 0.00 | 0.00 | 71 | 1016.6 |
| 20260901065935 | 77 | 144 | 4.3 | 7.0 | 0.00 | 0.00 | 0.00 | 71 | 1016.6 |
| 20260901065838 | 77 | 148 | 4.3 | 7.0 | 0.00 | 0.00 | 0.00 | 70 | 1016.6 |
| 20260901065738 | 77 | 152 | 4.3 | 7.0 | 0.00 | 0.00 | 0.00 | 70 | 1016.6 |
| 20260901065640 | 77 | 151 | 3.5 | 7.0 | 0.00 | 0.00 | 0.00 | 70 | 1016.6 |
| 20260901065538 | 77 | 154 | 2.6 | 7.0 | 0.00 | 0.00 | 0.00 | 70 | 1016.6 |
| 20260901065436 | 77 | 150 | 1.7 | 7.0 | 0.00 | 0.00 | 0.00 | 71 | 1016.6 |
| 20260901065335 | 77 | 150 | 3.5 | 7.0 | 0.00 | 0.00 | 0.00 | 71 | 1016.6 |
| 20260901065237 | 77 | 145 | 3.5 | 7.0 | 0.00 | 0.00 | 0.00 | 71 | 1016.6 |
| 20260901065135 | 77 | 150 | 5.2 | 7.0 | 0.00 | 0.00 | 0.00 | 70 | 1016.6 |
| 20260901065034 | 77 | 143 | 4.3 | 7.0 | 0.00 | 0.00 | 0.00 | 71 | 1016.6 |
| 20260901064932 | 77 | 155 | 3.5 | 7.0 | 0.00 | 0.00 | 0.00 | 71 | 1016.6 |
| 20260901064830 | 77 | 145 | 5.2 | 7.0 | 0.00 | 0.00 | 0.00 | 71 | 1016.6 |
| 20260901064729 | 77 | 148 | 4.3 | 6.1 | 0.00 | 0.00 | 0.00 | 71 | 1016.6 |
| 20260901064659 | 77 | 150 | 5.2 | 6.1 | 0.00 | 0.00 | 0.00 | 71 | 1016.6 |
| 20260901064557 | 77 | 144 | 3.5 | 6.1 | 0.00 | 0.00 | 0.00 | 71 | 1016.6 |
| 20260901064458 | 77 | 151 | 3.5 | 6.1 | 0.00 | 0.00 | 0.00 | 71 | 1016.6 |
| 20260901064335 | 77 | 151 | 4.3 | 6.1 | 0.00 | 0.00 | 0.00 | 71 | 1016.6 |
| 20260901064235 | 77 | 150 | 4.3 | 6.1 | 0.00 | 0.00 | 0.00 | 71 | 1016.6 |
| 20260901064133 | 77 | 144 | 4.3 | 6.1 | 0.00 | 0.00 | 0.00 | 71 | 1016.6 |
| 20260901064031 | 77 | 143 | 4.3 | 6.1 | 0.00 | 0.00 | 0.00 | 71 | 1016.6 |
| 20260901063929 | 77 | 141 | 4.3 | 6.1 | 0.00 | 0.00 | 0.00 | 71 | 1016.6 |
| 20260901063828 | 77 | 143 | 3.5 | 6.1 | 0.00 | 0.00 | 0.00 | 71 | 1016.6 |
| 20260901063734 | 77 | 144 | 3.5 | 6.1 | 0.00 | 0.00 | 0.00 | 71 | 1016.6 |
| 20260901063633 | 77 | 141 | 4.3 | 6.1 | 0.00 | 0.00 | 0.00 | 72 | 1016.6 |
| 20260901063531 | 77 | 143 | 1.7 | 6.1 | 0.00 | 0.00 | 0.00 | 72 | 1016.6 |
| 20260901063430 | 77 | 143 | 3.5 | 6.1 | 0.00 | 0.00 | 0.00 | 71 | 1016.6 |
| 20260901063329 | 77 | 147 | 4.3 | 6.1 | 0.00 | 0.00 | 0.00 | 71 | 1016.6 |